[[{"header":{"parameterUnit":"m.s-1","parameterCategory":1,"la1":30.6,"la2":29.2853,"lo1":-89.7004,"lo2":-87.6739,"dy":0.0162,"dx":0.0183,"nx":112,"ny":82,"refTime":"2023-04-20T12:00:00:Z","depth":0,"parameterNumber":2,"parameterNumberName":"U-component_of_WINDS"},"data":[0.0,0.0,0.0,0.0,0.0,0.0,0.0,0.0,0.0,0.0,0.0,0.0,0.0,0.0,0.0,0.0,0.0,0.0,0.0,0.0,0.0,0.0,0.0,0.0,0.0,0.0,0.0,0.0,0.0,0.0,0.0,0.0,0.0,0.0,0.0,0.0,0.0,0.0,0.0,0.0,0.0,0.0,0.0,0.0,0.0,0.0,0.0,0.0,0.0,0.0,0.0,0.0,0.0,0.0,0.0,0.0,0.0,0.0,0.0,0.0,0.0,0.0,0.0,0.0,0.0,0.0,0.0,0.0,0.0,0.0,0.0,0.0,0.0,0.0,0.0,0.0,0.0,0.0,0.0,0.0,0.0,0.0,0.0,0.0,0.0,0.0,0.0,0.0,0.0,0.0,-0.5212,-0.4704,-0.5098,-0.5382,-0.5382,-0.5382,-0.5156,-0.4648,0.0,0.0,0.0,0.0,0.0,0.0,0.0,0.0,0.0,0.0,0.0,0.0,0.0,0.0,0.0,0.0,0.0,0.0,0.0,0.0,0.0,0.0,0.0,0.0,0.0,0.0,0.0,0.0,0.0,0.0,0.0,0.0,0.0,0.0,0.0,0.0,0.0,0.0,0.0,0.0,0.0,0.0,0.0,0.0,0.0,0.0,0.0,0.0,0.0,0.0,0.0,0.0,0.0,0.0,0.0,0.0,0.0,0.0,0.0,0.0,0.0,0.0,0.0,0.0,0.0,0.0,0.0,0.0,0.0,0.0,0.0,0.0,0.0,0.0,0.0,0.0,0.0,0.0,0.0,0.0,0.0,0.0,0.0,0.0,0.0,0.0,0.0,0.0,0.0,0.0,0.0,0.0,0.0,0.0,0.0,0.0,0.0,0.0,0.0,0.0,0.0,0.0,0.0,0.0,-0.5382,-0.5268,-0.5326,-0.5382,-0.5382,-0.5382,-0.5382,-0.5268,0.0,0.0,0.0,0.0,0.0,0.0,0.0,0.0,0.0,0.0,0.0,0.0,0.0,0.0,0.0,0.0,0.0,0.0,0.0,0.0,0.0,0.0,0.0,0.0,0.0,0.0,0.0,0.0,0.0,0.0,0.0,0.0,0.0,0.0,0.0,0.0,0.0,0.0,0.0,0.0,0.0,0.0,0.0,0.0,0.0,0.0,0.0,0.0,0.0,0.0,0.0,0.0,0.0,0.0,0.0,0.0,0.0,0.0,0.0,0.0,0.0,0.0,0.0,0.0,0.0,0.0,0.0,0.0,0.0,0.0,0.0,0.0,0.0,0.0,0.0,0.0,0.0,0.0,0.0,0.0,0.0,0.0,0.0,0.0,0.0,0.0,0.0,0.0,0.0,0.0,0.0,0.0,0.0,0.0,0.0,0.0,0.0,0.0,0.0,0.0,0.0,0.0,0.0,-0.5212,-0.5382,-0.5382,-0.5382,-0.5382,-0.5382,-0.5382,-0.5382,-0.5382,-0.5156,0.0,0.0,0.0,0.0,0.0,0.0,0.0,0.0,0.0,0.0,0.0,0.0,0.0,0.0,0.0,0.0,0.0,0.0,0.0,0.0,0.0,0.0,0.0,0.0,0.0,0.0,0.0,0.0,0.0,0.0,0.0,0.0,0.0,0.0,0.0,0.0,0.0,0.0,0.0,0.0,0.0,0.0,0.0,0.0,0.0,0.0,0.0,0.0,0.0,0.0,0.0,0.0,0.0,0.0,0.0,0.0,0.0,0.0,0.0,0.0,0.0,0.0,0.0,0.0,0.0,0.0,0.0,0.0,0.0,0.0,0.0,0.0,0.0,0.0,0.0,0.0,0.0,0.0,0.0,0.0,0.0,0.0,0.0,0.0,0.0,0.0,0.0,0.0,0.0,0.0,0.0,0.0,0.0,0.0,0.0,0.0,0.0,0.0,0.0,0.0,0.0,0.0,-0.5382,-0.5382,-0.5382,-0.5382,-0.5382,-0.5382,-0.5382,-0.5382,-0.5382,-0.5382,0.0,0.0,0.0,0.0,0.0,0.0,0.0,0.0,0.0,0.0,0.0,0.0,0.0,0.0,0.0,0.0,0.0,0.0,0.0,0.0,0.0,0.0,0.0,0.0,0.0,0.0,0.0,0.0,0.0,0.0,0.0,0.0,0.0,0.0,0.0,0.0,0.0,0.0,0.0,0.0,0.0,0.0,0.0,0.0,0.0,0.0,0.0,0.0,0.0,0.0,0.0,0.0,0.0,0.0,0.0,0.0,0.0,0.0,0.0,0.0,0.0,0.0,0.0,0.0,0.0,0.0,0.0,0.0,0.0,0.0,0.0,0.0,0.0,0.0,0.0,0.0,0.0,0.0,0.0,0.0,0.0,0.0,0.0,0.0,0.0,0.0,0.0,0.0,0.0,0.0,0.0,0.0,0.0,0.0,0.0,0.0,0.0,0.0,0.0,0.0,0.0,0.0,-0.5382,-0.5382,-0.5382,-0.5382,-0.5382,-0.5382,-0.5382,-0.5382,-0.5382,-0.5382,0.0,0.0,0.0,0.0,0.0,0.0,0.0,0.0,0.0,0.0,0.0,0.0,0.0,0.0,0.0,0.0,0.0,0.0,0.0,0.0,0.0,0.0,0.0,0.0,0.0,0.0,0.0,0.0,0.0,0.0,0.0,0.0,0.0,0.0,0.0,0.0,0.0,0.0,0.0,0.0,0.0,0.0,0.0,0.0,0.0,0.0,0.0,0.0,0.0,0.0,0.0,0.0,0.0,0.0,0.0,0.0,0.0,0.0,0.0,0.0,0.0,0.0,0.0,0.0,0.0,0.0,0.0,0.0,0.0,0.0,0.0,0.0,0.0,0.0,0.0,0.0,0.0,0.0,0.0,0.0,0.0,0.0,0.0,0.0,0.0,0.0,0.0,0.0,0.0,0.0,0.0,0.0,0.0,0.0,0.0,0.0,0.0,0.0,0.0,0.0,0.0,0.0,-0.551,-0.5545,-0.5545,-0.5545,-0.5545,-0.5545,-0.5545,-0.5545,-0.5545,0.0,0.0,0.0,0.0,0.0,0.0,0.0,0.0,0.0,0.0,0.0,0.0,0.0,0.0,0.0,0.0,0.0,0.0,0.0,0.0,0.0,0.0,0.0,0.0,0.0,0.0,0.0,0.0,0.0,0.0,0.0,0.0,0.0,0.0,0.0,0.0,0.0,0.0,0.0,0.0,0.0,0.0,0.0,0.0,0.0,0.0,0.0,0.0,0.0,0.0,0.0,0.0,0.0,0.0,0.0,0.0,0.0,0.0,0.0,0.0,0.0,0.0,0.0,0.0,0.0,0.0,0.0,0.0,0.0,0.0,0.0,0.0,0.0,0.0,0.0,0.0,0.0,0.0,0.0,0.0,0.0,0.0,0.0,0.0,0.0,0.0,0.0,0.0,0.0,0.0,0.0,0.0,0.0,0.0,0.0,0.0,0.0,0.0,0.0,0.0,0.0,0.0,-0.5551,-0.5546,-0.5584,-0.5584,-0.5584,-0.5584,-0.5584,-0.5584,-0.5584,-0.5584,0.0,0.0,0.0,0.0,0.0,0.0,0.0,0.0,0.0,0.0,0.0,0.0,0.0,0.0,0.0,0.0,0.0,0.0,0.0,0.0,0.0,0.0,0.0,0.0,0.0,0.0,0.0,0.0,0.0,0.0,0.0,0.0,0.0,0.0,0.0,0.0,0.0,0.0,0.0,0.0,0.0,0.0,0.0,0.0,0.0,0.0,0.0,0.0,0.0,0.0,0.0,0.0,0.0,0.0,0.0,0.0,0.0,0.0,0.0,0.0,0.0,0.0,0.0,0.0,0.0,0.0,0.0,0.0,0.0,0.0,0.0,0.0,0.0,0.0,0.0,0.0,0.0,0.0,0.0,0.0,0.0,0.0,0.0,0.0,0.0,0.0,0.0,0.0,0.0,0.0,0.0,0.0,0.0,0.0,0.0,0.0,0.0,0.0,0.0,0.0,0.0,0.0,-0.5586,-0.5586,-0.5588,-0.5588,-0.5588,-0.5588,-0.5588,-0.5588,-0.5588,0.0,0.0,0.0,0.0,0.0,0.0,0.0,0.0,0.0,0.0,0.0,0.0,0.0,0.0,0.0,0.0,0.0,0.0,0.0,0.0,0.0,0.0,0.0,0.0,0.0,0.0,0.0,0.0,0.0,0.0,0.0,0.0,0.0,0.0,0.0,0.0,0.0,0.0,0.0,0.0,0.0,0.0,0.0,0.0,0.0,0.0,0.0,0.0,0.0,0.0,0.0,0.0,0.0,0.0,0.0,0.0,0.0,0.0,0.0,0.0,0.0,0.0,0.0,0.0,0.0,0.0,0.0,0.0,0.0,0.0,0.0,0.0,0.0,0.0,0.0,0.0,0.0,0.0,0.0,0.0,0.0,0.0,0.0,0.0,0.0,0.0,0.0,0.0,0.0,0.0,0.0,0.0,0.0,0.0,0.0,0.0,0.0,0.0,0.0,0.0,0.0,0.0,0.0,-0.5741,-0.5796,-0.5837,-0.5837,-0.5837,-0.5837,-0.5837,-0.5837,-0.5837,-0.5837,0.0,0.0,0.0,0.0,0.0,0.0,0.0,0.0,0.0,0.0,0.0,0.0,0.0,0.0,0.0,0.0,0.0,0.0,0.0,0.0,0.0,0.0,0.0,0.0,0.0,0.0,0.0,0.0,0.0,0.0,0.0,0.0,0.0,0.0,0.0,0.0,0.0,0.0,0.0,0.0,0.0,0.0,0.0,0.0,0.0,0.0,0.0,0.0,0.0,0.0,0.0,0.0,0.0,0.0,0.0,0.0,0.0,0.0,0.0,0.0,0.0,0.0,0.0,0.0,0.0,0.0,0.0,0.0,0.0,0.0,0.0,0.0,0.0,0.0,0.0,0.0,0.0,0.0,0.0,0.0,0.0,0.0,0.0,0.0,0.0,0.0,0.0,0.0,0.0,0.0,0.0,0.0,0.0,0.0,0.0,0.0,0.0,0.0,0.0,0.0,0.0,0.0,-0.5835,-0.5884,-0.5916,-0.5916,-0.5916,-0.5916,-0.5916,-0.5916,-0.5916,-0.5916,0.0,0.0,0.0,0.0,0.0,0.0,0.0,0.0,0.0,0.0,0.0,0.0,0.0,0.0,0.0,0.0,0.0,0.0,0.0,0.0,0.0,0.0,0.0,0.0,0.0,0.0,0.0,0.0,0.0,0.0,0.0,0.0,0.0,0.0,0.0,0.0,0.0,0.0,0.0,0.0,0.0,0.0,0.0,0.0,0.0,0.0,0.0,0.0,0.0,0.0,0.0,0.0,0.0,0.0,0.0,0.0,0.0,0.0,0.0,0.0,0.0,0.0,0.0,0.0,0.0,0.0,0.0,0.0,0.0,0.0,0.0,0.0,0.0,0.0,0.0,0.0,0.0,0.0,0.0,0.0,0.0,0.0,0.0,0.0,0.0,0.0,0.0,0.0,0.0,0.0,0.0,0.0,0.0,0.0,0.0,0.0,0.0,0.0,0.0,0.0,0.0,0.0,-0.5916,-0.5916,-0.5916,-0.5916,-0.5916,-0.5916,-0.5916,-0.5916,-0.5916,-0.5916,0.0,0.0,0.0,0.0,0.0,0.0,0.0,0.0,0.0,0.0,0.0,0.0,0.0,0.0,0.0,0.0,0.0,0.0,0.0,0.0,0.0,0.0,0.0,0.0,0.0,0.0,0.0,0.0,0.0,0.0,0.0,0.0,0.0,0.0,0.0,0.0,0.0,0.0,0.0,0.0,0.0,0.0,0.0,0.0,0.0,0.0,0.0,0.0,0.0,0.0,0.0,0.0,0.0,0.0,0.0,0.0,0.0,0.0,0.0,0.0,-0.3542,-0.2872,0.0,0.0,0.0,0.0,0.0,0.0,0.0,0.0,0.0,0.0,0.0,0.0,0.0,0.0,0.0,0.0,0.0,0.0,0.0,0.0,0.0,0.0,0.0,0.0,0.0,0.0,0.0,0.0,0.0,0.0,0.0,0.0,0.0,0.0,0.0,0.0,0.0,0.0,0.0,0.0,-0.5916,-0.5916,-0.5916,-0.5916,-0.5916,-0.5916,-0.5916,-0.5916,-0.5916,-0.5916,-0.5916,0.0,0.0,0.0,0.0,0.0,0.0,0.0,0.0,0.0,0.0,0.0,0.0,0.0,0.0,0.0,0.0,0.0,0.0,0.0,0.0,0.0,0.0,0.0,0.0,0.0,0.0,0.0,0.0,0.0,0.0,0.0,0.0,0.0,0.0,0.0,0.0,0.0,0.0,0.0,0.0,0.0,0.0,0.0,0.0,0.0,0.0,0.0,0.0,0.0,0.0,0.0,0.0,0.0,0.0,0.0,0.0,0.0,0.0,0.0,-0.4006,-0.3637,0.0,0.0,0.0,0.0,0.0,0.0,0.0,0.0,0.0,0.0,0.0,0.0,0.0,0.0,0.0,0.0,0.0,0.0,0.0,0.0,0.0,0.0,0.0,0.0,0.0,0.0,0.0,0.0,0.0,0.0,0.0,0.0,0.0,0.0,0.0,0.0,0.0,0.0,0.0,0.0,-0.5916,-0.5916,-0.5916,-0.5916,-0.5916,-0.5916,-0.5916,-0.5916,-0.5916,-0.5916,-0.5916,0.0,0.0,0.0,0.0,0.0,0.0,0.0,0.0,0.0,0.0,0.0,0.0,0.0,0.0,0.0,0.0,0.0,0.0,0.0,0.0,0.0,0.0,0.0,0.0,0.0,0.0,0.0,0.0,0.0,0.0,0.0,0.0,0.0,0.0,0.0,0.0,0.0,0.0,0.0,0.0,0.0,0.0,0.0,0.0,0.0,0.0,0.0,0.0,0.0,0.0,0.0,0.0,0.0,-0.4222,-0.4286,-0.4286,-0.4286,-0.4594,-0.5089,-0.4532,-0.4518,-0.4863,-0.4312,0.0,0.0,0.0,0.0,0.0,0.0,0.0,0.0,0.0,0.0,0.0,0.0,0.0,0.0,0.0,0.0,0.0,0.0,0.0,0.0,0.0,0.0,-0.6335,-0.6335,-0.6346,-0.6423,-0.6423,0.0,0.0,0.0,0.0,0.0,0.0,0.0,0.0,0.0,0.0,0.0,-0.6149,-0.6149,-0.6149,-0.6149,-0.6149,-0.6087,-0.6025,-0.6025,-0.6025,-0.5963,-0.5963,-0.5963,0.0,0.0,0.0,0.0,0.0,0.0,0.0,0.0,0.0,0.0,0.0,0.0,0.0,0.0,0.0,0.0,0.0,0.0,0.0,0.0,0.0,0.0,0.0,0.0,0.0,0.0,0.0,0.0,0.0,0.0,0.0,0.0,-0.5855,-0.5794,0.0,0.0,0.0,0.0,0.0,0.0,0.0,0.0,0.0,0.0,0.0,0.0,0.0,-0.4086,-0.4086,-0.471,-0.506,-0.506,-0.5633,-0.5888,-0.5888,-0.5888,-0.5954,-0.6018,-0.5954,0.0,-0.4863,-0.4803,0.0,0.0,0.0,0.0,0.0,0.0,0.0,0.0,0.0,0.0,0.0,0.0,0.0,0.0,0.0,0.0,0.0,0.0,0.0,0.0,0.0,0.0,-0.6828,-0.6828,-0.709,-0.7351,-0.7351,-0.6751,-0.618,-0.618,-0.618,-0.6178,0.0,0.0,0.0,0.0,0.0,0.0,-0.704,-0.7103,-0.7103,-0.7103,-0.7103,-0.6978,-0.6598,-0.6598,-0.6468,-0.6209,-0.6145,-0.6145,-0.6145,-0.6145,0.0,0.0,0.0,0.0,0.0,0.0,0.0,0.0,0.0,0.0,0.0,0.0,0.0,0.0,0.0,0.0,0.0,0.0,0.0,0.0,0.0,0.0,0.0,0.0,0.0,0.0,0.0,0.0,0.0,-0.6035,-0.6065,-0.6065,-0.6065,-0.6065,0.0,0.0,0.0,0.0,0.0,0.0,0.0,0.0,0.0,-0.518,-0.5277,-0.5294,-0.5294,-0.5586,-0.5731,-0.5795,-0.6052,-0.618,-0.618,-0.618,-0.6208,-0.6257,-0.6257,-0.6112,-0.582,-0.5659,-0.543,-0.518,0.0,0.0,0.0,0.0,-0.5764,-0.5795,-0.6116,-0.618,-0.6188,-0.6241,0.0,0.0,0.0,0.0,0.0,0.0,0.0,-0.6926,-0.6926,-0.7092,-0.7259,-0.7259,-0.736,-0.7526,-0.7526,-0.7188,-0.6926,-0.6926,-0.6793,-0.6644,-0.6595,-0.6779,0.0,0.0,0.0,-0.7082,-0.7271,-0.7274,-0.7274,-0.7274,-0.7274,-0.721,-0.7082,-0.7018,-0.6954,-0.6823,-0.6823,-0.6823,-0.6823,-0.6631,-0.653,0.0,0.0,0.0,0.0,0.0,0.0,0.0,0.0,0.0,0.0,0.0,0.0,0.0,0.0,0.0,0.0,0.0,0.0,0.0,0.0,0.0,0.0,0.0,0.0,0.0,0.0,0.0,0.0,-0.6141,-0.618,-0.618,-0.618,-0.618,0.0,0.0,0.0,0.0,0.0,0.0,-0.6215,-0.6215,-0.6225,-0.6249,-0.6274,-0.6286,-0.6286,-0.6308,-0.6321,-0.6321,-0.6321,-0.6321,-0.6321,-0.6321,-0.6357,-0.6421,-0.6421,-0.6462,-0.6509,-0.6325,-0.6251,-0.6247,-0.6225,-0.6229,-0.6247,-0.6223,-0.6229,-0.6251,-0.6251,-0.6314,-0.6391,-0.646,-0.6549,-0.6694,-0.7031,0.0,0.0,0.0,0.0,-0.7526,-0.7526,-0.7593,-0.7658,-0.7658,-0.7724,-0.7791,-0.7791,-0.7724,-0.7593,-0.7526,-0.7323,-0.7098,-0.7094,-0.7278,0.0,-0.7108,-0.7291,-0.7547,-0.7612,-0.7612,-0.7612,-0.7612,-0.7612,-0.7612,-0.7483,-0.7483,-0.7485,-0.7353,-0.7355,-0.7355,-0.7355,-0.7032,-0.6938,-0.708,0.0,0.0,0.0,0.0,0.0,0.0,0.0,0.0,0.0,0.0,0.0,0.0,0.0,0.0,0.0,0.0,0.0,0.0,0.0,0.0,0.0,0.0,0.0,0.0,0.0,0.0,0.0,0.0,0.0,-0.618,-0.618,0.0,0.0,0.0,0.0,-0.618,-0.618,-0.6219,-0.6304,-0.6308,-0.6349,-0.6504,-0.6525,-0.657,-0.657,-0.6656,-0.6698,-0.6698,-0.6698,-0.6698,-0.6698,-0.6698,-0.67,-0.6705,-0.6705,-0.6709,-0.6698,-0.6517,-0.6508,-0.6498,-0.6343,-0.6364,-0.6496,-0.6341,-0.6366,-0.6508,-0.6508,-0.6706,-0.6971,-0.6976,-0.7181,-0.7452,-0.7457,-0.7459,0.0,0.0,-0.7526,-0.7526,-0.7526,-0.7791,-0.8058,-0.8058,-0.8323,-0.852,-0.852,-0.8323,-0.7925,-0.7593,-0.7459,-0.7457,-0.7452,0.0,-0.765,-0.7974,-0.8041,-0.8174,-0.8504,-0.8504,-0.8504,-0.8504,-0.8504,-0.8437,-0.8107,-0.8041,-0.7907,-0.751,-0.751,-0.751,-0.751,-0.7443,-0.7445,-0.7452,-0.7448,0.0,0.0,0.0,0.0,0.0,0.0,0.0,0.0,0.0,0.0,0.0,0.0,0.0,0.0,0.0,0.0,0.0,0.0,0.0,0.0,0.0,0.0,0.0,0.0,0.0,0.0,0.0,0.0,-0.6421,-0.6408,0.0,-0.6443,-0.6498,-0.6533,-0.6533,-0.6533,-0.6545,-0.6578,-0.658,-0.6594,-0.6627,-0.666,-0.6678,-0.6678,-0.6709,-0.6727,-0.6727,-0.6727,-0.6727,-0.6727,-0.6727,-0.6756,-0.6809,-0.6809,-0.6841,-0.689,-0.6825,-0.6731,-0.6625,-0.6592,-0.66,-0.6625,-0.6864,-0.6941,-0.7039,-0.7312,-0.7449,-0.7584,-0.7584,-0.779,-0.8064,-0.8064,-0.8204,-0.8412,-0.8412,-0.8412,-0.8412,-0.8412,-0.8481,-0.8618,-0.8618,-0.8686,-0.8821,-0.8821,-0.8686,-0.8549,-0.8412,-0.809,-0.7858,-0.7858,-0.8058,-0.8189,-0.8125,-0.8256,-0.8456,-0.8587,-0.8587,-0.8587,-0.8587,-0.8587,-0.852,-0.8454,-0.839,-0.839,-0.8189,-0.8189,-0.8189,-0.8189,-0.7992,-0.7858,-0.7858,-0.766,-0.7526,0.0,0.0,0.0,0.0,0.0,0.0,0.0,0.0,0.0,0.0,0.0,0.0,0.0,0.0,0.0,0.0,0.0,0.0,0.0,0.0,0.0,0.0,0.0,0.0,0.0,-0.6488,-0.6545,-0.6545,-0.66,-0.6637,-0.6637,-0.669,-0.6727,-0.6727,-0.6727,-0.6739,-0.6768,-0.6768,-0.6784,-0.6815,-0.6815,-0.6829,-0.6862,-0.6862,-0.6876,-0.6907,-0.6907,-0.6907,-0.6907,-0.6907,-0.6937,-0.7065,-0.7065,-0.7171,-0.7301,-0.7301,-0.7302,-0.7254,-0.7018,-0.691,-0.6978,-0.7362,-0.749,-0.7557,-0.7903,-0.8042,-0.8112,-0.8184,-0.8392,-0.8598,-0.8598,-0.874,-0.8882,-0.8882,-0.8882,-0.8882,-0.8882,-0.8882,-0.8882,-0.8882,-0.8882,-0.8882,-0.8882,-0.8882,-0.8882,-0.8882,-0.8615,-0.8374,-0.8374,-0.8577,-0.8642,-0.8374,-0.8577,-0.8709,-0.8709,-0.8709,-0.8709,-0.8709,-0.8709,-0.8709,-0.8709,-0.8709,-0.8709,-0.8709,-0.8709,-0.8709,-0.8709,-0.8509,-0.8374,-0.8374,-0.8105,-0.7902,-0.7832,0.0,0.0,0.0,0.0,0.0,0.0,0.0,0.0,0.0,0.0,0.0,0.0,0.0,0.0,0.0,0.0,0.0,0.0,0.0,0.0,0.0,0.0,0.0,-0.6744,-0.667,-0.6725,-0.6725,-0.6729,-0.6729,-0.6729,-0.6733,-0.6737,-0.6739,-0.6739,-0.6776,-0.6933,-0.6937,-0.6978,-0.6994,-0.6998,-0.7041,-0.7129,-0.7129,-0.7174,-0.7264,-0.7339,-0.7339,-0.7339,-0.7337,-0.7337,-0.7337,-0.7337,-0.7563,-0.7938,-0.7938,-0.8161,-0.8431,-0.7695,-0.7442,-0.7502,-0.7823,-0.7925,-0.7994,-0.8338,-0.8408,-0.8477,-0.8834,-0.8903,-0.8903,-0.8903,-0.8903,-0.8903,-0.8903,-0.8903,-0.8903,-0.8903,-0.8903,-0.8903,-0.8903,-0.8903,-0.8903,-0.8903,-0.8903,-0.8903,-0.8903,-0.8903,-0.89,-0.8884,-0.8882,-0.8882,-0.8882,-0.8882,0.0,-0.8882,-0.8882,-0.8882,-0.8882,-0.8882,-0.8882,-0.8882,-0.8882,-0.8882,-0.8882,-0.8882,-0.8882,-0.8882,-0.8882,-0.8882,-0.8882,-0.8882,-0.874,-0.8387,0.0,0.0,0.0,0.0,0.0,0.0,0.0,0.0,0.0,0.0,0.0,0.0,0.0,0.0,0.0,0.0,0.0,0.0,0.0,0.0,0.0,-0.7752,-0.7929,-0.7611,-0.7539,-0.7557,-0.7557,-0.7624,-0.767,-0.767,-0.7665,-0.7736,-0.7879,-0.7883,-0.7927,-0.803,-0.7815,-0.7605,-0.7631,-0.7335,-0.7201,-0.7225,-0.7225,-0.7237,-0.7339,-0.7563,-0.7712,-0.7714,-0.8013,-0.8161,-0.8161,-0.8161,-0.8236,-0.8311,-0.8311,-0.8387,-0.8452,-0.8292,-0.8185,-0.8255,-0.8592,-0.8953,-0.925,-0.9323,-0.9323,-0.9323,-0.9473,-0.9473,-0.9473,-0.9473,-0.9473,-0.9473,-0.9473,-0.9473,-0.9473,-0.9473,-0.9473,-0.9473,-0.9473,-0.9473,-0.9473,-0.9473,-0.9473,-0.9473,-0.9473,-0.9473,-0.9362,-0.8941,-0.8882,-0.8882,-0.8882,-0.8882,-0.8882,-0.8882,-0.8882,-0.8882,-0.8882,-0.8882,-0.8882,-0.8882,-0.8882,-0.8882,-0.8882,-0.8882,-0.8882,-0.8882,-0.8882,-0.8882,-0.8882,-0.8882,-0.8882,0.0,0.0,0.0,0.0,0.0,0.0,0.0,0.0,0.0,0.0,0.0,0.0,0.0,0.0,0.0,0.0,0.0,0.0,0.0,0.0,0.0,0.0,-0.8353,-0.8697,-0.8688,-0.8238,-0.7983,-0.8095,-0.8083,-0.814,-0.8186,-0.8245,-0.8305,-0.8364,-0.8367,-0.8395,-0.8532,-0.8311,-0.8161,-0.8161,-0.7938,-0.7807,-0.7848,-0.7848,-0.7868,-0.791,-0.8139,-0.8292,-0.8292,-0.8519,-0.8595,-0.8595,-0.8595,-0.8745,-0.8898,-0.8898,-0.8974,-0.9117,0.0,0.0,0.0,0.0,-0.9516,-0.9669,-0.9669,-0.9669,-0.9669,-0.9669,-0.9669,-0.9669,-0.9669,-0.9669,-0.9669,-0.9669,-0.9669,-0.9669,-0.9669,-0.9669,-0.9669,-0.9669,-0.9669,-0.9669,-0.9669,-0.9669,-0.9669,-0.9669,-0.9669,0.0,-0.9302,-0.9253,-0.9253,-0.9253,-0.9253,-0.9253,-0.9253,-0.9253,-0.9253,-0.9253,-0.9253,-0.9253,-0.9253,-0.9253,0.0,0.0,0.0,-0.9253,-0.9253,-0.9253,0.0,0.0,0.0,-0.9253,-0.9253,-0.9253,0.0,0.0,-0.862,-0.8651,0.0,0.0,0.0,0.0,0.0,0.0,0.0,0.0,0.0,0.0,0.0,0.0,0.0,0.0,0.0,0.0,-0.9287,-0.9546,-0.9655,-0.8895,-0.8294,-0.8457,-0.8467,-0.8506,-0.8602,-0.8612,-0.8617,-0.8627,-0.8627,-0.8634,-0.8646,-0.8646,0.0,0.0,0.0,-0.854,-0.8636,-0.8638,-0.8686,-0.8778,-0.8856,-0.8856,-0.8856,-0.8934,-0.8934,-0.8934,-0.8934,-0.9168,-0.9477,-0.9477,-0.9711,-0.992,-0.9403,-0.9171,-0.9247,-0.9631,-0.9709,-0.9709,-0.9709,0.0,0.0,-0.9709,-0.9709,-0.9709,-0.9709,-0.9709,-0.9709,-0.9709,-0.9709,-0.9709,-0.9709,-0.9709,-0.9709,-0.9709,-0.9709,-0.9709,-0.9709,-0.9709,-0.9709,-0.9709,-0.9709,-0.9709,-0.9709,-0.9688,-0.9669,-0.9669,-0.9669,-0.9669,-0.9669,-0.9669,-0.9669,-0.9669,-0.9669,0.0,-0.9669,-0.9669,-0.9669,-0.9669,-0.9669,-0.9669,-0.9669,-0.9669,-0.9669,-0.9669,-0.9669,-0.9669,-0.9669,-0.9669,-0.9669,-0.9661,-0.9231,-0.9144,0.0,0.0,0.0,0.0,0.0,0.0,0.0,0.0,0.0,0.0,0.0,0.0,0.0,0.0,0.0,-0.9025,-0.9406,-0.9644,-0.9666,-0.9553,-0.9382,-0.9406,-0.9409,-0.9417,-0.9441,-0.9444,-0.9481,-0.9568,-0.9576,-0.9616,-0.9714,-0.941,-0.9258,-0.9258,-0.8949,-0.8728,-0.8747,-0.8747,-0.8759,-0.8778,-0.909,0.0,-0.9324,-0.9633,-0.9789,-0.9789,-0.9789,-0.9786,-0.9864,-0.9864,-0.9942,-1.0017,-0.989,-0.9797,-0.9874,-0.9874,-0.9954,-0.9954,-0.9954,-0.9954,-0.9954,-0.9954,-0.9954,-0.9954,-0.9954,-0.9954,0.0,-0.9954,-0.9954,-0.9954,-0.9954,-0.9954,-0.9954,-0.9954,-0.9954,-0.9954,-0.9954,-0.9954,-0.9954,-0.9954,-0.9954,-0.9954,-0.9954,-0.9796,-0.9669,-0.9669,-0.9669,-0.9669,-0.9669,-0.9669,-0.9669,-0.9669,-0.9669,-0.9669,-0.9669,-0.9669,-0.9669,-0.9669,-0.9669,-0.9669,-0.9669,-0.9669,-0.9669,-0.9669,-0.9669,-0.9669,-0.9669,-0.9669,-0.9669,-0.9666,-0.9574,-0.9555,0.0,0.0,0.0,0.0,0.0,0.0,0.0,0.0,0.0,0.0,0.0,-0.8979,-0.8979,0.0,-0.9382,-0.9437,-0.9599,-0.9775,-0.9837,-0.9845,-0.9824,-0.9761,-0.9753,-0.9777,-0.984,-0.9845,-0.987,-0.9924,-0.993,-0.9954,-1.0017,-0.9786,-0.9711,-0.9711,-0.9477,-0.9399,-0.9399,-0.9399,-0.9399,-0.9399,-0.9633,-0.9711,-0.9711,-0.9944,-1.0019,-1.0019,-1.0019,-1.0019,-1.0019,-1.0019,-1.0019,-1.0019,-1.0019,-1.0019,-1.0019,-1.0019,-1.0019,-1.0019,-1.0019,-1.0019,-1.0019,-1.0019,-1.0019,-1.0019,-1.0019,-1.0019,-1.0019,-1.0019,-1.0019,-1.0019,-1.0019,-1.0019,-1.0019,-1.0019,-1.0019,-1.0019,-1.0019,-1.0019,-1.0019,-1.0019,-1.0019,-1.0019,-1.0019,-0.9924,-0.9845,-0.9845,-0.9845,-0.9845,-0.9845,-0.9845,-0.9845,-0.9845,-0.9845,-0.9845,-0.9845,-0.9845,-0.9845,-0.9845,-0.9845,-0.9845,-0.9845,-0.9845,-0.9845,-0.9845,-0.9845,-0.9845,-0.9845,-0.9845,-0.9845,-0.9845,-0.9845,-0.9813,0.0,0.0,0.0,0.0,0.0,0.0,0.0,-0.8925,-0.9155,-0.9448,-0.962,-0.9701,-0.9701,-0.972,-0.9767,-0.9859,-0.9873,-0.9908,-1.0006,-1.0019,-0.9984,-0.9886,-0.9873,-0.9911,-1.0011,-1.0019,-1.0019,-1.0019,-1.0019,-1.0019,-1.0019,-1.0019,-1.0019,-1.0019,-1.0019,-1.0019,-1.0019,-1.0019,-1.0019,-1.0019,-1.0019,-1.0019,-1.0019,-1.0019,-1.0019,-1.0019,-1.0019,-1.0019,-1.0019,-1.0019,-1.0019,-1.0019,-1.0019,-1.0019,-1.0019,-1.0019,-1.0019,-1.0019,-1.0019,-1.0019,-1.0019,-1.0019,-1.0019,-1.0019,-1.0019,-1.0019,-1.0019,-1.0019,-1.0019,-1.0019,-1.0019,-1.0019,-1.0019,-1.0019,-1.0019,-1.0019,-1.0019,-1.0019,-1.0019,-1.0019,-1.0019,-1.0019,-1.0019,-1.0019,-1.0019,-1.0019,-1.0019,-1.0019,-1.0019,-1.0019,-1.0019,-1.0019,-1.0019,-1.0019,-1.0019,-1.0019,-1.0019,-1.0019,-1.0019,-1.0019,-1.0019,-1.0019,-1.0019,-1.0019,-1.0019,-1.0019,-1.0019,-1.0019,-0.9864,-0.955,-0.955,-0.9421,-0.8512,-0.8871,-0.916,-0.916,-0.924,-0.9318,0.0,-0.9488,-0.965,-0.965,-0.9739,-0.9818,-0.9818,-0.9908,-0.9984,-0.9998,-1.0,-1.0006,-1.0019,-1.0019,-1.0014,-1.0003,-1.0,-1.0006,-1.0019,-1.0019,-1.0019,-1.0019,-1.0019,-1.0019,-1.0019,-1.0019,-1.0019,-1.0019,-1.0019,-1.0019,-1.0019,-1.0019,-1.0019,-1.0019,-1.0019,-1.0019,-1.0019,-1.0019,-1.0019,-1.0019,-1.0019,-1.0019,-1.0019,-1.0019,-1.0019,-1.0019,-1.0019,-1.0019,-1.0019,-1.0019,-1.0019,-1.0019,-1.0019,-1.0019,-1.0019,-1.0019,-1.0019,-1.0019,-1.0019,-1.0019,-1.0019,-1.0019,-1.0019,-1.0019,-1.0019,-1.0019,-1.0019,-1.0019,-1.0019,-1.0019,-1.0019,-1.0019,-1.0019,-1.0019,-1.0019,-1.0019,-1.0019,-1.0019,-1.0019,-1.0019,-1.0019,-1.0019,-1.0019,-1.0019,-1.0019,-1.0019,-1.0019,-1.0019,-1.0019,-1.0019,-1.0019,-1.0019,-1.0019,-1.0019,-1.0019,-1.0019,-1.0019,-1.0019,-1.0019,-1.0019,-1.0019,-1.0019,-0.9236,-0.7749,-0.7749,-0.7745,-0.9027,-0.9315,-0.9516,-0.9516,-0.9555,-0.9593,-0.9593,-0.9682,-0.9767,-0.9767,-0.9862,-0.9943,-0.9943,-0.9984,-1.0019,-1.0019,-1.0019,-1.0019,-1.0019,-1.0019,-1.0019,-1.0019,-1.0019,-1.0019,-1.0019,-1.0019,-1.0019,-1.0019,-1.0019,-1.0019,-1.0019,-1.0019,-1.0019,-1.0019,-1.0019,-1.0019,-1.0019,-1.0019,-1.0055,-1.0128,-1.0128,-1.0163,-1.0231,-1.0231,-1.0231,-1.0229,-1.0158,-1.0128,-1.0123,-1.0049,-1.0019,-1.0019,-1.0019,-1.0019,-1.0019,-1.0019,-1.0019,-1.0019,-1.0019,-1.0019,-1.0019,-1.0019,-1.0019,-1.0019,-1.0019,-1.0019,-1.0019,-1.0019,-1.0019,-1.0019,-1.0019,-1.0019,-1.0019,-1.0019,-1.0019,-1.0019,-1.0019,-1.0019,-1.0019,-1.0019,-1.0019,-1.0019,-1.0019,-1.0019,-1.0019,-1.0019,-1.0019,-1.0019,-1.0019,-1.0019,-1.0019,-1.0019,-1.0019,-1.0019,-1.0019,-1.0019,-1.0019,-1.0019,-1.0019,-1.0019,-1.0019,-1.0019,-1.0019,-1.0019,-1.0019,-1.0019,-1.0019,-1.0019,-0.9158,-0.7515,-0.7515,-0.6419,-0.9429,-0.9603,-0.9669,-0.9669,-0.9693,-0.9715,-0.9715,-0.9805,-0.9889,-0.9889,-0.9957,-1.0019,-1.0019,-1.0019,-1.0019,-1.0019,-1.0019,-1.0019,-1.0019,-1.0019,-1.0019,-1.0019,-1.0019,-1.0033,-1.0068,-1.0041,-1.0019,-1.0019,-1.0052,-1.0071,-1.0071,-1.0104,-1.0123,-1.0123,-1.0123,-1.0123,-1.0123,-1.0123,-1.0166,-1.0253,-1.0253,-1.0299,-1.0386,-1.0386,-1.0386,-1.0381,-1.0291,-1.0253,-1.0248,-1.0158,-1.0123,-1.0123,-1.0123,-1.0101,-1.0071,-1.0071,-1.0049,-1.0019,-1.0019,-1.0019,-1.0019,-1.0019,-1.0019,-1.0019,-1.0019,-1.0019,-1.0019,-1.0019,-1.0019,-1.0019,-1.0019,-1.0019,-1.0019,-1.0019,-1.0019,-1.0019,-1.0019,-1.0019,-1.0019,-1.0019,-1.0019,-1.0019,-1.0019,-1.0019,-1.0019,-1.0019,-1.0019,-1.0019,-1.0019,-1.0019,-1.0019,-1.0019,-1.0019,-1.0019,-1.0019,-1.0019,-1.0019,-1.0019,-1.0019,-1.0019,-1.0019,-1.0019,-1.0019,-1.0019,-1.0019,-1.0019,-1.0019,-1.0019,-0.9158,-0.7515,-0.7045,-0.5245,-0.9631,-0.9666,-0.9669,-0.9669,-0.9753,-0.9832,-0.9832,-0.9927,-1.0014,-1.0014,-1.0017,-1.0019,-1.0019,-1.0019,-1.0019,-1.0019,-1.0019,-1.0019,-1.0019,-1.0019,-1.0019,-1.0019,-1.0019,-1.0066,-1.0185,-1.009,-1.0019,-1.0019,-1.0131,-1.0199,-1.0199,-1.031,-1.0375,-1.0375,-1.0375,-1.0375,-1.0375,-1.0375,-1.0375,-1.0381,-1.0381,-1.0381,-1.0386,-1.0386,-1.0386,-1.0386,-1.0381,-1.0381,-1.0381,-1.0375,-1.0375,-1.0375,-1.0375,-1.0302,-1.0199,-1.0199,-1.0123,-1.0019,-1.0019,-1.0019,-1.0019,-1.0019,-1.0019,-1.0019,-1.0019,-1.0019,-1.0019,-1.0019,-1.0019,-1.0019,-1.0019,-1.0019,-1.0019,-1.0019,-1.0019,-1.0019,-1.0019,-1.0019,-1.0019,-1.0019,-1.0019,-1.0019,-1.0019,-1.0019,-1.0019,-1.0019,-1.0019,-1.0019,-1.0019,-1.0019,-1.0019,-1.0019,-1.0019,-1.0019,-1.0019,-1.0019,-1.0019,-1.0019,-1.0019,-1.0019,-1.0019,-1.0019,-1.0019,-1.0019,-1.0019,-1.0019,-1.0019,-1.0019,-0.9158,-0.7437,-0.5796,-0.4152,-0.9769,-0.984,-0.9902,-0.9902,-0.993,-0.996,-0.996,-0.9989,-1.0019,-1.0019,-1.0019,-1.0019,-1.0019,-1.0019,-1.0019,-1.0019,-1.0019,-1.0019,-1.0019,-1.0019,-1.0019,-1.0019,-1.0093,-1.0158,-1.0199,-1.0166,-1.0174,-1.0256,-1.0302,-1.0324,-1.0324,-1.0365,-1.0386,-1.0386,-1.0386,-1.0386,-1.0386,-1.0386,-1.0424,-1.0498,-1.0579,-1.062,-1.062,-1.062,-1.062,-1.0615,-1.0533,-1.0498,-1.0492,-1.0416,-1.0386,-1.0386,-1.0386,-1.0362,-1.0324,-1.0324,-1.0248,-1.0131,-1.0049,-1.0019,-1.0019,-1.0019,-1.0019,-1.0019,-1.0019,-1.0019,-1.0019,-1.0019,-1.0019,-1.0019,-1.0019,-1.0019,-1.0019,-1.0019,-1.0019,-1.0019,-1.0019,-1.0019,-1.0019,-1.0019,-1.0019,-1.0019,-1.0019,-1.0019,-1.0019,-1.0019,-1.0019,-1.0019,-1.0019,-1.0019,-1.0019,-1.0019,-1.0019,-1.0019,-1.0019,-1.0019,-1.0019,-1.0019,-1.0019,-1.0019,-1.0019,-1.0019,-1.0019,-1.0019,-1.0019,-1.0019,-1.0019,-1.0019,-0.9158,-0.7437,-0.5796,-0.4074,-0.9892,-0.996,-1.0019,-1.0019,-1.0019,-1.0019,-1.0019,-1.0019,-1.0019,-1.0019,-1.0019,-1.0019,-1.0019,-1.0019,-1.0019,-1.0019,-1.0019,-1.0019,-1.0019,-1.0019,-1.0038,-1.0082,-1.0155,-1.0237,-1.0321,-1.0329,-1.0346,-1.0384,-1.0424,-1.0446,-1.0446,-1.0487,-1.0511,-1.0511,-1.0511,-1.0511,-1.0511,-1.0511,-1.0547,-1.062,-1.0699,-1.0737,-1.0737,-1.0737,-1.0737,-1.0732,-1.0655,-1.062,-1.0615,-1.0541,-1.0511,-1.0511,-1.0511,-1.0484,-1.0446,-1.0446,-1.037,-1.025,-1.0128,-1.0057,-1.0019,-1.0019,-1.0019,-1.0019,-1.0019,-1.0019,-1.0019,-1.0019,-1.0019,-1.0019,-1.0019,-1.0019,-1.0019,-1.0019,-1.0019,-1.0019,-1.0019,-1.0019,-1.0019,-1.0019,-1.0019,-1.0019,-1.0019,-1.0019,-1.0019,-1.0019,-1.0019,-1.0019,-1.0019,-1.0019,-1.0019,-1.0019,-1.0019,-1.0019,-1.0019,-1.0019,-1.0019,-1.0019,-1.0019,-1.0019,-1.0019,-1.0019,-1.0019,-1.0019,-1.0019,-1.0019,-1.0019,-1.0019,-0.947,-0.8375,-0.6655,-0.5325,-0.9989,-1.0019,-1.0019,-1.0019,-1.0019,-1.0019,-1.0019,-1.0019,-1.0019,-1.0019,-1.0019,-1.0019,-1.0019,-1.0019,-1.0019,-1.0019,-1.0019,-1.0019,-1.0019,-1.0025,-1.0071,-1.0188,-1.0215,-1.031,-1.0615,-1.056,-1.052,-1.0413,-1.0503,-1.0648,-1.0648,-1.0674,-1.0737,-1.0737,-1.0737,-1.0737,-1.0737,-1.0737,-1.0737,-1.0737,-1.0737,-1.0737,-1.0737,-1.0737,-1.0737,-1.0737,-1.0737,-1.0737,-1.0737,-1.0737,-1.0737,-1.0737,-1.0737,-1.0666,-1.0648,-1.0648,-1.0492,-1.0378,-1.0261,-1.0136,-1.003,-1.003,-1.0025,-1.0019,-1.0019,-1.0019,-1.0019,-1.0019,-1.0019,-1.0019,-1.0019,-1.0019,-1.0019,-1.0019,-1.0019,-1.0019,-1.0019,-1.0019,-1.0019,-1.0019,-1.0019,-1.0019,-1.0019,-1.0019,-1.0019,-1.0019,-1.0019,-1.0019,-1.0019,-1.0019,-1.0019,-1.0019,-1.0019,-1.0019,-1.0019,-1.0019,-1.0019,-1.0019,-1.0019,-1.0019,-1.0019,-1.0019,-1.0019,-1.0019,-1.0019,-1.0019,-1.0019,-1.0019,-1.0019,-0.9942,-0.8297,-0.7515,-1.0011,-1.0019,-1.0019,-1.0019,-1.0019,-1.0019,-1.0019,-1.0019,-1.0019,-1.0019,-1.0019,-1.0019,-1.0019,-1.0019,-1.0019,-1.0019,-1.0019,-1.0019,-1.0019,-1.0098,-1.0169,-1.0199,-1.0359,-1.049,-1.0549,-1.0639,-1.0677,-1.065,-1.0674,-1.0691,-1.0691,-1.0721,-1.0737,-1.0737,-1.0737,-1.0737,-1.0737,-1.0737,-1.0737,-1.0737,-1.0737,-1.0737,-1.0737,-1.0737,-1.0737,-1.0737,-1.0737,-1.0737,-1.0737,-1.0737,-1.0737,-1.0737,-1.0737,-1.0718,-1.0691,-1.0691,-1.0615,-1.0509,-1.0476,-1.0329,-1.0158,-1.0158,-1.0095,-1.0019,-1.0019,-1.0019,-1.0019,-1.0019,-1.0019,-1.0019,-1.0019,-1.0019,-1.0019,-1.0019,-1.0019,-1.0019,-1.0019,-1.0019,-1.0019,-1.0019,-1.0019,-1.0019,-1.0019,-1.0019,-1.0019,-1.0019,-1.0019,-1.0019,-1.0019,-1.0019,-1.0019,-1.0019,-1.0019,-1.0019,-1.0019,-1.0019,-1.0019,-1.0019,-1.0019,-1.0019,-1.0019,-1.0019,-1.0019,-1.0019,-1.0019,-1.0019,-1.0019,-1.0019,-1.0019,-0.9942,-0.8297,-0.7515,-1.0019,-1.0019,-1.0019,-1.0019,-1.0019,-1.0019,-1.0019,-1.0019,-1.0019,-1.0019,-1.0019,-1.0019,-1.0019,-1.0019,-1.0019,-1.0019,-1.0019,-1.0019,-1.0019,-1.0125,-1.0223,-1.0278,-1.0443,-1.0577,-1.0628,-1.0696,-1.0737,-1.0737,-1.0737,-1.0737,-1.0737,-1.0737,-1.0737,-1.0737,-1.0737,-1.0737,-1.0737,-1.0737,-1.0737,-1.0737,-1.0737,-1.0737,-1.0737,-1.0737,-1.0737,-1.0737,-1.0737,-1.0737,-1.0737,-1.0737,-1.0737,-1.0737,-1.0737,-1.0737,-1.0737,-1.0737,-1.0693,-1.0634,-1.0634,-1.0514,-1.0351,-1.0299,-1.0237,-1.018,-1.018,-1.018,-1.0169,-1.0114,-1.0101,-1.0087,-1.0036,-1.0019,-1.0019,-1.0019,-1.0019,-1.0019,-1.0019,-1.0019,-1.0019,-1.0019,-1.0019,-1.0019,-1.0019,-1.0019,-1.0019,-1.0019,-1.0019,-1.0019,-1.0019,-1.0019,-1.0019,-1.0019,-1.0019,-1.0019,-1.0019,-1.0019,-1.0019,-1.0019,-1.0019,-1.0019,-1.0019,-1.0019,-1.0019,-1.0019,-1.0019,-1.0019,-1.0019,-1.0019,-1.0019,-0.9942,-0.9003,-0.8634,-1.0019,-1.0019,-1.0019,-1.0019,-1.0019,-1.0019,-1.0019,-1.0019,-1.0019,-1.0019,-1.0019,-1.0019,-1.0019,-1.0019,-1.0019,-1.0019,-1.0019,-1.0019,-1.0019,-1.0139,-1.0267,-1.0373,-1.05,-1.062,-1.0726,-1.0737,-1.0737,-1.0737,-1.0737,-1.0737,-1.0737,-1.0737,-1.0737,-1.0737,-1.0737,-1.0737,-1.0737,-1.0737,-1.0737,-1.0737,-1.0737,-1.0737,-1.0737,-1.0737,-1.0737,-1.0737,-1.0737,-1.0737,-1.0737,-1.0737,-1.0737,-1.0737,-1.0737,-1.0737,-1.0737,-1.0737,-1.0737,-1.0737,-1.0737,-1.0669,-1.056,-1.0446,-1.04,-1.0386,-1.0386,-1.0386,-1.0365,-1.0259,-1.0226,-1.0204,-1.0095,-1.0068,-1.0066,-1.0049,-1.0044,-1.0041,-1.0022,-1.0019,-1.0019,-1.0097,-1.0019,-1.0019,-1.0175,-1.0097,-1.0097,-1.0175,-1.0175,-1.0175,-1.0175,-1.0097,-1.0097,-1.0097,-1.0175,-1.0175,-1.0097,-1.0097,-1.0097,-1.0019,-1.0019,-1.0019,-1.0019,-1.0019,-1.0019,-1.0019,-1.0019,-1.0019,-1.0019,-1.0019,-1.0019,-1.0019,-1.0038,-1.0101,-1.0019,-1.0019,-1.0019,-1.0019,-1.0019,-1.0019,-1.0019,-1.0019,-1.0019,-1.0019,-1.0019,-1.0019,-1.0019,-1.0019,-1.0019,-1.0019,-1.0019,-1.0019,-1.0019,-1.0212,-1.0362,-1.0384,-1.0577,-1.0712,-1.0734,-1.0737,-1.0737,-1.0737,-1.0737,-1.0737,-1.0737,-1.0737,-1.0737,-1.0737,-1.0737,-1.0737,-1.0737,-1.0737,-1.0737,-1.0737,-1.0737,-1.0737,-1.0737,-1.0737,-1.0737,-1.0737,-1.0737,-1.0737,-1.0737,-1.0737,-1.0737,-1.0737,-1.0737,-1.0737,-1.0737,-1.0737,-1.0737,-1.0737,-1.0737,-1.0723,-1.0685,-1.0566,-1.0462,-1.0386,-1.0386,-1.0386,-1.0381,-1.0362,-1.0354,-1.0348,-1.0329,-1.0324,-1.0297,-1.0196,-1.0172,-1.0144,-1.0044,-1.0019,-1.0097,-1.0408,-1.0253,-1.0253,-1.0952,-1.0719,-1.0641,-1.1029,-1.1107,-1.1107,-1.1107,-1.0719,-1.0486,-1.0486,-1.0874,-1.0952,-1.0563,-1.0486,-1.033,-1.0019,-1.0019,-1.0019,-1.0019,-1.0019,-1.0019,-1.0019,-1.0019,-1.0019,-1.0019,-1.0019,-1.0019,-1.0022,-1.0125,-1.0182,-1.0019,-1.0019,-1.0019,-1.0019,-1.0019,-1.0019,-1.0019,-1.0019,-1.0019,-1.0019,-1.0019,-1.0019,-1.0019,-1.0019,-1.0019,-1.0019,-1.0019,-1.0019,-1.0019,-1.0177,-1.0316,-1.0378,-1.0539,-1.0666,-1.0732,-1.0737,-1.0737,-1.0737,-1.0737,-1.0737,-1.0737,-1.0737,-1.0737,-1.0737,-1.0737,-1.0737,-1.0737,-1.0737,-1.0737,-1.0737,-1.0737,-1.0737,-1.0737,-1.0737,-1.0737,-1.0737,-1.0737,-1.0737,-1.0737,-1.0737,-1.0737,-1.0737,-1.0737,-1.0737,-1.0737,-1.0737,-1.0737,-1.0737,-1.0737,-1.0737,-1.0726,-1.0669,-1.0615,-1.0568,-1.0568,-1.0568,-1.0555,-1.0492,-1.0473,-1.046,-1.0403,-1.0386,-1.037,-1.0313,-1.0299,-1.0264,-1.0142,-1.0271,-1.0487,-1.0575,-1.0641,-1.0796,-1.1262,-1.1107,-1.1029,-1.1262,-1.1262,-1.1262,-1.1262,-1.1262,-1.1184,-1.1029,-1.1184,-1.1184,-1.0952,-1.0952,-1.0874,-1.0719,-1.0641,-1.0641,-1.0641,-1.0641,-1.0563,-1.033,-1.033,-1.0175,-1.0019,-1.0019,-1.0052,-1.0117,-1.0177,-1.0269,-1.0019,-1.0019,-1.0019,-1.0019,-1.0019,-1.0019,-1.0019,-1.0019,-1.0019,-1.0019,-1.0019,-1.0019,-1.0019,-1.0019,-1.0019,-1.0019,-1.0019,-1.0019,-1.0019,-1.0125,-1.0248,-1.0373,-1.0568,-1.0768,-1.0807,-1.082,-1.082,-1.082,-1.0737,-1.0737,-1.0737,-1.0737,-1.0737,-1.0737,-1.0737,-1.0737,-1.0737,-1.0737,-1.0737,-1.0737,-1.0737,-1.0737,-1.0737,-1.0737,-1.0737,-1.0737,-1.0737,-1.0737,-1.0737,-1.0737,-1.0737,-1.0737,-1.0737,-1.0737,-1.0737,-1.0737,-1.0737,-1.082,-1.082,-1.0904,-1.0987,-1.0987,-1.082,-1.0737,-1.0737,-1.0737,-1.0801,-1.0785,-1.0842,-1.0902,-1.081,-1.0784,-1.0779,-1.0754,-1.0725,-1.0681,-1.05,-1.0775,-1.096,-1.0936,-1.1125,-1.134,-1.1495,-1.1495,-1.1495,-1.1572,-1.1572,-1.1572,-1.1572,-1.1805,-1.1882,-1.1572,-1.1572,-1.1495,-1.1417,-1.1417,-1.1417,-1.134,-1.1262,-1.1262,-1.1262,-1.1262,-1.1107,-1.0796,-1.0719,-1.0563,-1.0253,-1.0175,-1.0163,-1.0363,-1.0308,-1.0356,-1.0019,-1.0019,-1.0019,-1.0019,-1.0019,-1.0019,-1.0019,-1.0019,-1.0019,-1.0019,-1.0019,-1.0019,-1.0019,-1.0019,-1.0019,-1.0019,-1.0019,-1.0019,-1.0019,-1.0125,-1.0248,-1.0373,-1.0812,-1.1177,-1.1306,-1.132,-1.132,-1.132,-1.0904,-1.0737,-1.0737,-1.0737,-1.0737,-1.0737,-1.0737,-1.0737,-1.0737,-1.0737,-1.0737,-1.0737,-1.0737,-1.0737,-1.0737,-1.0737,-1.0737,-1.0737,-1.0737,-1.0737,-1.0737,-1.0737,-1.0737,-1.0737,-1.0737,-1.0737,-1.0737,-1.0737,-1.0987,-1.132,-1.132,-1.157,-1.1986,-1.1986,-1.1403,-1.0737,-1.0737,-1.0987,-1.1317,-1.1306,-1.1635,-1.1964,-1.1955,-1.1949,-1.1919,-1.1794,-1.1676,-1.1591,-1.1579,-1.1476,-1.1543,-1.1924,-1.1582,-1.1495,-1.2269,-1.2114,-1.196,-1.2347,-1.2424,-1.2424,-1.2424,-1.2424,-1.2424,-1.2424,-1.2424,-1.2269,-1.1882,-1.1805,-1.1727,-1.134,-1.1262,-1.1262,-1.1262,-1.1262,-1.1262,-1.1262,-1.1262,-1.1184,-1.1184,-1.0719,-1.0629,-1.0758,-1.0476,-1.0435,-1.0233,-1.033,-1.0408,-1.0719,-1.0796,-1.0719,-1.0408,-1.033,-1.0253,-1.0019,-1.0175,-1.0253,-1.0019,-1.0175,-1.0253,-1.0019,-1.0019,-1.0019,-1.0019,-1.0063,-1.0218,-1.058,-1.0864,-1.1231,-1.1602,-1.1771,-1.1819,-1.1819,-1.1653,-1.157,-1.157,-1.0987,-1.082,-1.107,-1.082,-1.0737,-1.0737,-1.0737,-1.0737,-1.0737,-1.0737,-1.0737,-1.0737,-1.0737,-1.0737,-1.0737,-1.0987,-1.1153,-1.1153,-1.1403,-1.157,-1.157,-1.157,-1.157,-1.157,-1.157,-1.1653,-1.1819,-1.1819,-1.1902,-1.2069,-1.2069,-1.1819,-1.157,-1.157,-1.1653,-1.1819,-1.1819,-1.1986,-1.2069,-1.2069,-1.2069,-1.2056,-1.2001,-1.1949,-1.1888,-1.1806,-1.1987,-1.2166,-1.2167,-1.219,-1.2249,-1.2562,-1.2407,-1.2347,-1.2501,-1.2501,-1.2501,-1.2501,-1.2501,-1.2501,-1.2501,-1.2501,-1.2424,-1.2269,-1.2269,-1.2192,-1.2037,-1.2037,-1.2037,-1.2037,-1.2037,-1.1882,-1.165,-1.165,-1.1572,-1.1262,-1.1188,-1.1221,-1.1352,-1.0999,-1.0959,-1.0637,-1.0767,-1.0874,-1.1184,-1.1262,-1.1184,-1.0874,-1.0796,-1.0719,-1.0408,-1.0641,-1.0719,-1.0408,-1.0641,-1.0719,-1.0408,-1.0253,-1.0175,-1.0175,-1.0097,-1.0236,-1.0793,-1.1053,-1.1415,-1.1989,-1.2176,-1.2235,-1.2069,-1.2069,-1.2152,-1.2235,-1.157,-1.1237,-1.157,-1.132,-1.107,-1.107,-1.107,-1.107,-1.107,-1.107,-1.107,-1.107,-1.107,-1.107,-1.1153,-1.1486,-1.157,-1.1653,-1.1986,-1.2069,-1.2069,-1.2069,-1.2069,-1.2069,-1.2069,-1.2152,-1.2318,-1.2318,-1.2401,-1.2484,-1.2484,-1.2484,-1.2484,-1.2484,-1.2401,-1.2318,-1.2318,-1.2404,-1.2484,-1.2484,-1.2484,-1.2484,-1.2484,-1.2484,-1.2459,-1.2358,-1.2549,-1.2651,-1.2556,-1.2625,-1.2729,-1.2729,-1.2603,-1.2501,-1.2501,-1.2501,-1.2501,-1.2501,-1.2501,-1.2501,-1.2501,-1.2501,-1.2501,-1.2501,-1.2501,-1.2501,-1.2501,-1.2501,-1.2501,-1.2501,-1.2501,-1.2347,-1.2114,-1.2114,-1.196,-1.165,-1.1635,-1.1778,-1.1838,-1.1559,-1.1444,-1.0993,-1.1164,-1.1262,-1.1262,-1.1262,-1.1262,-1.1262,-1.1262,-1.1262,-1.1262,-1.1262,-1.1262,-1.1262,-1.1262,-1.1262,-1.1262,-1.0874,-1.0563,-1.0563,-1.0253,-1.0269,-1.0916,-1.143,-1.1941,-1.2621,-1.265,-1.2567,-1.2155,-1.2069,-1.2235,-1.265,-1.2321,-1.2069,-1.2069,-1.2069,-1.2069,-1.2069,-1.2069,-1.2069,-1.2069,-1.2069,-1.2069,-1.2069,-1.2069,-1.2069,-1.2069,-1.2069,-1.2069,-1.2069,-1.2069,-1.2069,-1.2069,-1.2069,-1.2069,-1.2069,-1.2069,-1.2318,-1.265,-1.265,-1.2985,-1.34,-1.34,-1.34,-1.34,-1.34,-1.3068,-1.265,-1.265,-1.3065,-1.34,-1.34,-1.34,-1.34,-1.34,-1.34,-1.34,-1.34,-1.3278,-1.3173,-1.3169,-1.2932,-1.2729,-1.2729,-1.2603,-1.2501,-1.2501,-1.2501,-1.2501,-1.2501,-1.2501,-1.2501,-1.2501,-1.2501,-1.2501,-1.2501,-1.2501,-1.2501,-1.2501,-1.2501,-1.2501,-1.2501,-1.2501,-1.2501,-1.2501,-1.2501,-1.2501,-1.2501,-1.2184,-1.2172,-1.2321,-1.205,-1.1937,-1.1202,-1.1406,-1.1667,-1.1897,-1.2045,-1.2037,-1.1805,-1.1727,-1.165,-1.134,-1.1495,-1.165,-1.134,-1.1495,-1.165,-1.134,-1.1184,-1.1107,-1.1107,-1.0952,-1.1059,-1.1538,-1.2195,-1.2711,-1.2978,-1.3091,-1.3151,-1.2985,-1.2985,-1.3068,-1.3151,-1.3068,-1.2816,-1.2484,-1.2235,-1.2069,-1.2069,-1.2069,-1.2069,-1.2069,-1.2069,-1.2069,-1.2069,-1.2069,-1.2069,-1.2152,-1.2401,-1.2484,-1.2567,-1.2902,-1.2985,-1.2985,-1.2985,-1.2985,-1.2985,-1.2985,-1.3068,-1.3151,-1.3151,-1.3317,-1.34,-1.34,-1.34,-1.34,-1.34,-1.3317,-1.3151,-1.3151,-1.3317,-1.34,-1.34,-1.34,-1.34,-1.34,-1.34,-1.34,-1.34,-1.3363,-1.3329,-1.3329,-1.3169,-1.3,-1.2905,-1.2759,-1.2623,-1.2518,-1.2501,-1.2501,-1.2501,-1.2501,-1.2501,-1.2501,-1.2501,-1.2501,-1.2501,-1.2501,-1.2501,-1.2501,-1.2501,-1.2501,-1.2501,-1.2501,-1.2501,-1.2501,-1.2501,-1.2501,-1.2501,-1.2601,-1.2691,-1.2604,-1.2481,-1.2357,-1.1414,-1.1713,-1.1901,-1.2127,-1.2315,-1.2346,-1.2112,-1.2075,-1.2037,-1.1805,-1.196,-1.2037,-1.1805,-1.196,-1.2037,-1.1805,-1.165,-1.1495,-1.1495,-1.1417,-1.1436,-1.1956,-1.2572,-1.3017,-1.3159,-1.3258,-1.3339,-1.3397,-1.34,-1.34,-1.34,-1.34,-1.3234,-1.2982,-1.2733,-1.2567,-1.2567,-1.2567,-1.2567,-1.2567,-1.2567,-1.2567,-1.2567,-1.2567,-1.2567,-1.2567,-1.2902,-1.2982,0.0,-1.3317,-1.34,-1.34,-1.34,-1.34,-1.34,-1.34,-1.34,-1.34,-1.34,-1.34,-1.34,-1.34,-1.34,-1.34,-1.34,-1.34,-1.34,-1.34,-1.34,-1.34,-1.34,-1.34,-1.34,-1.34,-1.34,-1.34,-1.34,-1.34,-1.34,-1.34,-1.3278,-1.3125,-1.2986,-1.2834,-1.2678,-1.2525,-1.2501,-1.2501,-1.2501,-1.2501,-1.2501,-1.2501,-1.2501,-1.2501,-1.2501,-1.2501,-1.2501,-1.2501,-1.2501,-1.2501,-1.2501,-1.2501,-1.2501,-1.2501,-1.2501,-1.2501,-1.2501,-1.281,-1.3031,-1.2982,-1.2982,-1.2816,0.0,-1.1928,-1.2047,-1.2047,-1.2159,-1.2277,-1.2288,-1.2393,0.0,-1.2501,-1.2501,-1.2501,-1.2501,-1.2501,-1.2501,-1.2501,-1.2192,-1.196,-1.196,-1.165,-1.1541,-1.2066,-1.2612,-1.2996,-1.3129,-1.3152,-1.322,-1.3373,-1.3386,-1.339,-1.34,-1.34,-1.34,-1.34,-1.34,-1.34,-1.34,-1.34,-1.34,-1.34,-1.34,-1.34,-1.34,-1.34,-1.34,-1.34,-1.34,-1.34,-1.34,-1.34,-1.34,-1.34,-1.339,-1.3393,-1.34,-1.339,-1.3393,-1.34,-1.34,-1.34,-1.34,-1.34,-1.34,-1.34,-1.34,-1.34,-1.34,-1.34,-1.34,-1.34,-1.34,-1.34,-1.34,-1.34,-1.34,-1.34,-1.34,-1.34,-1.34,-1.34,-1.3278,-1.3125,-1.2986,-1.2834,-1.2678,-1.2525,-1.2501,-1.2501,-1.2501,-1.2501,-1.2501,-1.2501,-1.2501,-1.2501,-1.2501,-1.2501,-1.2501,-1.2501,-1.2501,-1.2501,-1.2501,-1.2501,-1.2501,-1.2501,-1.2501,-1.2511,-1.2535,-1.282,-1.3112,-1.34,-1.34,-1.34,-1.166,0.0,-1.1884,-1.1884,-1.2003,-1.2145,0.0,-1.2318,-1.2372,-1.2478,-1.2501,-1.2501,-1.2501,-1.2501,-1.2501,-1.2501,-1.2424,-1.2347,-1.2347,-1.2269,-1.2283,-1.2397,-1.2613,-1.2796,-1.283,-1.2942,-1.3071,-1.3214,-1.3227,-1.3278,-1.3393,-1.34,-1.34,-1.34,-1.34,-1.34,-1.34,-1.34,-1.34,-1.34,-1.34,-1.34,-1.34,-1.34,-1.34,-1.34,-1.34,-1.34,-1.34,-1.34,-1.34,-1.339,-1.3271,-1.3298,-1.3386,-1.3268,-1.3302,-1.34,-1.34,-1.34,-1.34,-1.34,-1.34,-1.34,-1.34,-1.34,-1.34,-1.34,-1.34,-1.34,-1.34,-1.34,-1.34,-1.34,-1.34,-1.34,-1.34,-1.34,-1.34,-1.34,-1.3278,-1.3125,-1.2986,-1.2834,-1.2678,-1.2525,-1.2501,-1.2501,-1.2501,-1.2501,-1.2501,-1.2501,-1.2501,-1.2501,-1.2501,-1.2501,-1.2501,-1.2501,-1.2501,-1.2501,-1.2501,-1.2501,-1.2501,-1.2501,-1.2501,-1.262,-1.2854,-1.2925,-1.3112,-1.34,-1.34,-1.34,-1.1619,-1.1677,-1.1735,-1.1735,-1.1847,-1.1996,-1.2149,-1.224,-1.2332,-1.2471,-1.2501,-1.2501,-1.2501,-1.2501,-1.2501,-1.2501,-1.2501,-1.2501,-1.2501,-1.2501,-1.2501,-1.2501,-1.2576,-1.2654,-1.2722,-1.2807,-1.2915,-1.3064,-1.3074,-1.3112,-1.3197,-1.32,-1.32,-1.32,-1.32,-1.3264,-1.34,-1.34,-1.34,-1.34,-1.34,-1.34,-1.34,-1.34,-1.34,-1.34,-1.34,-1.3359,-1.3295,-1.3295,-1.3258,-1.3193,-1.3108,-1.3125,-1.3197,-1.318,-1.3224,-1.3305,-1.3376,-1.34,-1.34,-1.34,-1.34,-1.34,-1.34,-1.34,-1.34,-1.34,-1.34,-1.34,-1.34,-1.34,-1.34,-1.34,-1.34,-1.34,-1.34,-1.34,-1.338,-1.3308,-1.3227,-1.3105,-1.2891,-1.2786,-1.2678,-1.2525,-1.2501,-1.2501,-1.2501,-1.2501,-1.2501,-1.2501,-1.2501,-1.2501,-1.2501,-1.2501,-1.2501,-1.2501,-1.2501,-1.2501,-1.2501,-1.2501,-1.2501,-1.2501,-1.2501,-1.2617,-1.2854,-1.2925,-1.3078,-1.3298,-1.3366,-1.34,-1.1619,-1.1619,-1.1619,-1.1619,-1.1708,-1.1837,-1.1993,-1.2145,-1.2294,-1.244,-1.2484,-1.2501,-1.2501,-1.2501,-1.2501,-1.2501,-1.2501,-1.2501,-1.2501,-1.2501,-1.2501,-1.2501,-1.2501,-1.2552,-1.2681,-1.2695,-1.2759,-1.2915,-1.2925,-1.2935,-1.3039,-1.2963,-1.2963,-1.2963,-1.2963,-1.3081,-1.3332,-1.3336,-1.3336,-1.3336,-1.3336,-1.3336,-1.3336,-1.3336,-1.3336,-1.3336,-1.3336,-1.3261,-1.3142,-1.3142,-1.3071,-1.3039,-1.2935,-1.2939,-1.2973,-1.3071,-1.3119,-1.3163,-1.3312,-1.338,-1.34,-1.34,-1.34,-1.34,-1.34,-1.34,-1.34,-1.34,-1.34,-1.34,-1.34,-1.34,-1.34,-1.34,-1.34,-1.34,-1.34,-1.3383,-1.3329,-1.3197,-1.3136,-1.3027,-1.2773,-1.2712,-1.2651,-1.2522,-1.2501,-1.2501,-1.2501,-1.2501,-1.2501,-1.2501,-1.2501,-1.2501,-1.2501,-1.2501,-1.2501,-1.2501,-1.2501,-1.2501,-1.2501,-1.2501,-1.2501,-1.2501,-1.2501,-1.2576,-1.2729,-1.2885,-1.3034,-1.3176,-1.3329,-1.34,-1.1619,-1.1619,-1.1619,-1.1619,-1.1636,-1.1691,-1.1833,-1.1986,-1.2138,-1.2291,-1.242,-1.2501,-1.2501,-1.2501,-1.2501,-1.2501,-1.2501,-1.2501,-1.2501,-1.2501,-1.2501,-1.2501,-1.2501,-1.2511,-1.2535,-1.2535,-1.26,-1.2752,-1.2766,-1.2823,-1.2956,-1.2963,-1.2963,-1.2963,-1.2963,-1.2983,-1.3027,-1.3027,-1.3027,-1.3027,-1.3027,-1.3027,-1.3027,-1.3027,-1.3027,-1.3027,-1.3027,-1.3017,-1.2993,-1.2993,-1.2979,-1.2949,-1.2817,-1.2847,-1.2949,-1.2837,-1.2881,-1.3013,-1.3159,-1.3292,-1.34,-1.34,-1.34,-1.34,-1.34,-1.34,-1.34,-1.34,-1.34,-1.34,-1.34,-1.34,-1.34,-1.34,-1.34,-1.34,-1.34,-1.3298,-1.32,-1.3176,-1.2969,-1.2783,-1.2735,-1.2623,-1.2528,-1.2505,-1.2501,-1.2501,-1.2501,-1.2501,-1.2501,-1.2501,-1.2501,-1.2501,-1.2501,-1.2501,-1.2501,-1.2501,-1.2501,-1.2501,-1.2501,-1.2501,-1.2501,-1.2501,-1.2501,-1.2576,-1.2729,-1.2885,-1.3034,-1.3176,-1.3329,-1.34,-1.1619,-1.1619,-1.1619,-1.1619,-1.1619,-1.1657,-1.1799,-1.1948,-1.2104,-1.2257,-1.2403,-1.2501,-1.2501,-1.2501,-1.2501,-1.2501,-1.2501,-1.2501,-1.2501,-1.2501,-1.2501,-1.2501,-1.2501,-1.2501,-1.2501,-1.2501,-1.2532,-1.2603,-1.2606,-1.2637,-1.2708,-1.2715,-1.2715,-1.2715,-1.2715,-1.2715,-1.2715,-1.2715,-1.2796,-1.2963,-1.2963,-1.2963,-1.2963,-1.2963,-1.2963,-1.2963,-1.2963,-1.2912,-1.2837,-1.2837,-1.2786,-1.2708,-1.2634,-1.2651,-1.2715,-1.2725,-1.2827,-1.2969,-1.3034,-1.3105,-1.3163,-1.3163,-1.3163,-1.3176,-1.3254,-1.3278,-1.3295,-1.3376,-1.34,-1.34,-1.34,-1.34,-1.34,-1.34,-1.34,-1.3376,-1.3295,-1.322,-1.3125,-1.2963,-1.2823,-1.2705,-1.262,-1.2549,-1.2501,-1.2501,-1.2501,-1.2501,-1.2501,-1.2501,-1.2501,-1.2501,-1.2501,-1.2501,-1.2501,-1.2501,-1.2501,-1.2501,-1.2501,-1.2501,-1.2501,-1.2501,-1.2501,-1.2501,-1.2501,-1.2535,-1.2606,-1.2759,-1.2912,-1.3061,-1.321,-1.3322,-1.1609,-1.1619,-1.1619,-1.1619,-1.1619,-1.1647,-1.1755,-1.1898,-1.205,-1.2206,-1.2352,-1.2464,-1.2494,-1.2501,-1.2501,-1.2501,-1.2501,-1.2501,-1.2501,-1.2501,-1.2501,-1.2501,-1.2501,-1.2501,-1.2501,-1.2501,-1.2501,-1.2501,-1.2501,-1.2501,-1.2501,-1.2501,-1.2501,-1.2501,-1.2501,-1.2501,-1.2501,-1.2501,-1.262,-1.2854,-1.2854,-1.2854,-1.2854,-1.2854,-1.2854,-1.2854,-1.2854,-1.2786,-1.2678,-1.2678,-1.2606,-1.2501,-1.2501,-1.2501,-1.2515,-1.2634,-1.2776,-1.2908,-1.2908,-1.2932,-1.2963,-1.2963,-1.2963,-1.2979,-1.3088,-1.3122,-1.3149,-1.3264,-1.3298,-1.3312,-1.3383,-1.34,-1.3393,-1.3356,-1.3349,-1.3305,-1.3156,-1.3095,-1.3,-1.2773,-1.2701,-1.2637,-1.2522,-1.2501,-1.2501,-1.2501,-1.2501,-1.2501,-1.2501,-1.2501,-1.2501,-1.2501,-1.2501,-1.2501,-1.2501,-1.2501,-1.2501,-1.2501,-1.2501,-1.2501,-1.2501,-1.2501,-1.2501,-1.2501,-1.2501,-1.2501,-1.2501,-1.2654,-1.281,-1.2966,-1.3108,-1.3254,-1.1582,-1.1619,-1.1619,-1.1619,-1.1619,-1.1623,-1.1633,-1.1745,-1.1891,-1.2047,-1.2199,-1.2345,-1.2478,-1.2501,-1.2501,-1.2501,-1.2501,-1.2501,-1.2501,-1.2501,-1.2501,-1.2501,-1.2501,-1.2501,-1.2501,-1.2501,-1.2501,-1.2501,-1.2501,-1.2501,-1.2501,-1.2501,-1.2501,-1.2501,-1.2501,-1.2501,-1.2501,-1.2501,-1.2511,-1.2535,-1.2535,-1.2535,-1.2535,-1.2535,-1.2535,-1.2535,-1.2535,-1.2528,-1.2518,-1.2518,-1.2511,-1.2501,-1.2501,-1.2501,-1.2505,-1.2515,-1.2617,-1.2745,-1.2745,-1.284,-1.2963,-1.2963,-1.2963,-1.2963,-1.2973,-1.2976,-1.306,-1.307,-1.2993,-1.3057,-1.3332,-1.34,-1.3366,-1.3224,-1.319,-1.3149,-1.3007,-1.2864,-1.2756,-1.2732,-1.2617,-1.2515,-1.2505,-1.2501,-1.2501,-1.2501,-1.2501,-1.2501,-1.2501,-1.2501,-1.2501,-1.2501,-1.2501,-1.2501,-1.2501,-1.2501,-1.2501,-1.2501,-1.2501,-1.2501,-1.2501,-1.2501,-1.2501,-1.2501,-1.2501,-1.2501,-1.2501,-1.2654,-1.281,-1.2966,-1.3108,-1.3254,-1.146,-1.1548,-1.1619,-1.1619,-1.1619,-1.1619,-1.1619,-1.1728,-1.1847,-1.1904,-1.2118,-1.2335,-1.2474,-1.2501,-1.2501,-1.2501,-1.2501,-1.2501,-1.2501,-1.2501,-1.2501,-1.2501,-1.2501,-1.2501,-1.2501,-1.2501,-1.2501,-1.2501,-1.2501,-1.2501,-1.2501,-1.2501,-1.2501,-1.2501,-1.2501,-1.2501,-1.2501,-1.2501,-1.2501,-1.2501,-1.2501,-1.2501,-1.2501,-1.2501,-1.2501,-1.2501,-1.2501,-1.2501,-1.2501,-1.2501,-1.2501,-1.2501,-1.2501,-1.2501,-1.2501,-1.2501,-1.2539,-1.2586,-1.2586,-1.2627,-1.2674,-1.2674,-1.2674,-1.2691,-1.279,-1.2817,-1.2837,-1.2935,-1.2963,-1.2986,-1.3098,-1.3129,-1.3112,-1.3054,-1.3041,-1.3,-1.2851,-1.2769,-1.2701,-1.2606,-1.2542,-1.2501,-1.2501,-1.2501,-1.2501,-1.2501,-1.2501,-1.2501,-1.2501,-1.2501,-1.2501,-1.2501,-1.2501,-1.2501,-1.2501,-1.2501,-1.2501,-1.2501,-1.2501,-1.2501,-1.2501,-1.2501,-1.2501,-1.2501,-1.2501,-1.2501,-1.2501,-1.2559,-1.2667,-1.282,-1.2973,-1.3119,-1.1379,-1.1504,-1.1619,-1.1619,-1.1619,-1.1619,-1.1619,-1.1694,-1.1775,-1.1823,-1.2077,-1.2335,-1.2474,-1.2501,-1.2501,-1.2501,-1.2501,-1.2501,-1.2501,-1.2501,-1.2501,-1.2501,-1.2501,-1.2501,-1.2501,-1.2501,-1.2501,-1.2501,-1.2501,-1.2501,-1.2501,-1.2501,-1.2501,-1.2501,-1.2501,-1.2501,-1.2501,-1.2501,-1.2501,-1.2501,-1.2501,-1.2501,-1.2501,-1.2501,-1.2501,-1.2501,-1.2501,-1.2501,-1.2501,-1.2501,-1.2501,-1.2501,-1.2501,-1.2501,-1.2501,-1.2501,-1.2501,-1.2501,-1.2501,-1.2501,-1.2501,-1.2501,-1.2501,-1.2522,-1.2627,-1.2657,-1.2681,-1.2786,-1.2817,-1.2817,-1.2817,-1.2888,-1.2949,-1.2898,-1.2888,-1.2847,-1.2691,-1.2657,-1.2627,-1.2522,-1.2501,-1.2501,-1.2501,-1.2501,-1.2501,-1.2501,-1.2501,-1.2501,-1.2501,-1.2501,-1.2501,-1.2501,-1.2501,-1.2501,-1.2501,-1.2501,-1.2501,-1.2501,-1.2501,-1.2501,-1.2501,-1.2501,-1.2501,-1.2501,-1.2501,-1.2501,-1.2501,-1.2501,-1.2579,-1.2732,-1.2837,-1.299,-1.1348,-1.1501,-1.1616,-1.1619,-1.1619,-1.1619,-1.1619,-1.1619,-1.166,-1.1799,-1.2074,-1.2332,-1.2474,-1.2501,-1.2501,-1.2501,-1.2501,-1.2501,-1.2501,-1.2501,-1.2501,-1.2501,-1.2501,-1.2501,-1.2501,-1.2501,-1.2501,-1.2501,-1.2501,-1.2501,-1.2501,-1.2501,-1.2501,-1.2501,-1.2501,-1.2501,-1.2501,-1.2501,-1.2501,-1.2501,-1.2501,-1.2501,-1.2501,-1.2501,-1.2501,-1.2501,-1.2501,-1.2501,-1.2501,-1.2501,-1.2501,-1.2501,-1.2501,-1.2501,-1.2501,-1.2501,-1.2501,-1.2501,-1.2501,-1.2501,-1.2501,-1.2501,-1.2501,-1.2501,-1.2501,-1.2501,-1.2501,-1.2501,-1.2501,-1.2501,-1.2501,-1.2729,-1.2918,-1.2762,-1.2729,-1.2684,-1.2535,-1.2501,-1.2501,-1.2501,-1.2501,-1.2501,-1.2501,-1.2501,-1.2501,-1.2501,-1.2501,-1.2501,-1.2501,-1.2501,-1.2501,-1.2501,-1.2501,-1.2501,-1.2501,-1.2501,-1.2501,-1.2501,-1.2501,-1.2501,-1.2501,-1.2501,-1.2501,-1.2501,-1.2501,-1.2501,-1.2501,-1.2501,-1.2579,-1.2729,-1.2729,-1.2888,-1.1189,-1.1341,-1.1484,-1.1592,-1.1619,-1.1619,-1.1619,-1.1619,-1.166,-1.1799,-1.1989,-1.2176,-1.2325,-1.2433,-1.2501,-1.2501,-1.2501,-1.2501,-1.2501,-1.2501,-1.2501,-1.2501,-1.2501,-1.2501,-1.2501,-1.2501,-1.2501,-1.2501,-1.2501,-1.2501,-1.2501,-1.2501,-1.2501,-1.2501,-1.2501,-1.2501,-1.2501,-1.2501,-1.2501,-1.2501,-1.2501,-1.2501,-1.2501,-1.2501,-1.2501,-1.2501,-1.2501,-1.2501,-1.2501,-1.2501,-1.2501,-1.2501,-1.2501,-1.2501,-1.2501,-1.2501,-1.2501,-1.2501,-1.2501,-1.2501,-1.2501,-1.2501,-1.2501,-1.2501,-1.2501,-1.2501,-1.2501,-1.2501,-1.2501,-1.2501,-1.2501,-1.2569,-1.2627,-1.2579,-1.2569,-1.2556,-1.2511,-1.2501,-1.2501,-1.2501,-1.2501,-1.2501,-1.2501,-1.2501,-1.2501,-1.2501,-1.2501,-1.2501,-1.2501,-1.2501,-1.2501,-1.2501,-1.2501,-1.2501,-1.2501,-1.2501,-1.2501,-1.2501,-1.2501,-1.2501,-1.2501,-1.2501,-1.2501,-1.2501,-1.2501,-1.2501,-1.2501,-1.2501,-1.2525,-1.2573,-1.2678,-1.2776,-1.1053,-1.1185,-1.1338,-1.1491,-1.1528,-1.1545,-1.1606,-1.1619,-1.166,-1.1799,-1.1904,-1.2037,-1.225,-1.2362,-1.2437,-1.2491,-1.2501,-1.2501,-1.2501,-1.2501,-1.2501,-1.2501,-1.2501,-1.2501,-1.2501,-1.2501,-1.2501,-1.2501,-1.2501,-1.2501,-1.2501,-1.2501,-1.2501,-1.2501,-1.2501,-1.2501,-1.2501,-1.2501,-1.2501,-1.2501,-1.2501,-1.2501,-1.2501,-1.2501,-1.2501,-1.2501,-1.2501,-1.2501,-1.2501,-1.2501,-1.2501,-1.2501,-1.2501,-1.2501,-1.2501,-1.2501,-1.2501,-1.2501,-1.2501,-1.2501,-1.2501,-1.2501,-1.2501,-1.2501,-1.2501,-1.2501,-1.2501,-1.2501,-1.2501,-1.2501,-1.2501,-1.2501,-1.2501,-1.2501,-1.2501,-1.2501,-1.2501,-1.2501,-1.2501,-1.2501,-1.2501,-1.2501,-1.2501,-1.2501,-1.2501,-1.2501,-1.2501,-1.2501,-1.2501,-1.2501,-1.2501,-1.2501,-1.2501,-1.2501,-1.2501,-1.2501,-1.2501,-1.2501,-1.2501,-1.2501,-1.2501,-1.2501,-1.2501,-1.2501,-1.2501,-1.2501,-1.2501,-1.2501,-1.2501,-1.2505,-1.2596,-1.2671,-1.0877,-1.1043,-1.1179,-1.1335,-1.1382,-1.1433,-1.1586,-1.1619,-1.1657,-1.1786,-1.1823,-1.1915,-1.2196,-1.2271,-1.2332,-1.2461,-1.2491,-1.2501,-1.2501,-1.2501,-1.2501,-1.2501,-1.2501,-1.2501,-1.2501,-1.2501,-1.2501,-1.2501,-1.2501,-1.2501,-1.2501,-1.2501,-1.2501,-1.2501,-1.2501,-1.2501,-1.2501,-1.2501,-1.2501,-1.2501,-1.2501,-1.2501,-1.2501,-1.2501,-1.2501,-1.2501,-1.2501,-1.2501,-1.2501,-1.2501,-1.2501,-1.2501,-1.2501,-1.2501,-1.2501,-1.2501,-1.2501,-1.2501,-1.2501,-1.2501,-1.2501,-1.2501,-1.2501,-1.2501,-1.2501,-1.2501,-1.2501,-1.2501,-1.2501,-1.2501,-1.2501,-1.2501,-1.2501,-1.2501,-1.2501,-1.2501,-1.2501,-1.2501,-1.2501,-1.2501,-1.2501,-1.2501,-1.2501,-1.2501,-1.2501,-1.2501,-1.2501,-1.2501,-1.2501,-1.2501,-1.2501,-1.2501,-1.2501,-1.2501,-1.2501,-1.2501,-1.2501,-1.2501,-1.2501,-1.2501,-1.2501,-1.2501,-1.2501,-1.2501,-1.2501,-1.2501,-1.2501,-1.2501,-1.2501,-1.2501,-1.2652,-1.2806,-1.0847,-1.0904,-1.1029,-1.1175,-1.1301,-1.1433,-1.1586,-1.1619,-1.163,-1.1657,-1.1752,-1.185,-1.1918,-1.2128,-1.2301,-1.2332,-1.243,-1.2501,-1.2501,-1.2501,-1.2501,-1.2501,-1.2501,-1.2501,-1.2501,-1.2501,-1.2501,-1.2501,-1.2501,-1.2501,-1.2501,-1.2501,-1.2501,-1.2501,-1.2501,-1.2501,-1.2501,-1.2501,-1.2501,-1.2501,-1.2501,-1.2501,-1.2501,-1.2501,-1.2501,-1.2501,-1.2501,-1.2501,-1.2501,-1.2501,-1.2501,-1.2501,-1.2501,-1.2501,-1.2501,-1.2501,-1.2501,-1.2501,-1.2501,-1.2501,-1.2501,-1.2501,-1.2501,-1.2501,-1.2501,-1.2501,-1.2501,-1.2501,-1.2501,-1.2501,-1.2501,-1.2501,-1.2501,-1.2501,-1.2501,-1.2501,-1.2501,-1.2501,-1.2501,-1.2501,-1.2501,-1.2501,-1.2501,-1.2501,-1.2501,-1.2501,-1.2501,-1.2501,-1.2501,-1.2501,-1.2501,-1.2501,-1.2501,-1.2501,-1.2501,-1.2501,-1.2501,-1.2501,-1.2501,-1.2501,-1.2501,-1.2501,-1.2501,-1.2501,-1.2501,-1.2501,-1.2501,-1.2501,-1.2501,-1.2501,-1.3799,-1.443,-1.0816,-1.0772,-1.0806,-1.1023,-1.1226,-1.1413,-1.1491,-1.1565,-1.1619,-1.1619,-1.1677,-1.1748,-1.182,-1.1962,-1.2118,-1.2264,-1.2352,-1.2423,-1.2491,-1.2501,-1.2501,-1.2501,-1.2501,-1.2501,-1.2501,-1.2501,-1.2501,-1.2501,-1.2501,-1.2501,-1.2501,-1.2501,-1.2501,-1.2501,-1.2501,-1.2501,-1.2501,-1.2501,-1.2501,-1.2501,-1.2501,-1.2501,-1.2501,-1.2501,-1.2501,-1.2501,-1.2501,-1.2501,-1.2501,-1.2501,-1.2501,-1.2501,-1.2501,-1.2501,-1.2501,-1.2501,-1.2501,-1.2501,-1.2501,-1.2501,-1.2501,-1.2501,-1.2501,-1.2501,-1.2501,-1.2501,-1.2501,-1.2501,-1.2501,-1.2501,-1.2501,-1.2501,-1.2501,-1.2501,-1.2501,-1.2501,-1.2501,-1.2501,-1.2501,-1.2501,-1.2501,-1.2501,-1.2501,-1.2501,-1.2501,-1.2501,-1.2501,-1.2501,-1.2501,-1.2501,-1.2501,-1.2501,-1.2501,-1.2501,-1.2501,-1.3186,-1.3645,-1.3645,-1.441,-1.4867,-1.4867,-1.4867,-1.4487,-1.3645,-1.3645,-1.4026,-1.4867,-1.4867,-1.4867,-1.4867,-1.5705,-1.6083,-1.0721,-1.0721,-1.0758,-1.0843,-1.1131,-1.1328,-1.1379,-1.1491,-1.1589,-1.1613,-1.1619,-1.1653,-1.1772,-1.1816,-1.1915,-1.2169,-1.2254,-1.2332,-1.2447,-1.2484,-1.2501,-1.2501,-1.2501,-1.2501,-1.2501,-1.2501,-1.2501,-1.2501,-1.2501,-1.2501,-1.2501,-1.2501,-1.2501,-1.2501,-1.2501,-1.2501,-1.2501,-1.2501,-1.2501,-1.2501,-1.2807,-1.3035,-1.334,-1.334,-1.3035,-1.2501,-1.2501,-1.2501,-1.2501,-1.2501,-1.2501,-1.2501,-1.2501,-1.2656,-1.2884,-1.2884,-1.2884,-1.2884,-1.2884,-1.273,-1.2501,-1.2501,-1.2501,-1.2501,-1.2501,-1.2501,-1.2501,-1.2501,-1.2501,-1.2501,-1.2501,-1.2501,-1.2501,-1.2501,-1.2501,-1.2501,-1.2501,-1.2501,-1.2501,-1.2501,-1.2501,-1.2501,-1.2501,-1.2501,-1.2501,-1.2501,-1.2501,-1.2501,-1.2501,-1.2501,-1.2501,-1.2501,-1.273,-1.2884,-1.2884,-1.441,-1.5323,-1.5323,-1.6617,-1.7379,-1.7379,-1.7379,-1.6846,-1.5778,-1.5472,-1.6007,-1.7379,-1.7379,-1.7379,-1.7379,-1.7683,-1.7834,-1.0721,-1.0721,-1.0758,-1.0843,-1.0911,-1.1073,-1.1331,-1.1406,-1.146,-1.1592,-1.1619,-1.1626,-1.1643,-1.1748,-1.1843,-1.1884,-1.2115,-1.2298,-1.2318,-1.2423,-1.2501,-1.2501,-1.2501,-1.2501,-1.2501,-1.2501,-1.2501,-1.2501,-1.2501,-1.2501,-1.2501,-1.2501,-1.2501,-1.2501,-1.2501,-1.2501,-1.2501,-1.2501,-1.2501,-1.2501,-1.3876,-1.5323,-1.677,-1.677,-1.5169,-1.2501,-1.2501,-1.2501,-1.2501,-1.2501,-1.2501,-1.2501,-1.2501,-1.334,-1.456,-1.456,-1.456,-1.456,-1.456,-1.3645,-1.2501,-1.2501,-1.2501,-1.2501,-1.2501,-1.2501,-1.2501,-1.2501,-1.2501,-1.2501,-1.2501,-1.2501,-1.2501,-1.2501,-1.2501,-1.2501,-1.2501,-1.2501,-1.2501,-1.2501,-1.2501,-1.2501,-1.2501,-1.2501,-1.2501,-1.2501,-1.2501,-1.2501,-1.2501,-1.2501,-1.2501,-1.2501,-1.3722,-1.456,-1.456,-1.6083,-1.7074,-1.7074,-1.7303,-1.7379,-1.7379,-1.7379,-1.7986,-1.9127,-1.7759,-1.715,-1.7379,-1.7379,-1.7379,-1.7455,-1.8825,-1.951,-1.0721,-1.0721,-1.0734,-1.0739,-1.0816,-1.0914,-1.1114,-1.1274,-1.1409,-1.1477,-1.1558,-1.1619,-1.1619,-1.167,-1.1738,-1.182,-1.1945,-1.2064,-1.2149,-1.2291,-1.2383,-1.2383,-1.2454,-1.2501,-1.2501,-1.2501,-1.2501,-1.2501,-1.2501,-1.2501,-1.2501,-1.2501,-1.2501,-1.2501,-1.2501,-1.2501,-1.2501,-1.3417,-1.4333,-1.525,-1.593,-1.6694,-1.7379,-1.7379,-1.6617,-1.525,-1.525,-1.525,-1.525,-1.525,-1.525,-1.525,-1.525,-1.5705,-1.6312,-1.6312,-1.6312,-1.6312,-1.6312,-1.5858,-1.525,-1.525,-1.525,-1.525,-1.525,-1.525,-1.525,-1.525,-1.525,-1.525,-1.525,-1.525,-1.525,-1.525,-1.525,-1.525,-1.525,-1.3799,-1.2807,-1.3645,-1.3876,-1.4103,-1.5097,-1.525,-1.525,-1.525,-1.525,-1.525,-1.525,-1.525,-1.525,-1.525,-1.5858,-1.6312,-1.6312,-1.7834,-1.8749,-1.8749,-1.9661,-2.0124,-2.0124,-2.0124,-2.05,-2.1187,-1.9585,-1.9202,-2.0124,-2.0124,-2.0124,-2.0193,-2.0887,-2.1187,-1.0721,-1.0721,-1.0721,-1.0721,-1.0806,-1.0833,-1.0873,-1.1121,-1.1301,-1.1375,-1.1484,-1.1572,-1.1613,-1.1619,-1.1653,-1.1759,-1.1809,-1.187,-1.1986,-1.2135,-1.2247,-1.2284,-1.2383,-1.2464,-1.2498,-1.2501,-1.2501,-1.2501,-1.2501,-1.2501,-1.2501,-1.2501,-1.2501,-1.2501,-1.2501,-1.273,-1.3112,-1.4713,-1.6389,-1.7986,-1.7986,-1.8214,-1.8673,-1.8673,-1.8673,-1.8598,-1.7759,-1.7379,-1.7379,-1.7379,-1.7379,-1.7379,-1.7379,-1.7683,-1.7986,-1.7986,-1.7986,-1.7986,-1.7986,-1.7759,-1.7379,-1.7379,-1.7379,-1.7379,-1.7379,-1.7379,-1.7379,-1.7379,-1.7379,-1.7379,-1.7379,-1.7379,-1.7379,-1.7379,-1.7379,-1.7379,-1.7379,-1.5476,-1.4107,-1.5323,-1.5552,-1.593,-1.715,-1.7379,-1.7379,-1.7379,-1.7379,-1.7379,-1.7379,-1.7379,-1.7379,-1.7379,-1.7759,-1.7986,-1.7986,-1.951,-2.0425,-2.0425,-2.1574,-2.2334,-2.2334,-2.2334,-2.2334,-2.2334,-2.1037,-2.1037,-2.2334,-2.2334,-2.2334,-2.2334,-2.2334,-2.2334,-1.0721,-1.0721,-1.0721,-1.0721,-1.0724,-1.0768,-1.0847,-1.0894,-1.105,-1.1331,-1.1399,-1.1447,-1.1592,-1.1619,-1.1619,-1.163,-1.1742,-1.1833,-1.184,-1.1976,-1.2128,-1.2274,-1.2298,-1.2352,-1.2488,-1.2501,-1.2501,-1.2501,-1.2501,-1.2501,-1.2501,-1.2501,-1.2501,-1.2501,-1.2501,-1.3267,-1.4786,-1.6465,-1.8062,-1.9661,-1.9661,-2.05,-2.2029,-2.2029,-2.2029,-2.1873,-1.8749,-1.7379,-1.7379,-1.7379,-1.7379,-1.7379,-1.7379,-1.8295,-1.9661,-1.9661,-1.9661,-1.9661,-1.9661,-1.8673,-1.7379,-1.7379,-1.7379,-1.7379,-1.7379,-1.7379,-1.7379,-1.7379,-1.7379,-1.7379,-1.7379,-1.7379,-1.7379,-1.7379,-1.7379,-1.7379,-1.7379,-1.7303,-1.715,-1.7227,-1.7303,-1.7303,-1.7379,-1.7379,-1.7379,-1.7379,-1.7379,-1.7379,-1.7379,-1.7379,-1.7379,-1.7379,-1.8749,-1.9661,-1.9661,-2.1187,-2.2184,-2.2184,-2.2259,-2.2334,-2.2334,-2.2334,-2.2334,-2.2334,-2.2184,-2.2184,-2.2334,-2.2334,-2.2334,-2.2334,-2.2334,-2.2334,-1.0721,-1.0721,-1.0721,-1.0721,-1.0721,-1.0734,-1.0789,-1.0809,-1.0911,-1.1015,-1.1257,-1.1409,-1.1463,-1.1552,-1.1619,-1.1619,-1.166,-1.1694,-1.1694,-1.182,-1.1935,-1.1989,-1.2169,-1.2311,-1.2362,-1.2447,-1.2501,-1.2501,-1.2501,-1.2501,-1.2501,-1.2501,-1.2501,-1.2501,-1.3494,-1.5323,-1.7986,-1.8673,-1.9736,-2.1418,-2.1418,-2.1723,-2.2334,-2.2334,-2.2334,-2.2259,-2.1037,-2.0505,-2.0505,-2.0505,-2.0505,-2.0505,-2.0505,-2.0881,-2.1418,-2.1418,-2.1418,-2.1418,-2.1418,-2.1037,-2.0505,-2.0505,-2.0505,-2.0505,-2.0505,-2.0505,-2.0505,-2.0505,-2.0505,-2.0505,-2.0505,-2.0505,-2.0505,-2.0505,-2.0505,-2.0505,-2.0505,-1.9661,-1.8976,-1.8976,-1.8976,-1.9278,-2.0349,-2.0505,-2.0505,-2.0505,-2.0505,-2.0505,-2.0505,-2.0505,-2.0505,-2.0505,-2.1037,-2.1418,-2.1418,-2.1954,-2.2334,-2.2334,-2.2334,-2.2334,-2.2334,-2.2334,-2.2334,-2.2334,-2.2334,-2.2334,-2.2334,-2.2334,-2.2334,-2.2334,-2.2334,-2.2334,-1.0721,-1.0721,-1.0721,-1.0721,-1.0721,-1.0721,-1.0721,-1.0799,-1.082,-1.087,-1.1107,-1.1274,-1.1372,-1.1474,-1.1558,-1.1609,-1.1619,-1.1619,-1.1619,-1.1701,-1.1779,-1.1826,-1.201,-1.2176,-1.2281,-1.2376,-1.245,-1.2498,-1.2501,-1.2501,-1.2501,-1.3035,-1.3571,-1.4103,-1.5705,-1.7607,-1.9817,-2.0349,-2.1187,-2.2334,-2.2334,-2.2334,-2.2334,-2.2334,-2.2334,-2.2334,-2.2334,-2.2334,-2.2334,-2.2334,-2.2334,-2.2334,-2.2334,-2.2334,-2.2334,-2.2334,-2.2334,-2.2334,-2.2334,-2.2334,-2.2334,-2.2334,-2.2334,-2.2334,-2.2334,-2.2334,-2.2334,-2.2334,-2.2334,-2.2334,-2.2334,-2.2334,-2.2334,-2.2334,-2.2334,-2.2334,-2.2334,-2.1418,-2.0656,-2.0656,-2.0656,-2.0956,-2.2109,-2.2334,-2.2334,-2.2334,-2.2334,-2.2334,-2.2334,-2.2334,-2.2334,-2.2334,-2.2334,-2.2334,-2.2334,-2.2334,-2.2334,-2.2334,-2.2334,-2.2334,-2.2334,-2.2334,-2.2334,-2.2334,-2.2334,-2.2334,-2.2334,-2.2334,-2.2334,-2.2334,-2.2334,-2.2334,0.0,0.0,0.0,-1.0721,-1.0721,-1.0721,-1.0721,-1.0721,-1.0761,-1.0843,-1.0877,-1.0968,-1.1324,-1.1385,-1.144,-1.1589,-1.1616,-1.1619,-1.1619,-1.1619,-1.167,-1.1809,-1.183,-1.1948,-1.2247,-1.2284,-1.2349,-1.2562,-1.2575,-1.2579,-1.2656,-1.4103,-1.5701,-1.7455,-1.8976,-1.9811,-1.9887,-2.1499,-2.2334,-2.2334,-2.2334,-2.2334,-2.2334,-2.2334,-2.2334,-2.2334,-2.2334,-2.2334,-2.2334,-2.2334,-2.2334,-2.2334,-2.2334,-2.2334,-2.2334,-2.2334,-2.2334,-2.2334,-2.2334,-2.2334,-2.2334,-2.2334,-2.2334,-2.2334,-2.2334,-2.2334,-2.2334,-2.2334,-2.2334,-2.2334,-2.2334,-2.2334,-2.2334,-2.2334,-2.2334,-2.2334,-2.2334,-2.2334,-2.2334,-2.2334,-2.2334,-2.2334,-2.2334,-2.2334,-2.2334,-2.2334,-2.2334,-2.2334,-2.2334,-2.2334,-2.2334,-2.2334,-2.2334,-2.2334,-2.2334,-2.2334,-2.2334,-2.2334,-2.2334,-2.2334,-2.2334,-2.2334,-2.2334,-2.2334,-2.2334,-2.2334,-2.2334,-2.2334,-2.2334,-2.2334,-2.2334,-2.2334,-1.0721,0.0,0.0,0.0,0.0,0.0,-1.0721,-1.0721,-1.0731,-1.0775,-1.0803,-1.0904,-1.0988,-1.1246,-1.1406,-1.1447,-1.1548,-1.1619,-1.1619,-1.1619,-1.1633,-1.1674,-1.1769,-1.1864,-1.1948,-1.2159,-1.2834,-1.4002,-1.4191,-1.479,-1.6011,-1.6465,-1.7455,-1.9051,-1.9585,-2.0349,-2.1574,-2.2109,-2.2334,-2.2334,-2.2334,-2.2334,-2.2334,-2.2334,-2.2334,-2.2334,-2.2334,-2.2334,-2.2334,-2.2334,-2.2334,-2.2334,-2.2334,-2.2334,-2.2334,-2.2334,-2.2334,-2.2334,-2.2334,-2.2334,-2.2334,-2.2334,-2.2334,-2.2334,-2.2334,-2.2334,-2.2334,-2.2334,-2.2334,-2.2334,-2.2334,-2.2334,-2.2334,-2.2334,-2.2334,-2.2334,-2.2334,-2.2334,-2.2334,-2.2334,-2.2334,-2.2334,-2.2334,-2.2334,-2.2334,-2.2334,-2.2334,-2.2334,-2.2334,-2.2334,-2.2334,-2.2334,-2.2334,-2.2334,-2.2334,-2.2334,-2.2334,-2.2334,-2.2334,-2.2334,-2.2334,-2.2334,-2.2334,-2.2334,-2.2334,-2.2334,-2.2334,-2.2334,-2.2334,-2.2334,-2.2334,-2.2334,0.0,0.0,0.0,0.0,0.0,0.0,-1.0721,-1.0721,-1.0721,-1.0721,-1.0792,-1.0806,-1.087,-1.109,-1.1246,-1.1372,-1.1467,-1.1545,-1.1609,-1.1619,-1.1619,-1.1619,-1.1691,-1.1765,-1.1826,-1.2639,-1.3638,-1.4608,-1.5451,-1.6694,-1.829,-1.837,-1.9132,-2.0806,-2.0806,-2.1343,-2.2259,-2.2334,-2.2334,-2.2334,-2.2334,-2.2334,-2.2334,-2.2334,-2.2334,-2.2334,-2.2334,-2.2334,-2.2334,-2.2334,-2.2334,-2.2334,-2.2334,-2.2334,-2.2334,-2.2334,-2.2334,-2.2334,-2.2334,-2.2334,-2.2334,-2.2334,-2.2334,-2.2334,-2.2334,-2.2334,-2.2334,-2.2334,-2.2334,-2.2334,-2.2334,-2.2334,-2.2334,-2.2334,-2.2334,-2.2334,-2.2334,-2.2334,-2.2334,-2.2334,-2.2334,-2.2334,-2.2334,-2.2334,-2.2334,-2.2334,-2.2334,-2.2334,-2.2334,-2.2334,-2.2334,-2.2334,-2.2334,-2.2334,-2.2334,-2.2334,-2.2334,-2.2334,-2.2334,-2.2334,-2.2334,-2.2334,-2.2334,-2.2334,-2.2334,-2.2334,-2.2334,-2.2334,-2.2334,-2.2334,-2.2334,-2.2334,0.0,0.0,0.0,0.0,-1.0721,0.0,-1.0721,-1.0721,-1.0721,-1.0721,-1.0721,-1.0761,-1.083,-1.087,-1.0968,-1.1301,-1.1369,-1.1443,-1.1599,-1.1619,-1.1619,-1.1619,-1.1619,-1.1739,-1.2011,-1.3478,-1.4683,-1.5165,-1.6873,-1.8598,-1.9967,-2.0118,-2.0731,-2.2259,-2.2334,-2.2334,-2.2334,-2.2334,-2.2334,-2.2334,-2.2334,-2.2334,-2.2334,-2.2334,-2.2334,-2.2334,-2.2334,-2.2334,-2.2334,-2.2334,-2.2334,-2.2334,-2.2334,-2.2334,-2.2334,-2.2334,-2.2334,-2.2334,-2.2334,-2.2334,-2.2334,-2.2334,-2.2334,-2.2334,-2.2334,-2.2334,-2.2334,-2.2334,-2.2334,-2.2334,-2.2334,-2.2334,-2.2334,-2.2334,-2.2334,-2.2334,-2.2334,-2.2334,-2.2334,-2.2334,-2.2334,-2.2334,-2.2334,-2.2334,-2.2334,-2.2334,-2.2334,-2.2334,-2.2334,-2.2334,-2.2334,-2.2334,-2.2334,-2.2334,-2.2334,-2.2334,-2.2334,-2.2334,-2.2334,-2.2334,-2.2334,-2.2334,-2.2334,-2.2334,-2.2334,-2.2334,-2.2334,-2.2334,-2.2334,-2.2334,-2.2334,-2.2334,0.0,0.0,0.0,0.0,-1.0721,0.0,-1.0721,-1.0721,-1.0721,-1.0721,-1.0721,-1.0727,-1.0758,-1.0799,-1.09,-1.0958,-1.1236,-1.1443,-1.1599,-1.1619,-1.1619,-1.1619,-1.1619,-1.2126,-1.336,-1.3882,-1.5366,-1.8127,-2.0175,-2.1493,-2.1798,-2.1804,-2.1954,-2.2259,-2.2334,-2.2334,-2.2334,-2.2334,-2.2334,-2.2334,-2.2334,-2.2334,-2.2334,-2.2334,-2.2334,-2.2334,-2.2334,-2.2334,-2.2334,-2.2334,-2.2334,-2.2334,-2.2334,-2.2334,-2.2334,-2.2334,-2.2334,-2.2334,-2.2334,-2.2334,-2.2334,-2.2334,-2.2334,-2.2334,-2.2334,-2.2334,-2.2334,-2.2334,-2.2334,-2.2334,-2.2334,-2.2334,-2.2334,-2.2334,-2.2334,-2.2334,-2.2334,-2.2334,-2.2334,-2.2334,-2.2334,-2.2334,-2.2334,-2.2334,-2.2334,-2.2334,-2.2334,-2.2334,-2.2334,-2.2334,-2.2334,-2.2334,-2.2334,-2.2334,-2.2334,-2.2334,-2.2334,-2.2334,-2.2334,-2.2334,-2.2334,-2.2334,-2.2334,-2.2334,-2.2334,-2.2334,-2.2334,-2.2334,-2.2334,-2.2334,-2.2334,-2.2334,0.0,0.0,0.0,-1.1769,0.0,0.0,0.0,-1.2293,-1.2816,-1.2816,-1.2816,-1.2816,-1.2816,-1.2827,-1.2912,-1.3,-1.3162,-1.3372,-1.3639,-1.2487,-1.1903,-1.2681,-1.2753,-1.3313,-1.4867,-1.5901,-1.7599,-2.037,-2.1653,-2.2334,-2.2334,-2.2334,-2.2334,-2.2334,-2.2334,-2.2408,-2.2632,-2.2632,-2.2707,-2.285,-2.285,-2.285,-2.285,-2.285,-2.285,-2.285,-2.2707,-2.2632,-2.2558,-2.2408,-2.2334,-2.2334,-2.2334,-2.2334,-2.2334,-2.2334,-2.2334,-2.2334,-2.2334,-2.2334,-2.2334,-2.2334,-2.2334,-2.2334,-2.2334,-2.2334,-2.2334,-2.2334,-2.2334,-2.2334,-2.2334,-2.2334,-2.2334,-2.2334,-2.2334,-2.2334,-2.2334,-2.2334,-2.2334,-2.2334,-2.2334,-2.2334,-2.2334,-2.2334,-2.2334,-2.2334,-2.2334,-2.2334,-2.2334,-2.2334,-2.2334,-2.2334,-2.2334,-2.2334,-2.2334,-2.2334,-2.2334,-2.2334,-2.2334,-2.2334,-2.2334,-2.2334,-2.2334,-2.2334,-2.2334,-2.2334,-2.2334,-2.2334,-2.2334,-2.2334,-2.2334,-2.2334,0.0,0.0,0.0,0.0,0.0,-1.3206,0.0,0.0,0.0,-1.4907,-1.4907,-1.4907,-1.4907,-1.4907,-1.4959,-1.5054,-1.511,-1.5184,-1.5522,-1.3763,-1.2855,-1.4156,-1.4303,-1.4937,-1.6413,-1.8186,-1.9957,-2.1685,-2.2036,-2.2285,-2.2408,-2.234,-2.234,-2.2408,-2.2408,-2.2558,-2.293,-2.293,-2.3154,-2.337,-2.337,-2.337,-2.337,-2.337,-2.337,-2.337,-2.3073,-2.3005,-2.3005,-2.2632,-2.2483,-2.2483,-2.2334,-2.2334,-2.2334,-2.2334,-2.2334,-2.2334,-2.2334,-2.2334,-2.2334,-2.2334,-2.2334,-2.2334,-2.2334,-2.2334,-2.2334,-2.2334,-2.2334,-2.2334,-2.2334,-2.2334,-2.2334,-2.2334,-2.2334,-2.2334,-2.2334,-2.2334,-2.2334,-2.2334,-2.2334,-2.2334,-2.2334,-2.2334,-2.2334,-2.2334,-2.2334,-2.2334,-2.2334,-2.2334,-2.2334,-2.2334,-2.2334,-2.2334,-2.2334,-2.2334,-2.2334,-2.2334,-2.2334,-2.2334,-2.2334,-2.2334,-2.2334,-2.2334,-2.2334,-2.2334,-2.2334,-2.2334,-2.2334,-2.2334,-2.2334,-2.2334,0.0,0.0,0.0,0.0,-1.4646,-1.4646,-1.4646,0.0,-1.4907,-1.4907,0.0,-1.4907,-1.4907,0.0,0.0,-1.4941,-1.5021,-1.5086,-1.5133,-1.5201,-1.537,-1.5826,-1.5849,-1.6418,-1.7981,-1.9764,-2.1042,-2.1498,-2.1764,-2.2165,-2.2769,-2.2483,-2.2483,-2.2781,-2.2856,-2.2856,-2.293,-2.3222,-2.337,-2.337,-2.337,-2.337,-2.337,-2.337,-2.337,-2.337,-2.337,-2.337,-2.337,-2.3296,-2.3296,-2.3222,-2.2558,-2.2334,-2.2334,-2.2334,-2.2334,-2.2334,-2.2334,-2.2334,-2.2334,-2.2334,-2.2334,-2.2334,-2.2334,-2.2334,-2.2334,-2.2334,-2.2334,-2.2334,-2.2334,-2.2334,-2.2334,-2.2334,-2.2334,-2.2334,-2.2334,-2.2334,-2.2334,-2.2334,-2.2334,-2.2334,-2.2334,-2.2334,-2.2334,-2.2334,-2.2334,-2.2334,-2.2334,-2.2334,-2.2334,-2.2334,-2.2334,-2.2334,-2.2334,-2.2334,-2.2334,-2.2334,-2.2334,-2.2334,-2.2334,-2.2334,-2.2334,-2.2334,-2.2334,-2.2334,-2.2334,-2.2334,-2.2334,-2.2334,-2.2334,-2.2334,0.0,0.0,0.0,0.0,0.0,-1.6138,-1.6138,-1.6726,-1.7313,-1.7313,0.0,0.0,0.0,0.0,0.0,0.0,-1.7396,-1.7505,-1.7648,-1.7899,-1.7933,-1.7249,-1.7327,-1.8045,-1.9605,-2.055,-2.1172,-2.1456,-2.1722,-2.2202,-2.2843,-2.2707,-2.2781,-2.3154,-2.3222,-2.3302,-2.3525,-2.3667,-2.389,-2.4119,-2.4119,-2.4119,-2.4119,-2.4119,-2.4119,-2.4112,-2.3816,-2.3742,-2.3742,-2.3519,-2.337,-2.337,-2.3073,-2.2924,-2.2924,-2.2924,-2.2924,-2.2924,-2.2924,-2.2924,-2.2924,-2.2707,-2.2632,-2.2632,-2.234,-2.2334,-2.2334,-2.2334,-2.2334,-2.2334,-2.2334,-2.2334,-2.2334,-2.2334,-2.2334,-2.2334,-2.2334,-2.2334,-2.2334,-2.2334,-2.2334,-2.2334,-2.2334,-2.2334,-2.2334,-2.2334,-2.2334,-2.2334,-2.2334,-2.2334,-2.2334,-2.2334,-2.2334,-2.2334,-2.2334,-2.2334,-2.2334,-2.2334,-2.2334,-2.2334,-2.2334,-2.2334,-2.2334,-2.2334,-2.2334,-2.2334,-2.2334,-2.2334,-2.2334,-2.2334,-2.2334,-2.2334,-1.9078,-1.8355,-1.7566,-1.7566,-1.7566,-1.7566,-1.7566,-1.8349,-1.9078,-1.9078,-1.9078,0.0,0.0,0.0,0.0,0.0,0.0,-1.9138,-1.9332,-1.9664,-1.9569,-1.8703,-1.8891,-1.9465,-2.0596,-2.091,-2.11,-2.145,-2.1795,-2.227,-2.2986,-2.3005,-2.3222,-2.3519,-2.3593,-2.3667,-2.3964,-2.4112,-2.4341,-2.4636,-2.4636,-2.4636,-2.4636,-2.4636,-2.4636,-2.4562,-2.426,-2.4193,-2.4112,-2.3816,-2.3742,-2.3742,-2.3742,-2.3742,-2.3667,-2.3519,-2.337,-2.337,-2.337,-2.337,-2.337,-2.3154,-2.3005,-2.3005,-2.2707,-2.2632,-2.2632,-2.2632,-2.2558,-2.2483,-2.2483,-2.2408,-2.2334,-2.2334,-2.2334,-2.2334,-2.2334,-2.2334,-2.2334,-2.2334,-2.2334,-2.2334,-2.2334,-2.2334,-2.2334,-2.2334,-2.2334,-2.2334,-2.2334,-2.2334,-2.2334,-2.2334,-2.2334,-2.2334,-2.2334,-2.2334,-2.2334,-2.2334,-2.2334,-2.2334,-2.2334,-2.2334,-2.2334,-2.2334,-2.2334,-2.2334,-2.2334,-2.2334,-2.2334,-2.2334,-2.2334,-2.2334,-1.9078,-1.9078,-1.9008,-1.9008,-1.9008,-1.9008,-1.9008,-1.9078,-1.9078,-1.9078,-1.9078,-1.9078,-1.9078,0.0,0.0,0.0,0.0,0.0,0.0,-1.9549,-1.9983,-2.0175,-2.044,-2.0665,-2.0665,-2.0747,-2.0901,-2.1438,-2.19,-2.2491,-2.3339,-2.337,-2.3593,-2.3964,-2.3964,-2.3964,-2.3964,-2.4414,-2.4562,-2.4636,-2.4636,-2.4636,-2.4636,-2.4636,-2.4636,-2.4636,-2.4562,-2.4562,-2.4562,-2.4562,-2.4562,-2.4562,-2.4562,-2.4562,-2.4488,-2.3667,-2.337,-2.337,-2.337,-2.337,-2.337,-2.337,-2.337,-2.337,-2.337,-2.337,-2.337,-2.337,-2.3154,-2.2856,-2.2856,-2.2558,-2.2334,-2.2334,-2.2334,-2.2334,-2.2334,-2.2334,-2.2334,-2.2334,-2.2334,-2.2334,-2.2334,-2.2334,-2.2334,-2.2334,-2.2334,-2.2334,-2.2334,-2.2334,-2.2334,-2.2334,-2.2334,-2.2334,-2.2334,-2.2334,-2.2334,-2.2334,-2.2334,-2.2334,-2.2334,-2.2334,-2.2334,-2.2334,-2.2334,-2.2334,-2.2334,-2.2334,-2.2334,-2.2334,-2.2334,-2.2334,-1.9078,-1.9078,-1.9078,-1.9078,-1.9078,-1.9078,-1.9078,-1.9078,-1.9078,-1.9078,-1.9078,-1.9078,-1.9078,0.0,0.0,0.0,0.0,0.0,0.0,-1.9543,-2.005,-2.0484,-2.0611,-2.0665,-2.0665,-2.0665,-2.1029,-2.1851,-2.2032,-2.263,-2.3709,-2.3816,-2.3964,-2.4414,-2.4414,-2.4414,-2.4414,-2.4562,-2.4636,-2.4636,-2.4636,-2.4636,-2.4636,-2.4636,-2.4636,-2.4636,-2.4636,-2.4636,-2.4636,-2.4636,-2.4636,-2.4636,-2.4636,-2.4636,-2.4562,-2.426,-2.4193,-2.4193,-2.4193,-2.4193,-2.4112,-2.389,-2.3816,-2.3742,-2.3519,-2.337,-2.337,-2.337,-2.3296,-2.3222,-2.3222,-2.3147,-2.2999,-2.2999,-2.2856,-2.2707,-2.2707,-2.2707,-2.2632,-2.2334,-2.2483,-2.2632,-2.2334,-2.2334,-2.2334,-2.2334,-2.2334,-2.2334,-2.2334,-2.2334,-2.2334,-2.2334,-2.2334,-2.2334,-2.2334,-2.2334,-2.2334,-2.2334,-2.2334,-2.2334,-2.2334,-2.2334,-2.2334,-2.2334,-2.2334,-2.2334,-2.2334,-2.2334,-2.2334,-2.2334,-2.2334,-2.2334,-1.9078,-1.9078,-1.9078,-1.9078,-1.9078,-1.9078,-1.9078,-1.9078,-1.9078,-1.9078,-1.9078,-1.9078,-1.9078,0.0,0.0,0.0,0.0,0.0,0.0,-1.9748,-2.0189,-2.0617,-2.0665,-2.0665,-2.0665,-2.0665,-2.1093,-2.2054,-2.2241,-2.2768,-2.3931,-2.4112,-2.4341,-2.4562,-2.4636,-2.4636,-2.4636,-2.4636,-2.4636,-2.4636,-2.4636,-2.4636,-2.4636,-2.4636,-2.4636,-2.4636,-2.4636,-2.4636,-2.4636,-2.4636,-2.4636,-2.4636,-2.4636,-2.4636,-2.4636,-2.4636,-2.4636,-2.4636,-2.4636,-2.4636,-2.4562,-2.4267,-2.4186,-2.4193,-2.389,-2.3816,-2.3816,-2.3816,-2.3742,-2.3593,-2.3593,-2.3519,-2.337,-2.337,-2.3222,-2.3079,-2.3079,-2.3079,-2.2999,-2.2707,-2.293,-2.3005,-2.2707,-2.2707,-2.2632,-2.234,-2.2334,-2.2334,-2.2334,-2.2334,-2.2334,-2.2334,-2.2334,-2.2334,-2.2334,-2.2334,-2.2334,-2.2334,-2.2334,-2.2334,-2.2334,-2.2334,-2.2301,-2.2473,-2.2382,-2.2382,-2.2479,-2.2382,-2.2334,-2.2334,-2.2334,-2.2334]},{"header":{"parameterUnit":"m.s-1","parameterCategory":1,"la1":30.6,"la2":29.2853,"lo1":-89.7004,"lo2":-87.6739,"dy":0.0162,"dx":0.0183,"nx":112,"ny":82,"refTime":"2023-04-20T12:00:00:Z","depth":0,"parameterNumber":3,"parameterNumberName":"V-component_of_WINDS"},"data":[0.0,0.0,0.0,0.0,0.0,0.0,0.0,0.0,0.0,0.0,0.0,0.0,0.0,0.0,0.0,0.0,0.0,0.0,0.0,0.0,0.0,0.0,0.0,0.0,0.0,0.0,0.0,0.0,0.0,0.0,0.0,0.0,0.0,0.0,0.0,0.0,0.0,0.0,0.0,0.0,0.0,0.0,0.0,0.0,0.0,0.0,0.0,0.0,0.0,0.0,0.0,0.0,0.0,0.0,0.0,0.0,0.0,0.0,0.0,0.0,0.0,0.0,0.0,0.0,0.0,0.0,0.0,0.0,0.0,0.0,0.0,0.0,0.0,0.0,0.0,0.0,0.0,0.0,0.0,0.0,0.0,0.0,0.0,0.0,0.0,0.0,0.0,0.0,0.0,0.0,5.12,5.119,5.1192,5.1202,5.1202,5.1202,5.1206,5.1196,0.0,0.0,0.0,0.0,0.0,0.0,0.0,0.0,0.0,0.0,0.0,0.0,0.0,0.0,0.0,0.0,0.0,0.0,0.0,0.0,0.0,0.0,0.0,0.0,0.0,0.0,0.0,0.0,0.0,0.0,0.0,0.0,0.0,0.0,0.0,0.0,0.0,0.0,0.0,0.0,0.0,0.0,0.0,0.0,0.0,0.0,0.0,0.0,0.0,0.0,0.0,0.0,0.0,0.0,0.0,0.0,0.0,0.0,0.0,0.0,0.0,0.0,0.0,0.0,0.0,0.0,0.0,0.0,0.0,0.0,0.0,0.0,0.0,0.0,0.0,0.0,0.0,0.0,0.0,0.0,0.0,0.0,0.0,0.0,0.0,0.0,0.0,0.0,0.0,0.0,0.0,0.0,0.0,0.0,0.0,0.0,0.0,0.0,0.0,0.0,0.0,0.0,0.0,0.0,5.1202,5.1194,5.1208,5.1202,5.1202,5.1202,5.1202,5.1194,0.0,0.0,0.0,0.0,0.0,0.0,0.0,0.0,0.0,0.0,0.0,0.0,0.0,0.0,0.0,0.0,0.0,0.0,0.0,0.0,0.0,0.0,0.0,0.0,0.0,0.0,0.0,0.0,0.0,0.0,0.0,0.0,0.0,0.0,0.0,0.0,0.0,0.0,0.0,0.0,0.0,0.0,0.0,0.0,0.0,0.0,0.0,0.0,0.0,0.0,0.0,0.0,0.0,0.0,0.0,0.0,0.0,0.0,0.0,0.0,0.0,0.0,0.0,0.0,0.0,0.0,0.0,0.0,0.0,0.0,0.0,0.0,0.0,0.0,0.0,0.0,0.0,0.0,0.0,0.0,0.0,0.0,0.0,0.0,0.0,0.0,0.0,0.0,0.0,0.0,0.0,0.0,0.0,0.0,0.0,0.0,0.0,0.0,0.0,0.0,0.0,0.0,0.0,5.12,5.1202,5.1202,5.1202,5.1202,5.1202,5.1202,5.1202,5.1202,5.1206,0.0,0.0,0.0,0.0,0.0,0.0,0.0,0.0,0.0,0.0,0.0,0.0,0.0,0.0,0.0,0.0,0.0,0.0,0.0,0.0,0.0,0.0,0.0,0.0,0.0,0.0,0.0,0.0,0.0,0.0,0.0,0.0,0.0,0.0,0.0,0.0,0.0,0.0,0.0,0.0,0.0,0.0,0.0,0.0,0.0,0.0,0.0,0.0,0.0,0.0,0.0,0.0,0.0,0.0,0.0,0.0,0.0,0.0,0.0,0.0,0.0,0.0,0.0,0.0,0.0,0.0,0.0,0.0,0.0,0.0,0.0,0.0,0.0,0.0,0.0,0.0,0.0,0.0,0.0,0.0,0.0,0.0,0.0,0.0,0.0,0.0,0.0,0.0,0.0,0.0,0.0,0.0,0.0,0.0,0.0,0.0,0.0,0.0,0.0,0.0,0.0,0.0,5.1202,5.1202,5.1202,5.1202,5.1202,5.1202,5.1202,5.1202,5.1202,5.1202,0.0,0.0,0.0,0.0,0.0,0.0,0.0,0.0,0.0,0.0,0.0,0.0,0.0,0.0,0.0,0.0,0.0,0.0,0.0,0.0,0.0,0.0,0.0,0.0,0.0,0.0,0.0,0.0,0.0,0.0,0.0,0.0,0.0,0.0,0.0,0.0,0.0,0.0,0.0,0.0,0.0,0.0,0.0,0.0,0.0,0.0,0.0,0.0,0.0,0.0,0.0,0.0,0.0,0.0,0.0,0.0,0.0,0.0,0.0,0.0,0.0,0.0,0.0,0.0,0.0,0.0,0.0,0.0,0.0,0.0,0.0,0.0,0.0,0.0,0.0,0.0,0.0,0.0,0.0,0.0,0.0,0.0,0.0,0.0,0.0,0.0,0.0,0.0,0.0,0.0,0.0,0.0,0.0,0.0,0.0,0.0,0.0,0.0,0.0,0.0,0.0,0.0,5.1202,5.1202,5.1202,5.1202,5.1202,5.1202,5.1202,5.1202,5.1202,5.1202,0.0,0.0,0.0,0.0,0.0,0.0,0.0,0.0,0.0,0.0,0.0,0.0,0.0,0.0,0.0,0.0,0.0,0.0,0.0,0.0,0.0,0.0,0.0,0.0,0.0,0.0,0.0,0.0,0.0,0.0,0.0,0.0,0.0,0.0,0.0,0.0,0.0,0.0,0.0,0.0,0.0,0.0,0.0,0.0,0.0,0.0,0.0,0.0,0.0,0.0,0.0,0.0,0.0,0.0,0.0,0.0,0.0,0.0,0.0,0.0,0.0,0.0,0.0,0.0,0.0,0.0,0.0,0.0,0.0,0.0,0.0,0.0,0.0,0.0,0.0,0.0,0.0,0.0,0.0,0.0,0.0,0.0,0.0,0.0,0.0,0.0,0.0,0.0,0.0,0.0,0.0,0.0,0.0,0.0,0.0,0.0,0.0,0.0,0.0,0.0,0.0,0.0,5.2426,5.2756,5.2756,5.2756,5.2756,5.2756,5.2756,5.2756,5.2756,0.0,0.0,0.0,0.0,0.0,0.0,0.0,0.0,0.0,0.0,0.0,0.0,0.0,0.0,0.0,0.0,0.0,0.0,0.0,0.0,0.0,0.0,0.0,0.0,0.0,0.0,0.0,0.0,0.0,0.0,0.0,0.0,0.0,0.0,0.0,0.0,0.0,0.0,0.0,0.0,0.0,0.0,0.0,0.0,0.0,0.0,0.0,0.0,0.0,0.0,0.0,0.0,0.0,0.0,0.0,0.0,0.0,0.0,0.0,0.0,0.0,0.0,0.0,0.0,0.0,0.0,0.0,0.0,0.0,0.0,0.0,0.0,0.0,0.0,0.0,0.0,0.0,0.0,0.0,0.0,0.0,0.0,0.0,0.0,0.0,0.0,0.0,0.0,0.0,0.0,0.0,0.0,0.0,0.0,0.0,0.0,0.0,0.0,0.0,0.0,0.0,0.0,5.2814,5.3326,5.3695,5.3695,5.3695,5.3695,5.3695,5.3695,5.3695,5.3695,0.0,0.0,0.0,0.0,0.0,0.0,0.0,0.0,0.0,0.0,0.0,0.0,0.0,0.0,0.0,0.0,0.0,0.0,0.0,0.0,0.0,0.0,0.0,0.0,0.0,0.0,0.0,0.0,0.0,0.0,0.0,0.0,0.0,0.0,0.0,0.0,0.0,0.0,0.0,0.0,0.0,0.0,0.0,0.0,0.0,0.0,0.0,0.0,0.0,0.0,0.0,0.0,0.0,0.0,0.0,0.0,0.0,0.0,0.0,0.0,0.0,0.0,0.0,0.0,0.0,0.0,0.0,0.0,0.0,0.0,0.0,0.0,0.0,0.0,0.0,0.0,0.0,0.0,0.0,0.0,0.0,0.0,0.0,0.0,0.0,0.0,0.0,0.0,0.0,0.0,0.0,0.0,0.0,0.0,0.0,0.0,0.0,0.0,0.0,0.0,0.0,0.0,5.3714,5.3714,5.3733,5.3733,5.3733,5.3733,5.3733,5.3733,5.3733,0.0,0.0,0.0,0.0,0.0,0.0,0.0,0.0,0.0,0.0,0.0,0.0,0.0,0.0,0.0,0.0,0.0,0.0,0.0,0.0,0.0,0.0,0.0,0.0,0.0,0.0,0.0,0.0,0.0,0.0,0.0,0.0,0.0,0.0,0.0,0.0,0.0,0.0,0.0,0.0,0.0,0.0,0.0,0.0,0.0,0.0,0.0,0.0,0.0,0.0,0.0,0.0,0.0,0.0,0.0,0.0,0.0,0.0,0.0,0.0,0.0,0.0,0.0,0.0,0.0,0.0,0.0,0.0,0.0,0.0,0.0,0.0,0.0,0.0,0.0,0.0,0.0,0.0,0.0,0.0,0.0,0.0,0.0,0.0,0.0,0.0,0.0,0.0,0.0,0.0,0.0,0.0,0.0,0.0,0.0,0.0,0.0,0.0,0.0,0.0,0.0,0.0,0.0,5.4621,5.5145,5.5534,5.5534,5.5534,5.5534,5.5534,5.5534,5.5534,5.5534,0.0,0.0,0.0,0.0,0.0,0.0,0.0,0.0,0.0,0.0,0.0,0.0,0.0,0.0,0.0,0.0,0.0,0.0,0.0,0.0,0.0,0.0,0.0,0.0,0.0,0.0,0.0,0.0,0.0,0.0,0.0,0.0,0.0,0.0,0.0,0.0,0.0,0.0,0.0,0.0,0.0,0.0,0.0,0.0,0.0,0.0,0.0,0.0,0.0,0.0,0.0,0.0,0.0,0.0,0.0,0.0,0.0,0.0,0.0,0.0,0.0,0.0,0.0,0.0,0.0,0.0,0.0,0.0,0.0,0.0,0.0,0.0,0.0,0.0,0.0,0.0,0.0,0.0,0.0,0.0,0.0,0.0,0.0,0.0,0.0,0.0,0.0,0.0,0.0,0.0,0.0,0.0,0.0,0.0,0.0,0.0,0.0,0.0,0.0,0.0,0.0,0.0,5.5514,5.5981,5.6291,5.6291,5.6291,5.6291,5.6291,5.6291,5.6291,5.6291,0.0,0.0,0.0,0.0,0.0,0.0,0.0,0.0,0.0,0.0,0.0,0.0,0.0,0.0,0.0,0.0,0.0,0.0,0.0,0.0,0.0,0.0,0.0,0.0,0.0,0.0,0.0,0.0,0.0,0.0,0.0,0.0,0.0,0.0,0.0,0.0,0.0,0.0,0.0,0.0,0.0,0.0,0.0,0.0,0.0,0.0,0.0,0.0,0.0,0.0,0.0,0.0,0.0,0.0,0.0,0.0,0.0,0.0,0.0,0.0,0.0,0.0,0.0,0.0,0.0,0.0,0.0,0.0,0.0,0.0,0.0,0.0,0.0,0.0,0.0,0.0,0.0,0.0,0.0,0.0,0.0,0.0,0.0,0.0,0.0,0.0,0.0,0.0,0.0,0.0,0.0,0.0,0.0,0.0,0.0,0.0,0.0,0.0,0.0,0.0,0.0,0.0,5.6291,5.6291,5.6291,5.6291,5.6291,5.6291,5.6291,5.6291,5.6291,5.6291,0.0,0.0,0.0,0.0,0.0,0.0,0.0,0.0,0.0,0.0,0.0,0.0,0.0,0.0,0.0,0.0,0.0,0.0,0.0,0.0,0.0,0.0,0.0,0.0,0.0,0.0,0.0,0.0,0.0,0.0,0.0,0.0,0.0,0.0,0.0,0.0,0.0,0.0,0.0,0.0,0.0,0.0,0.0,0.0,0.0,0.0,0.0,0.0,0.0,0.0,0.0,0.0,0.0,0.0,0.0,0.0,0.0,0.0,0.0,0.0,5.5903,5.5961,0.0,0.0,0.0,0.0,0.0,0.0,0.0,0.0,0.0,0.0,0.0,0.0,0.0,0.0,0.0,0.0,0.0,0.0,0.0,0.0,0.0,0.0,0.0,0.0,0.0,0.0,0.0,0.0,0.0,0.0,0.0,0.0,0.0,0.0,0.0,0.0,0.0,0.0,0.0,0.0,5.6291,5.6291,5.6291,5.6291,5.6291,5.6291,5.6291,5.6291,5.6291,5.6291,5.6291,0.0,0.0,0.0,0.0,0.0,0.0,0.0,0.0,0.0,0.0,0.0,0.0,0.0,0.0,0.0,0.0,0.0,0.0,0.0,0.0,0.0,0.0,0.0,0.0,0.0,0.0,0.0,0.0,0.0,0.0,0.0,0.0,0.0,0.0,0.0,0.0,0.0,0.0,0.0,0.0,0.0,0.0,0.0,0.0,0.0,0.0,0.0,0.0,0.0,0.0,0.0,0.0,0.0,0.0,0.0,0.0,0.0,0.0,0.0,5.6401,5.6426,0.0,0.0,0.0,0.0,0.0,0.0,0.0,0.0,0.0,0.0,0.0,0.0,0.0,0.0,0.0,0.0,0.0,0.0,0.0,0.0,0.0,0.0,0.0,0.0,0.0,0.0,0.0,0.0,0.0,0.0,0.0,0.0,0.0,0.0,0.0,0.0,0.0,0.0,0.0,0.0,5.6291,5.6291,5.6291,5.6291,5.6291,5.6291,5.6291,5.6291,5.6291,5.6291,5.6291,0.0,0.0,0.0,0.0,0.0,0.0,0.0,0.0,0.0,0.0,0.0,0.0,0.0,0.0,0.0,0.0,0.0,0.0,0.0,0.0,0.0,0.0,0.0,0.0,0.0,0.0,0.0,0.0,0.0,0.0,0.0,0.0,0.0,0.0,0.0,0.0,0.0,0.0,0.0,0.0,0.0,0.0,0.0,0.0,0.0,0.0,0.0,0.0,0.0,0.0,0.0,0.0,0.0,5.6816,5.6831,5.6831,5.6831,5.6787,5.6745,5.6792,5.6617,5.6294,5.6359,0.0,0.0,0.0,0.0,0.0,0.0,0.0,0.0,0.0,0.0,0.0,0.0,0.0,0.0,0.0,0.0,0.0,0.0,0.0,0.0,0.0,0.0,5.9036,5.9036,5.9133,5.9243,5.9243,0.0,0.0,0.0,0.0,0.0,0.0,0.0,0.0,0.0,0.0,0.0,5.6718,5.6718,5.6718,5.6718,5.6718,5.6725,5.6732,5.6732,5.6732,5.6738,5.6738,5.6738,0.0,0.0,0.0,0.0,0.0,0.0,0.0,0.0,0.0,0.0,0.0,0.0,0.0,0.0,0.0,0.0,0.0,0.0,0.0,0.0,0.0,0.0,0.0,0.0,0.0,0.0,0.0,0.0,0.0,0.0,0.0,0.0,5.6298,5.6304,0.0,0.0,0.0,0.0,0.0,0.0,0.0,0.0,0.0,0.0,0.0,0.0,0.0,5.7531,5.7531,5.8228,5.8571,5.8571,5.8499,5.8474,5.8474,5.8474,5.8487,5.848,5.8487,0.0,5.6294,5.6319,0.0,0.0,0.0,0.0,0.0,0.0,0.0,0.0,0.0,0.0,0.0,0.0,0.0,0.0,0.0,0.0,0.0,0.0,0.0,0.0,0.0,0.0,5.9925,5.9925,6.0465,6.0965,6.0965,5.9835,5.8797,5.8797,5.8797,5.8778,0.0,0.0,0.0,0.0,0.0,0.0,5.8386,5.8378,5.8378,5.8378,5.8378,5.8413,5.8476,5.8476,5.8471,5.846,5.8467,5.8467,5.8467,5.8467,0.0,0.0,0.0,0.0,0.0,0.0,0.0,0.0,0.0,0.0,0.0,0.0,0.0,0.0,0.0,0.0,0.0,0.0,0.0,0.0,0.0,0.0,0.0,0.0,0.0,0.0,0.0,0.0,0.0,5.7418,5.7709,5.7709,5.7709,5.7709,0.0,0.0,0.0,0.0,0.0,0.0,0.0,0.0,0.0,5.7756,5.812,5.8315,5.8315,5.868,5.8843,5.8836,5.881,5.8797,5.8797,5.8797,5.9069,5.9535,5.9535,5.9393,5.9089,5.8104,5.7714,5.7756,0.0,0.0,0.0,0.0,5.8525,5.8836,5.8804,5.8797,5.8875,5.938,0.0,0.0,0.0,0.0,0.0,0.0,0.0,6.0208,6.0208,6.0484,6.0759,6.0759,6.1042,6.1297,6.1297,6.0728,6.0208,6.0208,6.0204,6.0063,5.9617,5.9498,0.0,0.0,0.0,5.8735,5.8692,5.8711,5.8711,5.8711,5.8711,5.8719,5.8735,5.8742,5.875,5.8746,5.8746,5.8746,5.8746,5.8768,5.9034,0.0,0.0,0.0,0.0,0.0,0.0,0.0,0.0,0.0,0.0,0.0,0.0,0.0,0.0,0.0,0.0,0.0,0.0,0.0,0.0,0.0,0.0,0.0,0.0,0.0,0.0,0.0,0.0,5.8428,5.8797,5.8797,5.8797,5.8797,0.0,0.0,0.0,0.0,0.0,0.0,5.9127,5.9127,5.9224,5.9458,5.9691,5.9807,5.9807,6.0021,6.0137,6.0137,6.0137,6.0137,6.0137,6.0137,6.0487,6.1089,6.1089,6.1478,6.1924,6.0176,5.9477,5.9438,5.9224,5.9263,5.9438,5.9205,5.9263,5.9477,5.9477,5.9451,5.956,6.0201,6.0408,6.051,6.112,0.0,0.0,0.0,0.0,6.1297,6.1297,6.1289,6.1261,6.1261,6.1253,6.1245,6.1245,6.1253,6.1289,6.1297,6.1302,6.1112,6.0503,6.0363,0.0,5.9499,5.9378,5.9326,5.9318,5.9318,5.9318,5.9318,5.9318,5.9318,5.9335,5.9335,5.9354,5.9351,5.937,5.937,5.937,5.9409,5.9735,6.0387,0.0,0.0,0.0,0.0,0.0,0.0,0.0,0.0,0.0,0.0,0.0,0.0,0.0,0.0,0.0,0.0,0.0,0.0,0.0,0.0,0.0,0.0,0.0,0.0,0.0,0.0,0.0,0.0,0.0,5.8797,5.8797,0.0,0.0,0.0,0.0,5.8797,5.8797,5.9166,5.9982,6.0021,6.0409,6.1237,6.208,6.2507,6.2507,6.3323,6.3731,6.3731,6.3731,6.3731,6.3731,6.3731,6.375,6.3789,6.3789,6.3828,6.3731,6.2002,6.1276,6.1179,6.0351,6.0545,6.116,6.0332,6.0565,6.1276,6.1276,6.1235,6.1186,6.1225,6.124,6.1247,6.1286,6.1306,0.0,0.0,6.1297,6.1297,6.1297,6.1245,6.121,6.121,6.1155,6.1108,6.1108,6.1155,6.1227,6.1289,6.1306,6.1286,6.1247,0.0,6.1203,6.1083,6.1074,6.1057,6.0992,6.0992,6.0992,6.0992,6.0992,6.1001,6.1066,6.1074,6.1092,6.1162,6.1162,6.1162,6.1162,6.117,6.1189,6.1247,6.1209,0.0,0.0,0.0,0.0,0.0,0.0,0.0,0.0,0.0,0.0,0.0,0.0,0.0,0.0,0.0,0.0,0.0,0.0,0.0,0.0,0.0,0.0,0.0,0.0,0.0,0.0,0.0,0.0,6.0461,6.0973,0.0,6.1303,6.1827,6.2157,6.2157,6.2157,6.2274,6.2585,6.2604,6.274,6.3051,6.3362,6.3537,6.3537,6.3828,6.4003,6.4003,6.4003,6.4003,6.4003,6.4003,6.4275,6.478,6.478,6.5091,6.5557,6.4935,6.4042,6.3032,6.2721,6.2798,6.3032,6.2672,6.2742,6.3006,6.2956,6.2939,6.2904,6.2904,6.2878,6.2844,6.2844,6.2846,6.2838,6.2838,6.2838,6.2838,6.2838,6.2828,6.281,6.281,6.28,6.2762,6.2762,6.28,6.2819,6.2838,6.1974,6.1236,6.1236,6.121,6.1173,6.1201,6.1164,6.1137,6.1099,6.1099,6.1099,6.1099,6.1099,6.1108,6.1117,6.1146,6.1146,6.1173,6.1173,6.1173,6.1173,6.1219,6.1236,6.1236,6.1281,6.1297,0.0,0.0,0.0,0.0,0.0,0.0,0.0,0.0,0.0,0.0,0.0,0.0,0.0,0.0,0.0,0.0,0.0,0.0,0.0,0.0,0.0,0.0,0.0,0.0,0.0,6.173,6.2274,6.2274,6.2798,6.3148,6.3148,6.3653,6.4003,6.4003,6.4003,6.4119,6.4391,6.4391,6.4547,6.4838,6.4838,6.4974,6.5285,6.5285,6.5421,6.5712,6.5712,6.5712,6.5712,6.5712,6.6003,6.652,6.652,6.6823,6.734,6.734,6.6672,6.5576,6.4738,6.4396,6.4369,6.3992,6.3879,6.3851,6.3789,6.3772,6.3763,6.3774,6.3747,6.3699,6.3699,6.37,6.37,6.37,6.37,6.37,6.37,6.37,6.37,6.37,6.37,6.37,6.37,6.37,6.37,6.37,6.279,6.2035,6.2035,6.2007,6.1978,6.2035,6.2007,6.1969,6.1969,6.1969,6.1969,6.1969,6.1969,6.1969,6.1969,6.1969,6.1969,6.1969,6.1969,6.1969,6.1969,6.2016,6.2035,6.2035,6.209,6.2116,6.2106,0.0,0.0,0.0,0.0,0.0,0.0,0.0,0.0,0.0,0.0,0.0,0.0,0.0,0.0,0.0,0.0,0.0,0.0,0.0,0.0,0.0,0.0,0.0,6.2842,6.3459,6.3983,6.3983,6.4022,6.4022,6.4022,6.4061,6.41,6.4119,6.4119,6.4469,6.5277,6.5316,6.5705,6.6547,6.6586,6.6994,6.7829,6.7829,6.8257,6.9111,6.9103,6.9103,6.9103,6.9084,6.9084,6.9084,6.9084,6.906,6.8998,6.8998,6.8952,6.8664,6.6254,6.5319,6.5214,6.4291,6.3964,6.3955,6.3872,6.3863,6.3854,6.3864,6.3855,6.3855,6.3855,6.3855,6.3855,6.3855,6.3855,6.3855,6.3855,6.3855,6.3855,6.3855,6.3855,6.3855,6.3855,6.3855,6.3855,6.3855,6.3855,6.3835,6.3719,6.37,6.37,6.37,6.37,0.0,6.37,6.37,6.37,6.37,6.37,6.37,6.37,6.37,6.37,6.37,6.37,6.37,6.37,6.37,6.37,6.37,6.37,6.37,6.3708,0.0,0.0,0.0,0.0,0.0,0.0,0.0,0.0,0.0,0.0,0.0,0.0,0.0,0.0,0.0,0.0,0.0,0.0,0.0,0.0,0.0,6.489,6.5164,6.3707,6.3696,6.3851,6.3851,6.4414,6.4801,6.4801,6.5372,6.5974,6.6566,6.6605,6.6974,6.7847,6.7931,6.8072,6.8305,6.8357,6.8509,6.8742,6.8742,6.8859,6.9103,6.906,6.9023,6.9043,6.8989,6.8952,6.8952,6.8952,6.8943,6.8934,6.8934,6.8925,6.8838,6.815,6.7887,6.7839,6.7541,6.7435,6.7415,6.7405,6.7405,6.7405,6.7404,6.7404,6.7404,6.7404,6.7404,6.7404,6.7404,6.7404,6.7404,6.7404,6.7404,6.7404,6.7404,6.7404,6.7404,6.7404,6.7404,6.7404,6.7404,6.7404,6.6611,6.4126,6.37,6.37,6.37,6.37,6.37,6.37,6.37,6.37,6.37,6.37,6.37,6.37,6.37,6.37,6.37,6.37,6.37,6.37,6.37,6.37,6.37,6.37,6.37,0.0,0.0,0.0,0.0,0.0,0.0,0.0,0.0,0.0,0.0,0.0,0.0,0.0,0.0,0.0,0.0,0.0,0.0,0.0,0.0,0.0,0.0,6.6233,6.6622,6.5993,6.5322,6.5019,6.534,6.5834,6.6299,6.6667,6.7152,6.7636,6.8121,6.814,6.8373,6.8868,6.8934,6.8952,6.8952,6.8998,6.919,6.9558,6.9558,6.9733,7.0102,7.0076,7.0058,7.0058,7.0011,7.0001,7.0001,7.0001,6.9963,6.9944,6.9944,6.9934,6.9837,0.0,0.0,0.0,0.0,6.8798,6.8796,6.8796,6.8796,6.8796,6.8796,6.8796,6.8796,6.8796,6.8796,6.8796,6.8796,6.8796,6.8796,6.8796,6.8796,6.8796,6.8796,6.8796,6.8796,6.8796,6.8796,6.8796,6.8796,6.8796,0.0,6.6185,6.5837,6.5837,6.5837,6.5837,6.5837,6.5837,6.5837,6.5837,6.5837,6.5837,6.5837,6.5837,6.5837,0.0,0.0,0.0,6.5837,6.5837,6.5837,0.0,0.0,0.0,6.5837,6.5837,6.5837,0.0,0.0,6.4386,6.4087,0.0,0.0,0.0,0.0,0.0,0.0,0.0,0.0,0.0,0.0,0.0,0.0,0.0,0.0,0.0,0.0,6.7686,6.7926,6.87,6.7561,6.6949,6.7657,6.7734,6.8045,6.882,6.8897,6.8936,6.9014,6.9014,6.9072,6.9169,6.9169,0.0,0.0,0.0,6.9556,7.0331,7.035,7.0738,7.1494,7.1485,7.1485,7.1485,7.1475,7.1475,7.1475,7.1475,7.1445,7.1385,7.1385,7.1354,7.1148,6.9661,6.9081,6.9071,6.9078,6.9087,6.9087,6.9087,0.0,0.0,6.9087,6.9087,6.9087,6.9087,6.9087,6.9087,6.9087,6.9087,6.9087,6.9087,6.9087,6.9087,6.9087,6.9087,6.9087,6.9087,6.9087,6.9087,6.9087,6.9087,6.9087,6.9087,6.8932,6.8796,6.8796,6.8796,6.8796,6.8796,6.8796,6.8796,6.8796,6.8796,0.0,6.8796,6.8796,6.8796,6.8796,6.8796,6.8796,6.8796,6.8796,6.8796,6.8796,6.8796,6.8796,6.8796,6.8796,6.8796,6.8738,6.5682,6.5064,0.0,0.0,0.0,0.0,0.0,0.0,0.0,0.0,0.0,0.0,0.0,0.0,0.0,0.0,0.0,6.8549,6.8557,6.8622,6.8777,6.8517,6.8383,6.8557,6.8576,6.8634,6.8808,6.8828,6.9099,6.9737,6.9795,7.0085,7.0801,7.0882,7.0922,7.0922,7.0961,7.1087,7.1242,7.1242,7.1339,7.1494,7.1455,0.0,7.1425,7.1364,7.1343,7.1343,7.1343,7.1324,7.1313,7.1313,7.1302,7.1272,7.0935,7.0829,7.0819,7.0819,7.0827,7.0827,7.0827,7.0827,7.0827,7.0827,7.0827,7.0827,7.0827,7.0827,0.0,7.0827,7.0827,7.0827,7.0827,7.0827,7.0827,7.0827,7.0827,7.0827,7.0827,7.0827,7.0827,7.0827,7.0827,7.0827,7.0827,6.9705,6.8796,6.8796,6.8796,6.8796,6.8796,6.8796,6.8796,6.8796,6.8796,6.8796,6.8796,6.8796,6.8796,6.8796,6.8796,6.8796,6.8796,6.8796,6.8796,6.8796,6.8796,6.8796,6.8796,6.8796,6.8796,6.8777,6.8119,6.7984,0.0,0.0,0.0,0.0,0.0,0.0,0.0,0.0,0.0,0.0,0.0,6.82,6.82,0.0,6.8935,6.9341,6.9398,6.9551,6.9996,7.0054,6.9899,6.9454,6.9396,6.957,7.0015,7.0054,7.0228,7.0614,7.0653,7.0827,7.1272,7.1324,7.1354,7.1354,7.1385,7.1395,7.1395,7.1395,7.1395,7.1395,7.1364,7.1354,7.1354,7.1322,7.1291,7.1291,7.1291,7.1291,7.1291,7.1291,7.1291,7.1291,7.1291,7.1291,7.1291,7.1291,7.1291,7.1291,7.1291,7.1291,7.1291,7.1291,7.1291,7.1291,7.1291,7.1291,7.1291,7.1291,7.1291,7.1291,7.1291,7.1291,7.1291,7.1291,7.1291,7.1291,7.1291,7.1291,7.1291,7.1291,7.1291,7.1291,7.1291,7.0614,7.0054,7.0054,7.0054,7.0054,7.0054,7.0054,7.0054,7.0054,7.0054,7.0054,7.0054,7.0054,7.0054,7.0054,7.0054,7.0054,7.0054,7.0054,7.0054,7.0054,7.0054,7.0054,7.0054,7.0054,7.0054,7.0054,7.0054,6.9821,0.0,0.0,0.0,0.0,0.0,0.0,0.0,6.7223,6.7822,6.7762,6.8448,6.9028,6.9028,6.9164,6.9493,7.015,7.0247,7.0498,7.1195,7.1291,7.104,7.0344,7.0247,7.0518,7.1233,7.1291,7.1291,7.1291,7.1291,7.1291,7.1291,7.1291,7.1291,7.1291,7.1291,7.1291,7.1291,7.1291,7.1291,7.1291,7.1291,7.1291,7.1291,7.1291,7.1291,7.1291,7.1291,7.1291,7.1291,7.1291,7.1291,7.1291,7.1291,7.1291,7.1291,7.1291,7.1291,7.1291,7.1291,7.1291,7.1291,7.1291,7.1291,7.1291,7.1291,7.1291,7.1291,7.1291,7.1291,7.1291,7.1291,7.1291,7.1291,7.1291,7.1291,7.1291,7.1291,7.1291,7.1291,7.1291,7.1291,7.1291,7.1291,7.1291,7.1291,7.1291,7.1291,7.1291,7.1291,7.1291,7.1291,7.1291,7.1291,7.1291,7.1291,7.1291,7.1291,7.1291,7.1291,7.1291,7.1291,7.1291,7.1291,7.1291,7.1291,7.1291,7.1291,7.1291,7.1313,7.1336,7.1336,7.0959,6.6331,6.6264,6.6225,6.6225,6.6805,6.7366,0.0,6.8052,6.8661,6.8661,6.9299,6.986,6.986,7.0498,7.104,7.1137,7.1156,7.1195,7.1291,7.1291,7.1253,7.1175,7.1156,7.1195,7.1291,7.1291,7.1291,7.1291,7.1291,7.1291,7.1291,7.1291,7.1291,7.1291,7.1291,7.1291,7.1291,7.1291,7.1291,7.1291,7.1291,7.1291,7.1291,7.1291,7.1291,7.1291,7.1291,7.1291,7.1291,7.1291,7.1291,7.1291,7.1291,7.1291,7.1291,7.1291,7.1291,7.1291,7.1291,7.1291,7.1291,7.1291,7.1291,7.1291,7.1291,7.1291,7.1291,7.1291,7.1291,7.1291,7.1291,7.1291,7.1291,7.1291,7.1291,7.1291,7.1291,7.1291,7.1291,7.1291,7.1291,7.1291,7.1291,7.1291,7.1291,7.1291,7.1291,7.1291,7.1291,7.1291,7.1291,7.1291,7.1291,7.1291,7.1291,7.1291,7.1291,7.1291,7.1291,7.1291,7.1291,7.1291,7.1291,7.1291,7.1291,7.1291,7.1291,7.1291,7.1358,7.1476,7.1476,7.1437,6.6874,6.7347,6.7713,6.7713,6.7984,6.8255,6.8255,6.8893,6.9493,6.9493,7.017,7.075,7.075,7.104,7.1291,7.1291,7.1291,7.1291,7.1291,7.1291,7.1291,7.1291,7.1291,7.1291,7.1291,7.1291,7.1291,7.1291,7.1291,7.1291,7.1291,7.1291,7.1291,7.1291,7.1291,7.1291,7.1291,7.1291,7.1543,7.2065,7.2065,7.2316,7.28,7.28,7.28,7.2781,7.2278,7.2065,7.2026,7.1504,7.1291,7.1291,7.1291,7.1291,7.1291,7.1291,7.1291,7.1291,7.1291,7.1291,7.1291,7.1291,7.1291,7.1291,7.1291,7.1291,7.1291,7.1291,7.1291,7.1291,7.1291,7.1291,7.1291,7.1291,7.1291,7.1291,7.1291,7.1291,7.1291,7.1291,7.1291,7.1291,7.1291,7.1291,7.1291,7.1291,7.1291,7.1291,7.1291,7.1291,7.1291,7.1291,7.1291,7.1291,7.1291,7.1291,7.1291,7.1291,7.1291,7.1291,7.1291,7.1291,7.1291,7.1291,7.1291,7.1291,7.1291,7.1291,7.1368,7.1501,7.1501,7.1568,6.7627,6.8332,6.8796,6.8796,6.897,6.9125,6.9125,6.9763,7.0363,7.0363,7.0847,7.1291,7.1291,7.1291,7.1291,7.1291,7.1291,7.1291,7.1291,7.1291,7.1291,7.1291,7.1291,7.1388,7.164,7.1446,7.1291,7.1291,7.1523,7.1659,7.1659,7.1891,7.2026,7.2026,7.2026,7.2026,7.2026,7.2026,7.2336,7.2955,7.2955,7.3284,7.3902,7.3902,7.3902,7.3864,7.3226,7.2955,7.2916,7.2278,7.2026,7.2026,7.2026,7.1872,7.1659,7.1659,7.1504,7.1291,7.1291,7.1291,7.1291,7.1291,7.1291,7.1291,7.1291,7.1291,7.1291,7.1291,7.1291,7.1291,7.1291,7.1291,7.1291,7.1291,7.1291,7.1291,7.1291,7.1291,7.1291,7.1291,7.1291,7.1291,7.1291,7.1291,7.1291,7.1291,7.1291,7.1291,7.1291,7.1291,7.1291,7.1291,7.1291,7.1291,7.1291,7.1291,7.1291,7.1291,7.1291,7.1291,7.1291,7.1291,7.1291,7.1291,7.1291,7.1291,7.1291,7.1291,7.1368,7.1501,7.1529,7.1644,6.8526,6.8777,6.8796,6.8796,6.9396,6.9957,6.9957,7.0634,7.1253,7.1253,7.1272,7.1291,7.1291,7.1291,7.1291,7.1291,7.1291,7.1291,7.1291,7.1291,7.1291,7.1291,7.1291,7.162,7.2471,7.1794,7.1291,7.1291,7.2084,7.2568,7.2568,7.3361,7.3825,7.3825,7.3825,7.3825,7.3825,7.3825,7.3825,7.3864,7.3864,7.3864,7.3902,7.3902,7.3902,7.3902,7.3864,7.3864,7.3864,7.3825,7.3825,7.3825,7.3825,7.3303,7.2568,7.2568,7.2026,7.1291,7.1291,7.1291,7.1291,7.1291,7.1291,7.1291,7.1291,7.1291,7.1291,7.1291,7.1291,7.1291,7.1291,7.1291,7.1291,7.1291,7.1291,7.1291,7.1291,7.1291,7.1291,7.1291,7.1291,7.1291,7.1291,7.1291,7.1291,7.1291,7.1291,7.1291,7.1291,7.1291,7.1291,7.1291,7.1291,7.1291,7.1291,7.1291,7.1291,7.1291,7.1291,7.1291,7.1291,7.1291,7.1291,7.1291,7.1291,7.1291,7.1291,7.1291,7.1368,7.1509,7.1641,7.1735,6.9512,7.0015,7.046,7.046,7.0653,7.0866,7.0866,7.1079,7.1291,7.1291,7.1291,7.1291,7.1291,7.1291,7.1291,7.1291,7.1291,7.1291,7.1291,7.1291,7.1291,7.1291,7.1814,7.2278,7.2568,7.2336,7.2394,7.2974,7.3303,7.3458,7.3458,7.3748,7.3902,7.3902,7.3902,7.3902,7.3902,7.3902,7.4173,7.4695,7.5276,7.5566,7.5566,7.5566,7.5566,7.5527,7.4947,7.4695,7.4657,7.4115,7.3902,7.3902,7.3902,7.3728,7.3458,7.3458,7.2916,7.2084,7.1504,7.1291,7.1291,7.1291,7.1291,7.1291,7.1291,7.1291,7.1291,7.1291,7.1291,7.1291,7.1291,7.1291,7.1291,7.1291,7.1291,7.1291,7.1291,7.1291,7.1291,7.1291,7.1291,7.1291,7.1291,7.1291,7.1291,7.1291,7.1291,7.1291,7.1291,7.1291,7.1291,7.1291,7.1291,7.1291,7.1291,7.1291,7.1291,7.1291,7.1291,7.1291,7.1291,7.1291,7.1291,7.1291,7.1291,7.1291,7.1291,7.1291,7.1368,7.1509,7.1641,7.174,7.0382,7.0866,7.1291,7.1291,7.1291,7.1291,7.1291,7.1291,7.1291,7.1291,7.1291,7.1291,7.1291,7.1291,7.1291,7.1291,7.1291,7.1291,7.1291,7.1291,7.1427,7.1736,7.2258,7.2839,7.3438,7.3496,7.3612,7.3883,7.4173,7.4328,7.4328,7.4618,7.4792,7.4792,7.4792,7.4792,7.4792,7.4792,7.5044,7.5566,7.6127,7.6397,7.6397,7.6397,7.6397,7.6359,7.5817,7.5566,7.5527,7.5005,7.4792,7.4792,7.4792,7.4599,7.4328,7.4328,7.3786,7.2935,7.2065,7.1562,7.1291,7.1291,7.1291,7.1291,7.1291,7.1291,7.1291,7.1291,7.1291,7.1291,7.1291,7.1291,7.1291,7.1291,7.1291,7.1291,7.1291,7.1291,7.1291,7.1291,7.1291,7.1291,7.1291,7.1291,7.1291,7.1291,7.1291,7.1291,7.1291,7.1291,7.1291,7.1291,7.1291,7.1291,7.1291,7.1291,7.1291,7.1291,7.1291,7.1291,7.1291,7.1291,7.1291,7.1291,7.1291,7.1291,7.1291,7.1291,7.1327,7.1425,7.1566,7.1658,7.1079,7.1291,7.1291,7.1291,7.1291,7.1291,7.1291,7.1291,7.1291,7.1291,7.1291,7.1291,7.1291,7.1291,7.1291,7.1291,7.1291,7.1291,7.1291,7.133,7.1659,7.2491,7.2684,7.3361,7.4935,7.514,7.485,7.4096,7.4734,7.5167,7.5167,7.5953,7.6397,7.6397,7.6397,7.6397,7.6397,7.6397,7.6397,7.6397,7.6397,7.6397,7.6397,7.6397,7.6397,7.6397,7.6397,7.6397,7.6397,7.6397,7.6397,7.6397,7.6397,7.5895,7.5167,7.5167,7.4657,7.3844,7.3013,7.2123,7.1369,7.1369,7.133,7.1291,7.1291,7.1291,7.1291,7.1291,7.1291,7.1291,7.1291,7.1291,7.1291,7.1291,7.1291,7.1291,7.1291,7.1291,7.1291,7.1291,7.1291,7.1291,7.1291,7.1291,7.1291,7.1291,7.1291,7.1291,7.1291,7.1291,7.1291,7.1291,7.1291,7.1291,7.1291,7.1291,7.1291,7.1291,7.1291,7.1291,7.1291,7.1291,7.1291,7.1291,7.1291,7.1291,7.1291,7.1291,7.1291,7.1302,7.1434,7.1501,7.1233,7.1291,7.1291,7.1291,7.1291,7.1291,7.1291,7.1291,7.1291,7.1291,7.1291,7.1291,7.1291,7.1291,7.1291,7.1291,7.1291,7.1291,7.1291,7.1852,7.2355,7.2568,7.3709,7.4637,7.5063,7.5701,7.5972,7.5779,7.5953,7.6069,7.6069,7.6281,7.6397,7.6397,7.6397,7.6397,7.6397,7.6397,7.6397,7.6397,7.6397,7.6397,7.6397,7.6397,7.6397,7.6397,7.6397,7.6397,7.6397,7.6397,7.6397,7.6397,7.6397,7.6262,7.6069,7.6069,7.5527,7.4773,7.4541,7.3496,7.2278,7.2278,7.1833,7.1291,7.1291,7.1291,7.1291,7.1291,7.1291,7.1291,7.1291,7.1291,7.1291,7.1291,7.1291,7.1291,7.1291,7.1291,7.1291,7.1291,7.1291,7.1291,7.1291,7.1291,7.1291,7.1291,7.1291,7.1291,7.1291,7.1291,7.1291,7.1291,7.1291,7.1291,7.1291,7.1291,7.1291,7.1291,7.1291,7.1291,7.1291,7.1291,7.1291,7.1291,7.1291,7.1291,7.1291,7.1291,7.1291,7.1302,7.1434,7.1501,7.1291,7.1291,7.1291,7.1291,7.1291,7.1291,7.1291,7.1291,7.1291,7.1291,7.1291,7.1291,7.1291,7.1291,7.1291,7.1291,7.1291,7.1291,7.1291,7.2046,7.2742,7.3129,7.4309,7.5256,7.5624,7.6107,7.6397,7.6397,7.6397,7.6397,7.6397,7.6397,7.6397,7.6397,7.6397,7.6397,7.6397,7.6397,7.6397,7.6397,7.6397,7.6397,7.6397,7.6397,7.6397,7.6397,7.6397,7.6397,7.6397,7.6397,7.6397,7.6397,7.6397,7.6397,7.6397,7.6397,7.6088,7.5662,7.5662,7.4811,7.3651,7.3284,7.2839,7.2433,7.2433,7.2433,7.2355,7.1968,7.1872,7.1775,7.1407,7.1291,7.1291,7.1291,7.1291,7.1291,7.1291,7.1291,7.1291,7.1291,7.1291,7.1291,7.1291,7.1291,7.1291,7.1291,7.1291,7.1291,7.1291,7.1291,7.1291,7.1291,7.1291,7.1291,7.1291,7.1291,7.1291,7.1291,7.1291,7.1291,7.1291,7.1291,7.1291,7.1291,7.1291,7.1291,7.1291,7.1291,7.1291,7.1302,7.1388,7.161,7.1291,7.1291,7.1291,7.1291,7.1291,7.1291,7.1291,7.1291,7.1291,7.1291,7.1291,7.1291,7.1291,7.1291,7.1291,7.1291,7.1291,7.1291,7.1291,7.2142,7.3051,7.3806,7.4715,7.5566,7.632,7.6397,7.6397,7.6397,7.6397,7.6397,7.6397,7.6397,7.6397,7.6397,7.6397,7.6397,7.6397,7.6397,7.6397,7.6397,7.6397,7.6397,7.6397,7.6397,7.6397,7.6397,7.6397,7.6397,7.6397,7.6397,7.6397,7.6397,7.6397,7.6397,7.6397,7.6397,7.6397,7.6397,7.6397,7.5914,7.514,7.4328,7.3999,7.3902,7.3902,7.3902,7.3748,7.2993,7.2761,7.2607,7.1833,7.164,7.162,7.1504,7.1465,7.1446,7.1311,7.1291,7.1291,7.128,7.1291,7.1291,7.1269,7.128,7.128,7.1269,7.1269,7.1269,7.1269,7.128,7.128,7.128,7.1269,7.1269,7.128,7.128,7.128,7.1291,7.1291,7.1291,7.1291,7.1291,7.1291,7.1291,7.1291,7.1291,7.1291,7.1291,7.1291,7.1291,7.1427,7.1872,7.1291,7.1291,7.1291,7.1291,7.1291,7.1291,7.1291,7.1291,7.1291,7.1291,7.1291,7.1291,7.1291,7.1291,7.1291,7.1291,7.1291,7.1291,7.1291,7.2665,7.3728,7.3883,7.5256,7.6223,7.6378,7.6397,7.6397,7.6397,7.6397,7.6397,7.6397,7.6397,7.6397,7.6397,7.6397,7.6397,7.6397,7.6397,7.6397,7.6397,7.6397,7.6397,7.6397,7.6397,7.6397,7.6397,7.6397,7.6397,7.6397,7.6397,7.6397,7.6397,7.6397,7.6397,7.6397,7.6397,7.6397,7.6397,7.6397,7.6301,7.603,7.5179,7.4444,7.3902,7.3902,7.3902,7.3864,7.3728,7.367,7.3632,7.3496,7.3458,7.3264,7.2549,7.2375,7.2181,7.1465,7.1291,7.128,7.1236,7.1258,7.1258,7.1154,7.119,7.1201,7.1142,7.113,7.113,7.113,7.119,7.1224,7.1224,7.1166,7.1154,7.1213,7.1224,7.1247,7.1291,7.1291,7.1291,7.1291,7.1291,7.1291,7.1291,7.1291,7.1291,7.1291,7.1291,7.1291,7.1311,7.2046,7.2452,7.1291,7.1291,7.1291,7.1291,7.1291,7.1291,7.1291,7.1291,7.1291,7.1291,7.1291,7.1291,7.1291,7.1291,7.1291,7.1291,7.1291,7.1291,7.1291,7.2413,7.34,7.3844,7.4986,7.5895,7.6359,7.6397,7.6397,7.6397,7.6397,7.6397,7.6397,7.6397,7.6397,7.6397,7.6397,7.6397,7.6397,7.6397,7.6397,7.6397,7.6397,7.6397,7.6397,7.6397,7.6397,7.6397,7.6397,7.6397,7.6397,7.6397,7.6397,7.6397,7.6397,7.6397,7.6397,7.6397,7.6397,7.6397,7.6397,7.6397,7.632,7.5914,7.5527,7.5198,7.5198,7.5198,7.5102,7.4657,7.4521,7.4425,7.4018,7.3902,7.3786,7.338,7.3284,7.3032,7.2162,7.1946,7.1777,7.129,7.1201,7.1178,7.1106,7.113,7.1142,7.1106,7.1106,7.1106,7.1106,7.1106,7.1118,7.1142,7.1118,7.1118,7.1154,7.1154,7.1166,7.119,7.1201,7.1201,7.1201,7.1201,7.1213,7.1247,7.1247,7.1269,7.1291,7.1291,7.1523,7.1988,7.2413,7.3071,7.1291,7.1291,7.1291,7.1291,7.1291,7.1291,7.1291,7.1291,7.1291,7.1291,7.1291,7.1291,7.1291,7.1291,7.1291,7.1291,7.1291,7.1291,7.1291,7.2046,7.2916,7.3806,7.4607,7.5426,7.6289,7.6386,7.6386,7.6386,7.6397,7.6397,7.6397,7.6397,7.6397,7.6397,7.6397,7.6397,7.6397,7.6397,7.6397,7.6397,7.6397,7.6397,7.6397,7.6397,7.6397,7.6397,7.6397,7.6397,7.6397,7.6397,7.6397,7.6397,7.6397,7.6397,7.6397,7.6397,7.6397,7.6386,7.6386,7.6374,7.6362,7.6362,7.6386,7.6397,7.6397,7.6397,7.625,7.5542,7.5357,7.519,7.4552,7.4378,7.434,7.4166,7.3972,7.3663,7.2979,7.2642,7.2259,7.1571,7.1246,7.1093,7.1068,7.1068,7.1068,7.1056,7.1056,7.1056,7.1056,7.1018,7.1005,7.1056,7.1056,7.1068,7.1081,7.1081,7.1081,7.1093,7.1106,7.1106,7.1106,7.1106,7.113,7.1178,7.119,7.1213,7.1258,7.1269,7.1745,7.2584,7.2769,7.369,7.1291,7.1291,7.1291,7.1291,7.1291,7.1291,7.1291,7.1291,7.1291,7.1291,7.1291,7.1291,7.1291,7.1291,7.1291,7.1291,7.1291,7.1291,7.1291,7.2046,7.2916,7.3806,7.4572,7.5347,7.6217,7.6313,7.6313,7.6313,7.6374,7.6397,7.6397,7.6397,7.6397,7.6397,7.6397,7.6397,7.6397,7.6397,7.6397,7.6397,7.6397,7.6397,7.6397,7.6397,7.6397,7.6397,7.6397,7.6397,7.6397,7.6397,7.6397,7.6397,7.6397,7.6397,7.6397,7.6397,7.6362,7.6313,7.6313,7.6276,7.6212,7.6212,7.6301,7.6397,7.6397,7.6362,7.6294,7.6217,7.6147,7.6076,7.6019,7.598,7.5787,7.4996,7.4244,7.3703,7.3626,7.297,7.2366,7.2225,7.1608,7.1068,7.0939,7.0965,7.0992,7.0925,7.0912,7.0912,7.0912,7.0912,7.0912,7.0912,7.0912,7.0939,7.1005,7.1018,7.103,7.1093,7.1106,7.1106,7.1106,7.1106,7.1106,7.1106,7.1106,7.1118,7.1118,7.119,7.1657,7.2527,7.3377,7.4251,7.1123,7.1247,7.1236,7.119,7.1178,7.119,7.1236,7.1247,7.1258,7.1291,7.1269,7.1258,7.1291,7.1269,7.1258,7.1291,7.1291,7.1291,7.1291,7.1601,7.2131,7.2967,7.3794,7.4589,7.5382,7.5929,7.6238,7.6238,7.6263,7.6276,7.6276,7.6362,7.6386,7.635,7.6386,7.6397,7.6397,7.6397,7.6397,7.6397,7.6397,7.6397,7.6397,7.6397,7.6397,7.6397,7.6362,7.6338,7.6338,7.6301,7.6276,7.6276,7.6276,7.6276,7.6276,7.6276,7.6263,7.6238,7.6238,7.6225,7.6198,7.6198,7.6238,7.6276,7.6276,7.6263,7.6238,7.6238,7.6212,7.6198,7.6198,7.6198,7.6121,7.5774,7.5446,7.506,7.4539,7.4115,7.369,7.3195,7.2359,7.1755,7.1701,7.1272,7.0925,7.0898,7.0898,7.0898,7.0898,7.0898,7.0898,7.0898,7.0898,7.0912,7.0939,7.0939,7.0952,7.0979,7.0979,7.0979,7.0979,7.0979,7.1005,7.1043,7.1043,7.1056,7.1106,7.1651,7.2377,7.3227,7.4149,7.5004,7.0649,7.0985,7.1166,7.1118,7.1106,7.1118,7.1166,7.1178,7.119,7.1236,7.1201,7.119,7.1236,7.1201,7.119,7.1236,7.1258,7.1269,7.1269,7.128,7.1695,7.2758,7.3411,7.4166,7.5163,7.5806,7.6172,7.6198,7.6198,7.6185,7.6172,7.6276,7.6326,7.6276,7.6313,7.635,7.635,7.635,7.635,7.635,7.635,7.635,7.635,7.635,7.635,7.6338,7.6288,7.6276,7.6263,7.6212,7.6198,7.6198,7.6198,7.6198,7.6198,7.6198,7.6185,7.6159,7.6159,7.6145,7.6131,7.6131,7.6131,7.6131,7.6131,7.6145,7.6159,7.6159,7.6164,7.6131,7.6131,7.6131,7.6131,7.6131,7.6131,7.5977,7.5361,7.4992,7.4599,7.404,7.2998,7.2187,7.2187,7.1475,7.0898,7.0898,7.0898,7.0898,7.0898,7.0898,7.0898,7.0898,7.0898,7.0898,7.0898,7.0898,7.0898,7.0898,7.0898,7.0898,7.0898,7.0898,7.0925,7.0965,7.0965,7.0992,7.1043,7.1936,7.2823,7.3704,7.4558,7.5445,6.9902,7.0488,7.1106,7.1106,7.1106,7.1106,7.1106,7.1106,7.1106,7.1106,7.1106,7.1106,7.1106,7.1106,7.1106,7.1106,7.1166,7.1213,7.1213,7.1258,7.1927,7.3589,7.3728,7.434,7.5931,7.6104,7.6118,7.6205,7.6198,7.6172,7.6104,7.6178,7.6198,7.6198,7.6198,7.6198,7.6198,7.6198,7.6198,7.6198,7.6198,7.6198,7.6198,7.6198,7.6198,7.6198,7.6198,7.6198,7.6198,7.6198,7.6198,7.6198,7.6198,7.6198,7.6198,7.6198,7.6159,7.6104,7.6104,7.6067,7.5995,7.5995,7.5995,7.5995,7.5995,7.6053,7.6104,7.6104,7.6034,7.5995,7.5995,7.5995,7.5995,7.5995,7.5995,7.5995,7.5995,7.5303,7.4707,7.4687,7.3341,7.2187,7.2187,7.1475,7.0898,7.0898,7.0898,7.0898,7.0898,7.0898,7.0898,7.0898,7.0898,7.0898,7.0898,7.0898,7.0898,7.0898,7.0898,7.0898,7.0898,7.0898,7.0898,7.0898,7.0898,7.0898,7.0898,7.1845,7.2738,7.3625,7.45,7.5369,6.8781,6.9559,7.0189,7.0151,7.0561,7.0979,7.1018,7.103,7.1043,7.1093,7.1068,7.1043,7.1093,7.1068,7.1043,7.1093,7.1118,7.113,7.113,7.1154,7.1335,7.1833,7.2873,7.3974,7.5038,7.5692,7.6039,7.6067,7.6067,7.6053,7.6039,7.6053,7.6076,7.6131,7.6172,7.6198,7.6198,7.6198,7.6198,7.6198,7.6198,7.6198,7.6198,7.6198,7.6198,7.6185,7.6145,7.6131,7.6118,7.6082,7.6067,7.6067,7.6067,7.6067,7.6067,7.6067,7.6053,7.6039,7.6039,7.601,7.5995,7.5995,7.5995,7.5995,7.5995,7.601,7.6039,7.6039,7.601,7.5995,7.5995,7.5995,7.5995,7.5995,7.5995,7.5995,7.5995,7.5784,7.5592,7.5592,7.4687,7.3726,7.3187,7.236,7.1591,7.0994,7.0898,7.0898,7.0898,7.0898,7.0898,7.0898,7.0898,7.0898,7.0898,7.0898,7.0898,7.0898,7.0898,7.0898,7.0898,7.0898,7.0898,7.0898,7.0898,7.0898,7.0898,7.2388,7.3859,7.532,7.5598,7.5875,6.7756,6.8617,6.9258,6.9219,6.984,7.0469,7.049,7.0734,7.0979,7.1018,7.0992,7.0979,7.1018,7.0992,7.0979,7.1018,7.1043,7.1068,7.1068,7.1081,7.1197,7.1448,7.269,7.3822,7.463,7.5188,7.5649,7.5976,7.5995,7.5995,7.5995,7.5995,7.6024,7.6048,7.609,7.6118,7.6118,7.6118,7.6118,7.6118,7.6118,7.6118,7.6118,7.6118,7.6118,7.6118,7.6082,7.6048,0.0,7.601,7.5995,7.5995,7.5995,7.5995,7.5995,7.5995,7.5995,7.5995,7.5995,7.5995,7.5995,7.5995,7.5995,7.5995,7.5995,7.5995,7.5995,7.5995,7.5995,7.5995,7.5995,7.5995,7.5995,7.5995,7.5995,7.5995,7.5995,7.5995,7.5995,7.5995,7.5303,7.4437,7.3649,7.2783,7.1898,7.1033,7.0898,7.0898,7.0898,7.0898,7.0898,7.0898,7.0898,7.0898,7.0898,7.0898,7.0898,7.0898,7.0898,7.0898,7.0898,7.0898,7.0898,7.0898,7.0898,7.0898,7.0898,7.2649,7.4375,7.6048,7.6048,7.6076,0.0,6.7648,6.8321,6.8321,6.8956,6.9629,6.9687,7.0283,0.0,7.0898,7.0898,7.0898,7.0898,7.0898,7.0898,7.0898,7.0952,7.0992,7.0992,7.1043,7.1358,7.2103,7.2921,7.3707,7.4457,7.4591,7.4976,7.5842,7.5918,7.5938,7.5995,7.5995,7.5995,7.5995,7.5995,7.5995,7.5995,7.5995,7.5995,7.5995,7.5995,7.5995,7.5995,7.5995,7.5995,7.5995,7.5995,7.5995,7.5995,7.5995,7.5995,7.5995,7.5938,7.5957,7.5995,7.5938,7.5957,7.5995,7.5995,7.5995,7.5995,7.5995,7.5995,7.5995,7.5995,7.5995,7.5995,7.5995,7.5995,7.5995,7.5995,7.5995,7.5995,7.5995,7.5995,7.5995,7.5995,7.5995,7.5995,7.5995,7.5303,7.4437,7.3649,7.2783,7.1898,7.1033,7.0898,7.0898,7.0898,7.0898,7.0898,7.0898,7.0898,7.0898,7.0898,7.0898,7.0898,7.0898,7.0898,7.0898,7.0898,7.0898,7.0898,7.0898,7.0898,7.0956,7.1091,7.2706,7.4361,7.5995,7.5995,7.5995,6.6128,0.0,6.7398,6.7398,6.8071,6.8879,0.0,6.986,7.0167,7.0764,7.0898,7.0898,7.0898,7.0898,7.0898,7.0898,7.0912,7.0925,7.0925,7.0939,7.1016,7.1214,7.1989,7.2572,7.2764,7.3399,7.413,7.4938,7.5014,7.5303,7.5957,7.5995,7.5995,7.5995,7.5995,7.5995,7.5995,7.5995,7.5995,7.5995,7.5995,7.5995,7.5995,7.5995,7.5995,7.5995,7.5995,7.5995,7.5995,7.5995,7.5995,7.5938,7.5265,7.5418,7.5918,7.5245,7.5438,7.5995,7.5995,7.5995,7.5995,7.5995,7.5995,7.5995,7.5995,7.5995,7.5995,7.5995,7.5995,7.5995,7.5995,7.5995,7.5995,7.5995,7.5995,7.5995,7.5995,7.5995,7.5995,7.5995,7.5303,7.4437,7.3649,7.2783,7.1898,7.1033,7.0898,7.0898,7.0898,7.0898,7.0898,7.0898,7.0898,7.0898,7.0898,7.0898,7.0898,7.0898,7.0898,7.0898,7.0898,7.0898,7.0898,7.0898,7.0898,7.1572,7.2899,7.3303,7.4361,7.5995,7.5995,7.5995,6.5897,6.6224,6.6551,6.6551,6.7186,6.8032,6.8898,6.9417,6.9937,7.0725,7.0898,7.0898,7.0898,7.0898,7.0898,7.0898,7.0898,7.0898,7.0898,7.0898,7.0898,7.0898,7.1321,7.1764,7.2149,7.2629,7.3245,7.4091,7.4149,7.4361,7.4841,7.4861,7.4861,7.4861,7.4861,7.5226,7.5995,7.5995,7.5995,7.5995,7.5995,7.5995,7.5995,7.5995,7.5995,7.5995,7.5995,7.5765,7.5399,7.5399,7.5188,7.4822,7.4341,7.4437,7.4841,7.4745,7.4995,7.5457,7.5861,7.5995,7.5995,7.5995,7.5995,7.5995,7.5995,7.5995,7.5995,7.5995,7.5995,7.5995,7.5995,7.5995,7.5995,7.5995,7.5995,7.5995,7.5995,7.5995,7.588,7.5476,7.5014,7.4322,7.311,7.2514,7.1898,7.1033,7.0898,7.0898,7.0898,7.0898,7.0898,7.0898,7.0898,7.0898,7.0898,7.0898,7.0898,7.0898,7.0898,7.0898,7.0898,7.0898,7.0898,7.0898,7.0898,7.1552,7.2899,7.3303,7.4168,7.5418,7.5803,7.5995,6.5897,6.5897,6.5897,6.5897,6.6397,6.7128,6.8013,6.8879,6.9725,7.0552,7.0802,7.0898,7.0898,7.0898,7.0898,7.0898,7.0898,7.0898,7.0898,7.0898,7.0898,7.0898,7.0898,7.1187,7.1918,7.1995,7.236,7.3245,7.3303,7.336,7.3481,7.3514,7.3514,7.3514,7.3514,7.4187,7.5611,7.563,7.563,7.563,7.563,7.563,7.563,7.563,7.563,7.563,7.563,7.5207,7.4534,7.4534,7.413,7.3481,7.336,7.338,7.3572,7.413,7.4399,7.4649,7.5495,7.588,7.5995,7.5995,7.5995,7.5995,7.5995,7.5995,7.5995,7.5995,7.5995,7.5995,7.5995,7.5995,7.5995,7.5995,7.5995,7.5995,7.5995,7.5899,7.5592,7.4841,7.4495,7.388,7.2437,7.2091,7.1745,7.1014,7.0898,7.0898,7.0898,7.0898,7.0898,7.0898,7.0898,7.0898,7.0898,7.0898,7.0898,7.0898,7.0898,7.0898,7.0898,7.0898,7.0898,7.0898,7.0898,7.1321,7.2187,7.3072,7.3918,7.4726,7.5592,7.5995,6.5897,6.5897,6.5897,6.5897,6.5994,6.6301,6.7109,6.7975,6.884,6.9706,7.0437,7.0898,7.0898,7.0898,7.0898,7.0898,7.0898,7.0898,7.0898,7.0898,7.0898,7.0898,7.0898,7.0956,7.1091,7.1091,7.1456,7.2322,7.2399,7.2726,7.3476,7.3514,7.3514,7.3514,7.3514,7.363,7.388,7.388,7.388,7.388,7.388,7.388,7.388,7.388,7.388,7.388,7.388,7.3822,7.3687,7.3687,7.361,7.3437,7.2687,7.286,7.3437,7.2803,7.3053,7.3803,7.463,7.538,7.5995,7.5995,7.5995,7.5995,7.5995,7.5995,7.5995,7.5995,7.5995,7.5995,7.5995,7.5995,7.5995,7.5995,7.5995,7.5995,7.5995,7.5418,7.4861,7.4726,7.3553,7.2495,7.2225,7.1591,7.1052,7.0918,7.0898,7.0898,7.0898,7.0898,7.0898,7.0898,7.0898,7.0898,7.0898,7.0898,7.0898,7.0898,7.0898,7.0898,7.0898,7.0898,7.0898,7.0898,7.0898,7.1321,7.2187,7.3072,7.3918,7.4726,7.5592,7.5995,6.5897,6.5897,6.5897,6.5897,6.5897,6.6109,6.6917,6.7763,6.8648,6.9513,7.0341,7.0898,7.0898,7.0898,7.0898,7.0898,7.0898,7.0898,7.0898,7.0898,7.0898,7.0898,7.0898,7.0898,7.0898,7.0898,7.1071,7.1475,7.1495,7.1668,7.2072,7.211,7.211,7.211,7.211,7.211,7.211,7.211,7.2572,7.3514,7.3514,7.3514,7.3514,7.3514,7.3514,7.3514,7.3514,7.3226,7.2803,7.2803,7.2514,7.2072,7.1648,7.1745,7.211,7.2168,7.2745,7.3553,7.3918,7.4322,7.4649,7.4649,7.4649,7.4726,7.5168,7.5303,7.5399,7.5861,7.5995,7.5995,7.5995,7.5995,7.5995,7.5995,7.5995,7.5861,7.5399,7.4976,7.4437,7.3514,7.2726,7.2052,7.1572,7.1168,7.0898,7.0898,7.0898,7.0898,7.0898,7.0898,7.0898,7.0898,7.0898,7.0898,7.0898,7.0898,7.0898,7.0898,7.0898,7.0898,7.0898,7.0898,7.0898,7.0898,7.0898,7.1091,7.1495,7.236,7.3226,7.4072,7.4918,7.5553,6.584,6.5897,6.5897,6.5897,6.5897,6.6051,6.6667,6.7475,6.834,6.9225,7.0052,7.0687,7.086,7.0898,7.0898,7.0898,7.0898,7.0898,7.0898,7.0898,7.0898,7.0898,7.0898,7.0898,7.0898,7.0898,7.0898,7.0898,7.0898,7.0898,7.0898,7.0898,7.0898,7.0898,7.0898,7.0898,7.0898,7.0898,7.1572,7.2899,7.2899,7.2899,7.2899,7.2899,7.2899,7.2899,7.2899,7.2514,7.1898,7.1898,7.1495,7.0898,7.0898,7.0898,7.0975,7.1648,7.2456,7.3206,7.3206,7.3341,7.3514,7.3514,7.3514,7.361,7.4226,7.4418,7.4572,7.5226,7.5418,7.5495,7.5899,7.5995,7.5957,7.5745,7.5707,7.5457,7.4611,7.4264,7.3726,7.2437,7.2033,7.1668,7.1014,7.0898,7.0898,7.0898,7.0898,7.0898,7.0898,7.0898,7.0898,7.0898,7.0898,7.0898,7.0898,7.0898,7.0898,7.0898,7.0898,7.0898,7.0898,7.0898,7.0898,7.0898,7.0898,7.0898,7.0898,7.1764,7.2649,7.3533,7.4341,7.5168,6.5686,6.5897,6.5897,6.5897,6.5897,6.5917,6.5974,6.6609,6.7436,6.8321,6.9186,7.0014,7.0764,7.0898,7.0898,7.0898,7.0898,7.0898,7.0898,7.0898,7.0898,7.0898,7.0898,7.0898,7.0898,7.0898,7.0898,7.0898,7.0898,7.0898,7.0898,7.0898,7.0898,7.0898,7.0898,7.0898,7.0898,7.0898,7.0956,7.1091,7.1091,7.1091,7.1091,7.1091,7.1091,7.1091,7.1091,7.1052,7.0994,7.0994,7.0956,7.0898,7.0898,7.0898,7.0918,7.0975,7.1552,7.2283,7.2283,7.2822,7.3514,7.3514,7.3514,7.3514,7.3572,7.3591,7.3596,7.3654,7.3687,7.4053,7.5611,7.5995,7.5803,7.4995,7.4803,7.4572,7.3764,7.2956,7.2341,7.2206,7.1552,7.0975,7.0918,7.0898,7.0898,7.0898,7.0898,7.0898,7.0898,7.0898,7.0898,7.0898,7.0898,7.0898,7.0898,7.0898,7.0898,7.0898,7.0898,7.0898,7.0898,7.0898,7.0898,7.0898,7.0898,7.0898,7.0898,7.1764,7.2649,7.3533,7.4341,7.5168,6.4993,6.5493,6.5897,6.5897,6.5897,6.5897,6.5897,6.6513,6.7186,6.7513,6.8725,6.9956,7.0744,7.0898,7.0898,7.0898,7.0898,7.0898,7.0898,7.0898,7.0898,7.0898,7.0898,7.0898,7.0898,7.0898,7.0898,7.0898,7.0898,7.0898,7.0898,7.0898,7.0898,7.0898,7.0898,7.0898,7.0898,7.0898,7.0898,7.0898,7.0898,7.0898,7.0898,7.0898,7.0898,7.0898,7.0898,7.0898,7.0898,7.0898,7.0898,7.0898,7.0898,7.0898,7.0898,7.0898,7.111,7.1379,7.1379,7.161,7.1879,7.1879,7.1879,7.1975,7.2533,7.2687,7.2803,7.336,7.3514,7.3649,7.4284,7.4457,7.4361,7.4034,7.3957,7.3726,7.2879,7.2418,7.2033,7.1495,7.1129,7.0898,7.0898,7.0898,7.0898,7.0898,7.0898,7.0898,7.0898,7.0898,7.0898,7.0898,7.0898,7.0898,7.0898,7.0898,7.0898,7.0898,7.0898,7.0898,7.0898,7.0898,7.0898,7.0898,7.0898,7.0898,7.0898,7.1225,7.1841,7.2706,7.3572,7.4399,6.4532,6.5243,6.5897,6.5897,6.5897,6.5897,6.5897,6.632,6.6782,6.7051,6.8494,6.9956,7.0744,7.0898,7.0898,7.0898,7.0898,7.0898,7.0898,7.0898,7.0898,7.0898,7.0898,7.0898,7.0898,7.0898,7.0898,7.0898,7.0898,7.0898,7.0898,7.0898,7.0898,7.0898,7.0898,7.0898,7.0898,7.0898,7.0898,7.0898,7.0898,7.0898,7.0898,7.0898,7.0898,7.0898,7.0898,7.0898,7.0898,7.0898,7.0898,7.0898,7.0898,7.0898,7.0898,7.0898,7.0898,7.0898,7.0898,7.0898,7.0898,7.0898,7.0898,7.1014,7.161,7.1783,7.1918,7.2514,7.2687,7.2687,7.2687,7.3091,7.3437,7.3149,7.3091,7.286,7.1975,7.1783,7.161,7.1014,7.0898,7.0898,7.0898,7.0898,7.0898,7.0898,7.0898,7.0898,7.0898,7.0898,7.0898,7.0898,7.0898,7.0898,7.0898,7.0898,7.0898,7.0898,7.0898,7.0898,7.0898,7.0898,7.0898,7.0898,7.0898,7.0898,7.0898,7.0898,7.1341,7.2206,7.2803,7.3668,6.4359,6.5224,6.5878,6.5897,6.5897,6.5897,6.5897,6.5897,6.6128,6.6917,6.8475,6.9937,7.0744,7.0898,7.0898,7.0898,7.0898,7.0898,7.0898,7.0898,7.0898,7.0898,7.0898,7.0898,7.0898,7.0898,7.0898,7.0898,7.0898,7.0898,7.0898,7.0898,7.0898,7.0898,7.0898,7.0898,7.0898,7.0898,7.0898,7.0898,7.0898,7.0898,7.0898,7.0898,7.0898,7.0898,7.0898,7.0898,7.0898,7.0898,7.0898,7.0898,7.0898,7.0898,7.0898,7.0898,7.0898,7.0898,7.0898,7.0898,7.0898,7.0898,7.0898,7.0898,7.0898,7.0898,7.0898,7.0898,7.0898,7.0898,7.0898,7.2187,7.3264,7.2379,7.2187,7.1937,7.1091,7.0898,7.0898,7.0898,7.0898,7.0898,7.0898,7.0898,7.0898,7.0898,7.0898,7.0898,7.0898,7.0898,7.0898,7.0898,7.0898,7.0898,7.0898,7.0898,7.0898,7.0898,7.0898,7.0898,7.0898,7.0898,7.0898,7.0898,7.0898,7.0898,7.0898,7.0898,7.1341,7.2187,7.2187,7.3091,6.3455,6.432,6.5128,6.5743,6.5897,6.5897,6.5897,6.5897,6.6128,6.6917,6.7994,6.9052,6.9898,7.0514,7.0898,7.0898,7.0898,7.0898,7.0898,7.0898,7.0898,7.0898,7.0898,7.0898,7.0898,7.0898,7.0898,7.0898,7.0898,7.0898,7.0898,7.0898,7.0898,7.0898,7.0898,7.0898,7.0898,7.0898,7.0898,7.0898,7.0898,7.0898,7.0898,7.0898,7.0898,7.0898,7.0898,7.0898,7.0898,7.0898,7.0898,7.0898,7.0898,7.0898,7.0898,7.0898,7.0898,7.0898,7.0898,7.0898,7.0898,7.0898,7.0898,7.0898,7.0898,7.0898,7.0898,7.0898,7.0898,7.0898,7.0898,7.1283,7.161,7.1341,7.1283,7.1206,7.0956,7.0898,7.0898,7.0898,7.0898,7.0898,7.0898,7.0898,7.0898,7.0898,7.0898,7.0898,7.0898,7.0898,7.0898,7.0898,7.0898,7.0898,7.0898,7.0898,7.0898,7.0898,7.0898,7.0898,7.0898,7.0898,7.0898,7.0898,7.0898,7.0898,7.0898,7.0898,7.1033,7.1302,7.1898,7.2456,6.2685,6.3435,6.4301,6.5166,6.5378,6.5474,6.582,6.5897,6.6128,6.6917,6.7513,6.8263,6.9475,7.011,7.0533,7.0841,7.0898,7.0898,7.0898,7.0898,7.0898,7.0898,7.0898,7.0898,7.0898,7.0898,7.0898,7.0898,7.0898,7.0898,7.0898,7.0898,7.0898,7.0898,7.0898,7.0898,7.0898,7.0898,7.0898,7.0898,7.0898,7.0898,7.0898,7.0898,7.0898,7.0898,7.0898,7.0898,7.0898,7.0898,7.0898,7.0898,7.0898,7.0898,7.0898,7.0898,7.0898,7.0898,7.0898,7.0898,7.0898,7.0898,7.0898,7.0898,7.0898,7.0898,7.0898,7.0898,7.0898,7.0898,7.0898,7.0898,7.0898,7.0898,7.0898,7.0898,7.0898,7.0898,7.0898,7.0898,7.0898,7.0898,7.0898,7.0898,7.0898,7.0898,7.0898,7.0898,7.0898,7.0898,7.0898,7.0898,7.0898,7.0898,7.0898,7.0898,7.0898,7.0898,7.0898,7.0898,7.0898,7.0898,7.0898,7.0898,7.0898,7.0898,7.0898,7.0898,7.0898,7.0918,7.1437,7.186,6.2082,6.2627,6.3397,6.4282,6.4551,6.4839,6.5705,6.5897,6.6109,6.684,6.7051,6.7571,6.9167,6.959,6.9937,7.0667,7.0841,7.0898,7.0898,7.0898,7.0898,7.0898,7.0898,7.0898,7.0898,7.0898,7.0898,7.0898,7.0898,7.0898,7.0898,7.0898,7.0898,7.0898,7.0898,7.0898,7.0898,7.0898,7.0898,7.0898,7.0898,7.0898,7.0898,7.0898,7.0898,7.0898,7.0898,7.0898,7.0898,7.0898,7.0898,7.0898,7.0898,7.0898,7.0898,7.0898,7.0898,7.0898,7.0898,7.0898,7.0898,7.0898,7.0898,7.0898,7.0898,7.0898,7.0898,7.0898,7.0898,7.0898,7.0898,7.0898,7.0898,7.0898,7.0898,7.0898,7.0898,7.0898,7.0898,7.0898,7.0898,7.0898,7.0898,7.0898,7.0898,7.0898,7.0898,7.0898,7.0898,7.0898,7.0898,7.0898,7.0898,7.0898,7.0898,7.0898,7.0898,7.0898,7.0898,7.0898,7.0898,7.0898,7.0898,7.0898,7.0898,7.0898,7.0898,7.0898,7.0898,7.0898,7.0852,7.1261,6.1908,6.2235,6.2551,6.3378,6.4089,6.4839,6.5705,6.5897,6.5955,6.6109,6.6647,6.7205,6.759,6.8783,6.9763,6.9937,7.0494,7.0898,7.0898,7.0898,7.0898,7.0898,7.0898,7.0898,7.0898,7.0898,7.0898,7.0898,7.0898,7.0898,7.0898,7.0898,7.0898,7.0898,7.0898,7.0898,7.0898,7.0898,7.0898,7.0898,7.0898,7.0898,7.0898,7.0898,7.0898,7.0898,7.0898,7.0898,7.0898,7.0898,7.0898,7.0898,7.0898,7.0898,7.0898,7.0898,7.0898,7.0898,7.0898,7.0898,7.0898,7.0898,7.0898,7.0898,7.0898,7.0898,7.0898,7.0898,7.0898,7.0898,7.0898,7.0898,7.0898,7.0898,7.0898,7.0898,7.0898,7.0898,7.0898,7.0898,7.0898,7.0898,7.0898,7.0898,7.0898,7.0898,7.0898,7.0898,7.0898,7.0898,7.0898,7.0898,7.0898,7.0898,7.0898,7.0898,7.0898,7.0898,7.0898,7.0898,7.0898,7.0898,7.0898,7.0898,7.0898,7.0898,7.0898,7.0898,7.0898,7.0898,7.0578,7.0531,6.1339,6.1485,6.1678,6.2512,6.3666,6.4724,6.5166,6.559,6.5897,6.5897,6.6224,6.6628,6.7032,6.784,6.8725,6.9552,7.0052,7.0456,7.0841,7.0898,7.0898,7.0898,7.0898,7.0898,7.0898,7.0898,7.0898,7.0898,7.0898,7.0898,7.0898,7.0898,7.0898,7.0898,7.0898,7.0898,7.0898,7.0898,7.0898,7.0898,7.0898,7.0898,7.0898,7.0898,7.0898,7.0898,7.0898,7.0898,7.0898,7.0898,7.0898,7.0898,7.0898,7.0898,7.0898,7.0898,7.0898,7.0898,7.0898,7.0898,7.0898,7.0898,7.0898,7.0898,7.0898,7.0898,7.0898,7.0898,7.0898,7.0898,7.0898,7.0898,7.0898,7.0898,7.0898,7.0898,7.0898,7.0898,7.0898,7.0898,7.0898,7.0898,7.0898,7.0898,7.0898,7.0898,7.0898,7.0898,7.0898,7.0898,7.0898,7.0898,7.0898,7.0898,7.0898,7.0715,7.0608,7.0608,7.0435,7.032,7.032,7.032,7.042,7.0608,7.0608,7.0513,7.032,7.032,7.032,7.032,7.0118,7.0012,6.08,6.08,6.1012,6.1889,6.3128,6.4243,6.4532,6.5166,6.5724,6.5859,6.5897,6.609,6.6763,6.7013,6.7571,6.9013,6.9494,6.9937,7.0591,7.0802,7.0898,7.0898,7.0898,7.0898,7.0898,7.0898,7.0898,7.0898,7.0898,7.0898,7.0898,7.0898,7.0898,7.0898,7.0898,7.0898,7.0898,7.0898,7.0898,7.0898,7.0824,7.0762,7.0686,7.0686,7.0762,7.0898,7.0898,7.0898,7.0898,7.0898,7.0898,7.0898,7.0898,7.0871,7.081,7.081,7.081,7.081,7.081,7.0838,7.0898,7.0898,7.0898,7.0898,7.0898,7.0898,7.0898,7.0898,7.0898,7.0898,7.0898,7.0898,7.0898,7.0898,7.0898,7.0898,7.0898,7.0898,7.0898,7.0898,7.0898,7.0898,7.0898,7.0898,7.0898,7.0898,7.0898,7.0898,7.0898,7.0898,7.0898,7.0898,7.0838,7.081,7.081,7.0435,7.0203,7.0203,6.9887,6.9702,6.9702,6.9702,6.9833,7.0082,7.015,7.003,6.9702,6.9702,6.9702,6.9702,6.9625,6.9587,6.08,6.08,6.1012,6.1889,6.2274,6.2801,6.4262,6.4686,6.4993,6.5743,6.5897,6.5936,6.6032,6.6628,6.7167,6.7398,6.8706,6.9744,6.986,7.0456,7.0898,7.0898,7.0898,7.0898,7.0898,7.0898,7.0898,7.0898,7.0898,7.0898,7.0898,7.0898,7.0898,7.0898,7.0898,7.0898,7.0898,7.0898,7.0898,7.0898,7.0563,7.0203,6.9851,6.9851,7.0236,7.0898,7.0898,7.0898,7.0898,7.0898,7.0898,7.0898,7.0898,7.0686,7.0385,7.0385,7.0385,7.0385,7.0385,7.0608,7.0898,7.0898,7.0898,7.0898,7.0898,7.0898,7.0898,7.0898,7.0898,7.0898,7.0898,7.0898,7.0898,7.0898,7.0898,7.0898,7.0898,7.0898,7.0898,7.0898,7.0898,7.0898,7.0898,7.0898,7.0898,7.0898,7.0898,7.0898,7.0898,7.0898,7.0898,7.0898,7.0593,7.0385,7.0385,7.0012,6.9777,6.9777,6.9721,6.9702,6.9702,6.9702,6.9548,6.9263,6.9606,6.9758,6.9702,6.9702,6.9702,6.9683,6.9346,6.9176,6.08,6.08,6.0877,6.1293,6.1735,6.2293,6.3031,6.3935,6.4705,6.5089,6.5551,6.5897,6.5897,6.6186,6.6571,6.7032,6.7744,6.8417,6.8898,6.9706,7.0225,7.0225,7.0629,7.0898,7.0898,7.0898,7.0898,7.0898,7.0898,7.0898,7.0898,7.0898,7.0898,7.0898,7.0898,7.0898,7.0898,7.0671,7.0451,7.0238,7.0047,6.9869,6.9702,6.9702,6.9887,7.0238,7.0238,7.0238,7.0238,7.0238,7.0238,7.0238,7.0238,7.0118,6.9959,6.9959,6.9959,6.9959,6.9959,7.0084,7.0238,7.0238,7.0238,7.0238,7.0238,7.0238,7.0238,7.0238,7.0238,7.0238,7.0238,7.0238,7.0238,7.0238,7.0238,7.0238,7.0238,7.0578,7.0824,7.0608,7.0563,7.0498,7.0271,7.0238,7.0238,7.0238,7.0238,7.0238,7.0238,7.0238,7.0238,7.0238,7.0084,6.9959,6.9959,6.9587,6.9366,6.9366,6.9134,6.9041,6.9041,6.9041,6.893,6.8763,6.9155,6.9242,6.9041,6.9041,6.9041,6.9,6.8855,6.8763,6.08,6.08,6.08,6.08,6.1281,6.1831,6.2062,6.307,6.4089,6.4512,6.5128,6.5628,6.5859,6.5897,6.609,6.6686,6.6974,6.7321,6.7975,6.8821,6.9456,6.9667,7.0225,7.0687,7.0879,7.0898,7.0898,7.0898,7.0898,7.0898,7.0898,7.0898,7.0898,7.0898,7.0898,7.0838,7.0748,7.0353,6.9941,6.9548,6.9548,6.9488,6.9387,6.9387,6.9387,6.9407,6.9606,6.9702,6.9702,6.9702,6.9702,6.9702,6.9702,6.9625,6.9548,6.9548,6.9548,6.9548,6.9548,6.9606,6.9702,6.9702,6.9702,6.9702,6.9702,6.9702,6.9702,6.9702,6.9702,6.9702,6.9702,6.9702,6.9702,6.9702,6.9702,6.9702,6.9702,7.0169,7.0517,7.0203,7.0152,7.0047,6.9758,6.9702,6.9702,6.9702,6.9702,6.9702,6.9702,6.9702,6.9702,6.9702,6.9606,6.9548,6.9548,6.9176,6.8952,6.8952,6.8684,6.8481,6.8481,6.8481,6.8481,6.8481,6.8809,6.8809,6.8481,6.8481,6.8481,6.8481,6.8481,6.8481,6.08,6.08,6.08,6.08,6.0819,6.1069,6.1908,6.2178,6.2666,6.4262,6.4647,6.4916,6.5743,6.5897,6.5897,6.5955,6.659,6.7109,6.7148,6.7917,6.8783,6.961,6.9744,7.0052,7.0821,7.0898,7.0898,7.0898,7.0898,7.0898,7.0898,7.0898,7.0898,7.0898,7.0898,7.0719,7.0318,6.9923,6.9528,6.9134,6.9134,6.893,6.856,6.856,6.856,6.8589,6.9366,6.9702,6.9702,6.9702,6.9702,6.9702,6.9702,6.9487,6.9134,6.9134,6.9134,6.9134,6.9134,6.9387,6.9702,6.9702,6.9702,6.9702,6.9702,6.9702,6.9702,6.9702,6.9702,6.9702,6.9702,6.9702,6.9702,6.9702,6.9702,6.9702,6.9702,6.9721,6.9758,6.974,6.9721,6.9721,6.9702,6.9702,6.9702,6.9702,6.9702,6.9702,6.9702,6.9702,6.9702,6.9702,6.9366,6.9134,6.9134,6.8763,6.853,6.853,6.8506,6.8481,6.8481,6.8481,6.8481,6.8481,6.853,6.853,6.8481,6.8481,6.8481,6.8481,6.8481,6.8481,6.08,6.08,6.08,6.08,6.08,6.0877,6.1185,6.1697,6.2274,6.287,6.3839,6.4705,6.5013,6.5513,6.5897,6.5897,6.6128,6.632,6.632,6.7032,6.7686,6.7994,6.9013,6.9821,7.011,7.0591,7.0898,7.0898,7.0898,7.0898,7.0898,7.0898,7.0898,7.0898,7.0656,7.0203,6.9548,6.9387,6.9112,6.8712,6.8712,6.8636,6.8481,6.8481,6.8481,6.8506,6.8809,6.8949,6.8949,6.8949,6.8949,6.8949,6.8949,6.8836,6.8712,6.8712,6.8712,6.8712,6.8712,6.8809,6.8949,6.8949,6.8949,6.8949,6.8949,6.8949,6.8949,6.8949,6.8949,6.8949,6.8949,6.8949,6.8949,6.8949,6.8949,6.8949,6.8949,6.9134,6.9304,6.9304,6.9304,6.9221,6.8975,6.8949,6.8949,6.8949,6.8949,6.8949,6.8949,6.8949,6.8949,6.8949,6.8809,6.8712,6.8712,6.8583,6.8481,6.8481,6.8481,6.8481,6.8481,6.8481,6.8481,6.8481,6.8481,6.8481,6.8481,6.8481,6.8481,6.8481,6.8481,6.8481,6.08,6.08,6.08,6.08,6.08,6.08,6.08,6.1243,6.1755,6.2043,6.2993,6.3935,6.4493,6.507,6.5551,6.584,6.5897,6.5897,6.5897,6.6359,6.6801,6.7071,6.8109,6.9052,6.9648,7.0187,7.061,7.0879,7.0898,7.0898,7.0898,7.0762,7.0642,7.0498,7.0118,6.9645,6.9109,6.8975,6.8763,6.8481,6.8481,6.8481,6.8481,6.8481,6.8481,6.8481,6.8481,6.8481,6.8481,6.8481,6.8481,6.8481,6.8481,6.8481,6.8481,6.8481,6.8481,6.8481,6.8481,6.8481,6.8481,6.8481,6.8481,6.8481,6.8481,6.8481,6.8481,6.8481,6.8481,6.8481,6.8481,6.8481,6.8481,6.8481,6.8481,6.8481,6.8481,6.8712,6.8904,6.8904,6.8904,6.8813,6.8554,6.8481,6.8481,6.8481,6.8481,6.8481,6.8481,6.8481,6.8481,6.8481,6.8481,6.8481,6.8481,6.8481,6.8481,6.8481,6.8481,6.8481,6.8481,6.8481,6.8481,6.8481,6.8481,6.8481,6.8481,6.8481,6.8481,6.8481,6.8481,6.8481,0.0,0.0,0.0,6.08,6.08,6.08,6.08,6.08,6.1031,6.1889,6.2082,6.2601,6.4224,6.457,6.4878,6.5724,6.5878,6.5897,6.5897,6.5897,6.6186,6.6974,6.709,6.7763,6.9456,6.9667,7.0033,7.0788,7.0865,7.0885,7.0871,7.0498,7.0099,6.9683,6.9304,6.9091,6.9069,6.8707,6.8481,6.8481,6.8481,6.8481,6.8481,6.8481,6.8481,6.8481,6.8481,6.8481,6.8481,6.8481,6.8481,6.8481,6.8481,6.8481,6.8481,6.8481,6.8481,6.8481,6.8481,6.8481,6.8481,6.8481,6.8481,6.8481,6.8481,6.8481,6.8481,6.8481,6.8481,6.8481,6.8481,6.8481,6.8481,6.8481,6.8481,6.8481,6.8481,6.8481,6.8481,6.8481,6.8481,6.8481,6.8481,6.8481,6.8481,6.8481,6.8481,6.8481,6.8481,6.8481,6.8481,6.8481,6.8481,6.8481,6.8481,6.8481,6.8481,6.8481,6.8481,6.8481,6.8481,6.8481,6.8481,6.8481,6.8481,6.8481,6.8481,6.8481,6.8481,6.8481,6.8481,6.8481,6.08,0.0,0.0,0.0,0.0,0.0,6.08,6.08,6.0858,6.1108,6.1658,6.2235,6.2716,6.3782,6.4686,6.4916,6.5493,6.5897,6.5897,6.5897,6.5974,6.6205,6.6744,6.7282,6.7763,6.8956,6.9668,6.9601,7.0141,7.0337,7.0049,6.9923,6.9683,6.9284,6.9155,6.8975,6.8684,6.8554,6.8481,6.8481,6.8481,6.8481,6.8481,6.8481,6.8481,6.8481,6.8481,6.8481,6.8481,6.8481,6.8481,6.8481,6.8481,6.8481,6.8481,6.8481,6.8481,6.8481,6.8481,6.8481,6.8481,6.8481,6.8481,6.8481,6.8481,6.8481,6.8481,6.8481,6.8481,6.8481,6.8481,6.8481,6.8481,6.8481,6.8481,6.8481,6.8481,6.8481,6.8481,6.8481,6.8481,6.8481,6.8481,6.8481,6.8481,6.8481,6.8481,6.8481,6.8481,6.8481,6.8481,6.8481,6.8481,6.8481,6.8481,6.8481,6.8481,6.8481,6.8481,6.8481,6.8481,6.8481,6.8481,6.8481,6.8481,6.8481,6.8481,6.8481,6.8481,6.8481,6.8481,6.8481,0.0,0.0,0.0,0.0,0.0,0.0,6.08,6.08,6.08,6.08,6.1204,6.1678,6.2043,6.2897,6.3782,6.4493,6.5032,6.5474,6.584,6.5897,6.5897,6.5897,6.6301,6.6724,6.7071,6.8194,6.8957,6.9097,6.9694,6.9869,6.9468,6.9467,6.9282,6.8859,6.8859,6.8735,6.8506,6.8481,6.8481,6.8481,6.8481,6.8481,6.8481,6.8481,6.8481,6.8481,6.8481,6.8481,6.8481,6.8481,6.8481,6.8481,6.8481,6.8481,6.8481,6.8481,6.8481,6.8481,6.8481,6.8481,6.8481,6.8481,6.8481,6.8481,6.8481,6.8481,6.8481,6.8481,6.8481,6.8481,6.8481,6.8481,6.8481,6.8481,6.8481,6.8481,6.8481,6.8481,6.8481,6.8481,6.8481,6.8481,6.8481,6.8481,6.8481,6.8481,6.8481,6.8481,6.8481,6.8481,6.8481,6.8481,6.8481,6.8481,6.8481,6.8481,6.8481,6.8481,6.8481,6.8481,6.8481,6.8481,6.8481,6.8481,6.8481,6.8481,6.8481,6.8481,6.8481,6.8481,6.8481,6.8481,0.0,0.0,0.0,0.0,6.08,0.0,6.08,6.08,6.08,6.08,6.08,6.1031,6.1812,6.2043,6.2601,6.4089,6.4474,6.4897,6.5782,6.5897,6.5897,6.5897,6.5897,6.6154,6.6839,6.7376,6.7983,6.8758,6.9283,6.9407,6.9066,6.9022,6.8881,6.8506,6.8481,6.8481,6.8481,6.8481,6.8481,6.8481,6.8481,6.8481,6.8481,6.8481,6.8481,6.8481,6.8481,6.8481,6.8481,6.8481,6.8481,6.8481,6.8481,6.8481,6.8481,6.8481,6.8481,6.8481,6.8481,6.8481,6.8481,6.8481,6.8481,6.8481,6.8481,6.8481,6.8481,6.8481,6.8481,6.8481,6.8481,6.8481,6.8481,6.8481,6.8481,6.8481,6.8481,6.8481,6.8481,6.8481,6.8481,6.8481,6.8481,6.8481,6.8481,6.8481,6.8481,6.8481,6.8481,6.8481,6.8481,6.8481,6.8481,6.8481,6.8481,6.8481,6.8481,6.8481,6.8481,6.8481,6.8481,6.8481,6.8481,6.8481,6.8481,6.8481,6.8481,6.8481,6.8481,6.8481,6.8481,6.8481,0.0,0.0,0.0,0.0,6.08,0.0,6.08,6.08,6.08,6.08,6.08,6.0839,6.1012,6.1639,6.2216,6.2543,6.3724,6.4897,6.5782,6.5897,6.5897,6.5897,6.5897,6.5826,6.5666,6.6376,6.689,6.7066,6.811,6.8688,6.8613,6.8631,6.8583,6.8506,6.8481,6.8481,6.8481,6.8481,6.8481,6.8481,6.8481,6.8481,6.8481,6.8481,6.8481,6.8481,6.8481,6.8481,6.8481,6.8481,6.8481,6.8481,6.8481,6.8481,6.8481,6.8481,6.8481,6.8481,6.8481,6.8481,6.8481,6.8481,6.8481,6.8481,6.8481,6.8481,6.8481,6.8481,6.8481,6.8481,6.8481,6.8481,6.8481,6.8481,6.8481,6.8481,6.8481,6.8481,6.8481,6.8481,6.8481,6.8481,6.8481,6.8481,6.8481,6.8481,6.8481,6.8481,6.8481,6.8481,6.8481,6.8481,6.8481,6.8481,6.8481,6.8481,6.8481,6.8481,6.8481,6.8481,6.8481,6.8481,6.8481,6.8481,6.8481,6.8481,6.8481,6.8481,6.8481,6.8481,6.8481,6.8481,0.0,0.0,0.0,6.0546,0.0,0.0,0.0,6.0422,6.0293,6.0293,6.0293,6.0293,6.0293,6.067,6.1072,6.1492,6.2257,6.325,6.4511,6.5381,6.5827,6.5622,6.5608,6.5437,6.5041,6.56,6.6257,6.6889,6.79,6.8481,6.8481,6.8481,6.8481,6.8481,6.8481,6.8457,6.8383,6.8383,6.8358,6.829,6.829,6.829,6.829,6.829,6.829,6.829,6.8358,6.8383,6.8408,6.8457,6.8481,6.8481,6.8481,6.8481,6.8481,6.8481,6.8481,6.8481,6.8481,6.8481,6.8481,6.8481,6.8481,6.8481,6.8481,6.8481,6.8481,6.8481,6.8481,6.8481,6.8481,6.8481,6.8481,6.8481,6.8481,6.8481,6.8481,6.8481,6.8481,6.8481,6.8481,6.8481,6.8481,6.8481,6.8481,6.8481,6.8481,6.8481,6.8481,6.8481,6.8481,6.8481,6.8481,6.8481,6.8481,6.8481,6.8481,6.8481,6.8481,6.8481,6.8481,6.8481,6.8481,6.8481,6.8481,6.8481,6.8481,6.8481,6.8481,6.8481,6.8481,6.8481,0.0,0.0,0.0,0.0,0.0,6.0189,0.0,0.0,0.0,5.9791,5.9791,5.9791,5.9791,5.9791,5.9999,6.066,6.0887,6.1473,6.2838,6.4405,6.5369,6.5199,6.5188,6.5025,6.4628,6.5024,6.5789,6.6988,6.7818,6.8333,6.8457,6.85,6.85,6.8457,6.8457,6.8408,6.8284,6.8284,6.8208,6.8114,6.8114,6.8114,6.8114,6.8114,6.8114,6.8114,6.8215,6.8259,6.8259,6.8383,6.8432,6.8432,6.8481,6.8481,6.8481,6.8481,6.8481,6.8481,6.8481,6.8481,6.8481,6.8481,6.8481,6.8481,6.8481,6.8481,6.8481,6.8481,6.8481,6.8481,6.8481,6.8481,6.8481,6.8481,6.8481,6.8481,6.8481,6.8481,6.8481,6.8481,6.8481,6.8481,6.8481,6.8481,6.8481,6.8481,6.8481,6.8481,6.8481,6.8481,6.8481,6.8481,6.8481,6.8481,6.8481,6.8481,6.8481,6.8481,6.8481,6.8481,6.8481,6.8481,6.8481,6.8481,6.8481,6.8481,6.8481,6.8481,6.8481,6.8481,6.8481,6.8481,0.0,0.0,0.0,0.0,5.9855,5.9855,5.9855,0.0,5.9791,5.9791,0.0,5.9791,5.9791,0.0,0.0,5.9923,6.0527,6.1074,6.1264,6.2715,6.4021,6.4674,6.4769,6.4647,6.4291,6.4644,6.5245,6.6165,6.6982,6.7714,6.8297,6.8432,6.8432,6.8334,6.8309,6.8309,6.8284,6.8165,6.8114,6.8114,6.8114,6.8114,6.8114,6.8114,6.8114,6.8114,6.8114,6.8114,6.8114,6.8139,6.8139,6.8165,6.8408,6.8481,6.8481,6.8481,6.8481,6.8481,6.8481,6.8481,6.8481,6.8481,6.8481,6.8481,6.8481,6.8481,6.8481,6.8481,6.8481,6.8481,6.8481,6.8481,6.8481,6.8481,6.8481,6.8481,6.8481,6.8481,6.8481,6.8481,6.8481,6.8481,6.8481,6.8481,6.8481,6.8481,6.8481,6.8481,6.8481,6.8481,6.8481,6.8481,6.8481,6.8481,6.8481,6.8481,6.8481,6.8481,6.8481,6.8481,6.8481,6.8481,6.8481,6.8481,6.8481,6.8481,6.8481,6.8481,6.8481,6.8481,6.8481,6.8481,0.0,0.0,0.0,0.0,0.0,5.945,5.945,5.9307,5.9159,5.9159,0.0,0.0,0.0,0.0,0.0,0.0,5.944,5.9815,6.0303,6.1409,6.2538,6.354,6.4106,6.4252,6.3875,6.4439,6.5162,6.6035,6.6852,6.7579,6.8272,6.8358,6.8334,6.8208,6.8165,6.8158,6.8081,6.8011,6.7933,6.7873,6.7873,6.7873,6.7873,6.7873,6.7873,6.7855,6.7959,6.7985,6.7985,6.8063,6.8114,6.8114,6.8215,6.8265,6.8265,6.8265,6.8265,6.8265,6.8265,6.8265,6.8265,6.8358,6.8383,6.8383,6.85,6.8481,6.8481,6.8481,6.8481,6.8481,6.8481,6.8481,6.8481,6.8481,6.8481,6.8481,6.8481,6.8481,6.8481,6.8481,6.8481,6.8481,6.8481,6.8481,6.8481,6.8481,6.8481,6.8481,6.8481,6.8481,6.8481,6.8481,6.8481,6.8481,6.8481,6.8481,6.8481,6.8481,6.8481,6.8481,6.8481,6.8481,6.8481,6.8481,6.8481,6.8481,6.8481,6.8481,6.8481,6.8481,6.8481,6.8481,5.8716,5.8885,5.9064,5.9064,5.9064,5.9064,5.9064,5.8867,5.8716,5.8716,5.8716,0.0,0.0,0.0,0.0,0.0,0.0,5.8902,5.9497,6.0518,6.1595,6.2638,6.352,6.3918,6.3624,6.4118,6.4939,6.6017,6.6582,6.7289,6.8203,6.8259,6.8165,6.8063,6.8037,6.8011,6.7907,6.7855,6.7794,6.7687,6.7687,6.7687,6.7687,6.7687,6.7687,6.7714,6.7802,6.7847,6.7855,6.7959,6.7985,6.7985,6.7985,6.7985,6.8011,6.8063,6.8114,6.8114,6.8114,6.8114,6.8114,6.8208,6.8259,6.8259,6.8358,6.8383,6.8383,6.8383,6.8408,6.8432,6.8432,6.8457,6.8481,6.8481,6.8481,6.8481,6.8481,6.8481,6.8481,6.8481,6.8481,6.8481,6.8481,6.8481,6.8481,6.8481,6.8481,6.8481,6.8481,6.8481,6.8481,6.8481,6.8481,6.8481,6.8481,6.8481,6.8481,6.8481,6.8481,6.8481,6.8481,6.8481,6.8481,6.8481,6.8481,6.8481,6.8481,6.8481,6.8481,6.8481,6.8481,6.8481,5.8716,5.8716,5.8719,5.8719,5.8719,5.8719,5.8719,5.8716,5.8716,5.8716,5.8716,5.8716,5.8716,0.0,0.0,0.0,0.0,0.0,0.0,6.0165,6.1503,6.2324,6.3141,6.3602,6.3602,6.3616,6.4326,6.5979,6.593,6.6494,6.8021,6.8114,6.8037,6.7907,6.7907,6.7907,6.7907,6.7767,6.7714,6.7687,6.7687,6.7687,6.7687,6.7687,6.7687,6.7687,6.7714,6.7714,6.7714,6.7714,6.7714,6.7714,6.7714,6.7714,6.7741,6.8011,6.8114,6.8114,6.8114,6.8114,6.8114,6.8114,6.8114,6.8114,6.8114,6.8114,6.8114,6.8114,6.8208,6.8309,6.8309,6.8408,6.8481,6.8481,6.8481,6.8481,6.8481,6.8481,6.8481,6.8481,6.8481,6.8481,6.8481,6.8481,6.8481,6.8481,6.8481,6.8481,6.8481,6.8481,6.8481,6.8481,6.8481,6.8481,6.8481,6.8481,6.8481,6.8481,6.8481,6.8481,6.8481,6.8481,6.8481,6.8481,6.8481,6.8481,6.8481,6.8481,6.8481,6.8481,6.8481,6.8481,5.8716,5.8716,5.8716,5.8716,5.8716,5.8716,5.8716,5.8716,5.8716,5.8716,5.8716,5.8716,5.8716,0.0,0.0,0.0,0.0,0.0,0.0,6.0147,6.1707,6.3044,6.3435,6.3602,6.3602,6.3602,6.4243,6.5782,6.5845,6.6427,6.7893,6.7959,6.7907,6.7767,6.7767,6.7767,6.7767,6.7714,6.7687,6.7687,6.7687,6.7687,6.7687,6.7687,6.7687,6.7687,6.7687,6.7687,6.7687,6.7687,6.7687,6.7687,6.7687,6.7687,6.7714,6.7802,6.7847,6.7847,6.7847,6.7847,6.7855,6.7933,6.7959,6.7985,6.8063,6.8114,6.8114,6.8114,6.8139,6.8165,6.8165,6.819,6.824,6.824,6.8309,6.8358,6.8358,6.8358,6.8383,6.8481,6.8432,6.8383,6.8481,6.8481,6.8481,6.8481,6.8481,6.8481,6.8481,6.8481,6.8481,6.8481,6.8481,6.8481,6.8481,6.8481,6.8481,6.8481,6.8481,6.8481,6.8481,6.8481,6.8481,6.8481,6.8481,6.8481,6.8481,6.8481,6.8481,6.8481,6.8481,6.8481,5.8716,5.8716,5.8716,5.8716,5.8716,5.8716,5.8716,5.8716,5.8716,5.8716,5.8716,5.8716,5.8716,0.0,0.0,0.0,0.0,0.0,0.0,6.0778,6.2134,6.3453,6.3602,6.3602,6.3602,6.3602,6.4202,6.5673,6.5754,6.6359,6.7815,6.7855,6.7794,6.7714,6.7687,6.7687,6.7687,6.7687,6.7687,6.7687,6.7687,6.7687,6.7687,6.7687,6.7687,6.7687,6.7687,6.7687,6.7687,6.7687,6.7687,6.7687,6.7687,6.7687,6.7687,6.7687,6.7687,6.7687,6.7687,6.7687,6.7714,6.782,6.7828,6.7847,6.7933,6.7959,6.7959,6.7959,6.7985,6.8037,6.8037,6.8063,6.8114,6.8114,6.8165,6.8234,6.8234,6.8234,6.824,6.8358,6.8284,6.8259,6.8358,6.8358,6.8383,6.85,6.8481,6.8481,6.8481,6.8481,6.8481,6.8481,6.8481,6.8481,6.8481,6.8481,6.8481,6.8481,6.8481,6.8481,6.8481,6.8481,6.8636,6.8908,6.863,6.863,6.8927,6.863,6.8481,6.8481,6.8481,6.8481]}]]